GFSCGP_sfc_wetblb_000.txt.gz
Wetbulb
41.86 38.16 33.86 35.53 36.72 37.44 35.98 33.67 32.65 34.15 38.65 39.22 36.60 36.87 38.77 38.24 38.57 38.65 37.09 38.60 41.23 42.61 42.02 42.38 43.23 44.10 45.26 45.88 45.89 45.76 46.52 46.73 45.48 44.57 44.27 43.71 44.13 43.83 44.14 44.83 46.38 47.41 49.83 50.47
39.50 35.28 38.43 40.92 39.92 37.87 36.68 34.22 32.91 37.24 39.32 37.76 37.45 37.31 37.51 39.87 38.62 38.27 38.91 40.21 41.31 41.49 41.89 43.50 43.29 42.98 44.65 45.74 45.82 44.80 44.90 44.96 44.09 43.64 43.15 43.01 42.55 42.84 42.78 43.60 44.20 45.33 46.39 48.72
36.54 37.86 41.69 40.22 37.99 37.46 35.26 33.62 33.21 35.30 37.79 37.09 35.84 34.64 36.82 39.34 40.78 41.27 41.09 40.48 41.56 41.60 42.81 42.06 42.73 42.20 42.50 43.79 44.01 44.54 44.55 44.41 44.31 44.44 43.59 42.89 42.62 43.14 43.17 43.94 43.48 44.83 45.12 46.94
38.63 40.25 39.84 39.35 37.57 36.89 33.16 37.48 37.10 36.18 34.50 31.10 34.95 28.82 35.41 36.82 37.89 39.64 39.93 39.98 39.17 40.38 42.04 43.10 43.16 42.61 42.20 42.94 42.92 43.98 44.71 44.65 45.29 44.72 43.38 42.65 41.71 41.76 43.96 44.27 44.83 46.07 45.25 44.56
36.36 37.37 38.46 38.65 37.59 38.94 37.61 39.99 37.24 36.44 33.65 32.69 34.31 29.80 34.26 36.88 36.53 36.62 37.97 40.17 39.05 41.37 42.09 41.78 42.41 42.13 42.59 42.98 42.73 44.09 45.59 45.68 45.28 44.66 44.05 43.18 42.81 43.28 44.17 44.72 43.74 44.67 44.53 43.05
39.59 41.46 39.87 38.65 40.72 40.53 42.02 38.21 36.60 35.42 33.34 27.59 31.68 30.49 30.90 33.87 36.22 38.07 39.48 39.91 41.57 42.02 42.20 43.85 42.98 44.46 43.90 43.68 43.77 43.94 44.50 44.71 45.10 44.40 43.42 41.68 40.32 40.86 41.73 43.02 42.28 42.78 42.01 40.51
39.33 39.67 42.07 41.91 39.19 41.56 39.53 32.83 24.83 24.54 23.60 24.62 33.88 30.06 32.37 38.13 39.22 39.60 40.05 39.92 41.58 41.57 41.16 40.88 42.08 42.75 43.15 43.27 43.49 44.12 43.34 43.38 43.61 42.98 40.50 39.65 40.38 40.42 40.81 41.56 41.73 40.44 38.93 35.97
32.87 30.04 39.61 43.06 38.46 35.74 36.12 34.21 25.27 20.82 20.02 24.63 32.74 28.46 33.82 40.38 41.10 41.35 41.50 40.88 41.05 41.05 42.27 42.45 42.45 41.85 42.24 42.78 42.78 42.69 42.65 42.68 43.04 41.76 39.63 39.76 40.92 41.06 41.00 40.50 39.36 37.82 35.83 35.86
32.22 33.42 41.43 41.84 41.57 39.69 36.56 32.23 36.18 28.50 21.19 22.09 28.55 33.35 38.09 39.59 41.11 42.32 39.61 39.50 39.26 40.19 40.94 41.86 44.24 43.88 43.67 44.06 44.18 42.83 42.40 42.77 43.28 41.12 38.26 39.09 40.13 40.52 40.42 39.17 36.46 35.65 35.81 38.63
37.41 32.78 38.38 41.21 41.38 41.59 38.78 39.63 30.48 29.09 19.21 20.82 27.35 28.83 30.63 36.30 37.92 38.95 37.20 38.21 39.55 40.62 42.13 43.65 43.98 44.49 44.88 43.59 43.07 42.95 42.37 42.40 42.65 38.81 39.07 40.13 39.02 39.64 39.15 36.08 35.49 35.20 36.22 38.35
37.70 35.69 34.02 37.35 36.48 34.71 36.12 33.20 34.09 33.92 29.60 21.65 20.33 27.20 36.61 36.39 37.43 37.42 37.42 39.85 40.20 40.87 41.28 41.91 42.60 43.12 43.23 42.90 42.84 42.40 41.82 41.67 41.31 37.68 37.92 37.46 38.56 37.73 36.23 34.38 34.57 35.32 37.33 37.16
38.55 33.10 28.01 32.67 38.00 39.86 37.46 35.12 34.06 25.25 25.45 26.92 23.83 28.04 38.41 38.79 39.04 39.12 38.99 40.64 41.35 41.82 41.75 41.88 42.17 42.88 42.69 42.49 42.84 42.21 41.20 41.32 38.70 38.50 37.60 36.91 35.33 33.27 32.96 33.47 34.26 35.36 35.49 36.05
38.38 31.33 25.12 28.87 33.83 36.62 35.36 36.39 35.60 31.54 29.34 28.86 22.20 27.51 38.55 38.94 38.62 39.34 39.02 40.20 40.92 41.29 41.49 42.16 43.30 42.81 42.50 42.12 41.94 42.01 41.60 39.27 38.77 38.10 36.42 33.21 31.56 31.18 32.04 32.96 34.56 35.89 36.31 36.80
41.85 33.79 29.94 25.08 29.39 32.55 32.03 35.17 35.52 33.73 29.74 28.84 29.43 32.68 37.55 38.92 37.52 38.79 39.73 40.11 41.35 41.16 41.44 41.45 41.88 42.31 41.88 41.48 41.44 40.90 39.69 39.07 38.12 37.83 35.28 33.20 32.22 31.89 32.59 35.59 36.38 36.78 36.95 37.21
38.73 31.95 32.76 33.66 35.19 34.92 35.34 34.87 35.13 32.68 32.89 31.09 33.16 31.85 35.97 37.31 36.78 39.16 40.64 40.67 41.29 41.80 41.63 41.15 41.19 42.64 41.78 41.95 41.29 39.69 38.94 38.26 38.03 37.49 37.36 36.16 37.79 38.16 36.70 36.66 37.29 37.54 37.58 37.87
37.53 29.48 31.01 30.15 33.95 33.80 31.74 34.45 35.00 34.73 34.29 33.68 34.56 33.63 38.67 37.00 38.86 39.47 40.34 40.90 40.68 40.29 40.39 41.17 40.89 39.97 40.94 41.42 39.36 38.72 37.87 37.67 38.58 37.38 37.17 38.95 40.15 39.22 38.30 38.52 37.96 37.59 37.31 36.91
34.56 28.84 28.37 23.97 30.44 29.47 25.09 29.72 32.31 33.24 34.61 33.74 29.78 34.73 35.19 36.85 38.66 39.27 40.34 40.27 39.84 39.11 40.07 38.11 38.88 40.43 41.17 39.25 37.54 36.35 36.90 37.04 36.80 36.96 34.83 34.06 35.29 36.23 36.84 37.00 36.26 34.15 30.81 29.19
31.08 27.62 27.57 23.88 30.76 21.90 32.95 36.20 36.67 34.09 34.81 35.97 34.51 35.08 36.73 38.56 39.54 39.78 41.13 39.92 38.13 38.07 39.38 39.80 40.02 40.44 38.42 37.72 36.06 34.52 33.21 32.98 31.99 31.47 32.48 34.21 34.04 31.79 30.77 29.70 28.79 28.08 27.61 26.45
35.04 31.83 28.18 28.73 28.30 29.11 34.38 35.68 32.46 31.38 31.43 35.54 34.23 37.36 38.39 39.42 37.99 37.62 39.55 39.29 39.79 39.96 40.04 40.06 39.91 38.46 36.54 35.09 31.40 29.93 29.96 29.99 31.01 32.88 33.26 33.22 30.21 28.86 28.72 27.33 25.94 25.90 25.27 25.12
34.48 28.99 26.53 27.97 25.42 23.34 30.94 34.15 36.67 37.70 28.13 36.90 39.41 39.76 40.07 38.02 33.54 37.71 40.35 40.81 40.36 39.84 40.50 39.66 38.32 36.89 35.52 35.56 32.02 32.42 30.88 30.09 29.38 31.25 30.21 29.09 28.76 27.54 25.64 24.49 24.20 24.66 24.02 25.44
26.52 28.80 30.87 30.35 27.02 27.53 33.88 36.18 38.62 28.70 30.29 38.49 38.10 39.76 38.03 35.66 38.60 38.14 39.06 38.47 38.91 39.90 39.62 38.65 37.12 34.68 35.26 35.78 32.44 29.78 28.89 28.25 30.12 30.06 28.97 28.25 27.50 26.13 24.61 23.79 23.64 23.05 23.04 23.00
26.80 22.52 21.00 25.47 24.97 21.99 35.87 37.29 32.70 37.10 39.36 39.96 40.15 38.78 39.95 39.16 38.14 37.54 37.76 37.49 37.52 38.08 37.21 36.93 34.61 33.82 35.56 35.12 30.44 29.55 28.47 29.71 30.20 28.82 27.27 26.66 26.37 25.88 24.93 23.13 22.70 22.74 21.36 19.22
28.42 31.86 30.46 32.87 29.20 35.64 39.26 40.41 41.12 41.63 39.98 38.28 37.63 39.66 38.15 36.17 36.00 36.44 35.82 36.42 36.89 37.67 36.27 34.90 32.92 33.61 34.42 32.64 33.16 32.83 33.46 30.31 28.88 27.60 26.29 25.95 26.27 25.50 24.61 22.96 22.10 21.62 20.44 17.33
36.28 38.67 33.78 34.29 36.63 39.71 42.39 42.67 42.48 41.71 41.21 39.58 39.14 38.46 37.97 36.19 36.70 35.70 35.91 35.53 35.88 36.20 33.88 32.56 32.84 33.32 32.90 33.45 33.77 29.73 28.68 28.31 27.68 26.84 26.23 25.73 24.71 24.32 22.89 23.09 23.24 21.93 17.71 16.23
37.89 39.07 36.63 35.58 40.28 40.13 40.37 40.30 41.22 40.50 40.71 39.84 39.63 38.81 37.42 36.14 35.17 35.21 34.35 34.10 34.97 33.84 32.71 32.65 33.23 32.52 32.03 31.68 30.42 28.48 27.56 27.71 26.70 26.95 26.99 25.70 24.67 23.43 23.23 23.09 22.01 22.44 21.11 18.41
38.98 37.41 33.28 35.05 40.34 41.19 41.71 42.16 42.90 40.00 38.98 39.25 37.90 36.36 37.44 36.07 33.65 34.44 34.30 34.34 33.92 33.41 32.61 32.22 33.29 31.72 31.69 30.65 27.92 27.40 27.16 26.85 26.08 26.40 25.58 21.38 20.63 19.90 22.07 21.25 20.87 24.74 23.97 24.97

GFSCGP_sfc_wetblb_003.txt.gz
Wetbulb
45.20 43.22 39.76 40.63 41.54 41.40 40.52 39.06 38.81 40.82 42.95 43.18 41.57 42.27 44.08 44.80 45.50 44.75 45.14 45.98 46.92 48.85 48.84 49.73 50.52 51.85 53.18 54.94 56.39 57.64 56.54 56.80 55.49 53.93 53.46 54.08 53.33 53.22 53.74 53.55 53.43 53.63 54.24 55.27
43.55 39.88 42.15 42.41 42.02 41.03 40.82 39.24 38.44 41.21 42.29 42.96 42.46 42.82 43.55 44.78 44.26 44.85 46.61 47.08 47.87 48.55 48.98 49.03 50.52 51.99 53.67 55.26 55.80 53.95 52.17 51.84 51.72 52.23 52.51 52.35 51.81 52.45 51.74 52.23 53.01 53.42 53.19 53.31
40.54 41.31 43.38 42.61 40.98 40.86 39.95 38.95 38.64 38.88 41.39 42.40 41.04 41.58 42.59 44.31 45.50 46.29 46.76 47.44 47.80 48.76 49.17 49.25 49.98 51.54 51.83 51.59 51.05 50.64 51.09 51.91 52.14 51.64 52.17 52.52 52.42 52.25 51.75 51.24 51.43 52.18 52.83 52.75
41.15 43.00 42.50 42.08 40.59 40.87 38.05 41.06 41.01 39.59 39.57 37.98 40.43 36.07 41.47 41.81 43.18 44.90 45.92 47.37 48.20 48.89 49.37 49.73 49.87 50.38 50.55 50.64 51.81 52.49 52.19 51.84 51.24 51.36 50.21 49.32 48.20 47.53 49.20 49.50 49.90 50.40 51.55 51.60
39.99 41.63 41.59 41.30 40.78 42.29 40.95 42.16 40.89 40.32 39.63 39.01 39.77 38.09 40.43 42.04 41.89 42.95 45.08 46.03 47.61 47.70 47.89 48.05 48.48 49.64 50.05 51.01 51.18 51.49 51.20 50.84 50.73 49.52 49.30 49.28 48.78 49.06 49.23 48.87 48.72 49.10 49.66 50.17
42.55 45.36 43.69 42.87 43.62 43.79 43.56 41.41 39.96 39.24 38.70 34.75 36.55 36.30 37.39 40.48 40.98 42.93 45.34 46.55 46.22 46.88 47.33 47.98 49.23 49.72 49.66 50.51 50.67 50.72 50.85 50.84 51.32 50.01 48.65 48.42 48.12 48.05 48.20 48.58 47.52 47.89 47.84 47.37
41.36 42.24 44.96 44.39 42.62 44.78 42.96 38.21 33.94 33.96 33.35 32.73 36.74 35.59 37.68 42.32 42.86 43.68 44.19 45.03 46.31 47.66 47.87 48.02 47.99 48.46 49.01 49.52 50.05 49.89 49.94 49.73 50.14 49.80 47.31 47.84 48.87 48.76 47.78 47.00 46.86 45.92 45.17 45.56
36.20 35.07 42.10 44.83 42.26 40.11 40.20 38.67 33.49 26.58 28.92 31.35 36.01 33.36 38.08 43.45 45.13 44.95 44.65 44.54 45.55 46.21 47.30 47.69 47.53 48.28 48.84 49.01 49.43 49.34 48.81 48.85 49.93 49.89 46.98 47.78 48.58 47.51 46.19 46.15 46.00 44.28 43.71 43.85
36.36 36.36 43.58 44.20 44.34 43.21 40.23 37.41 39.24 32.09 25.72 31.04 34.13 37.85 41.71 43.43 43.62 44.51 43.33 44.72 45.29 46.30 47.31 47.54 48.35 48.45 49.01 48.88 48.96 48.60 48.15 48.35 49.21 49.06 46.53 46.96 46.40 45.73 45.12 44.81 43.74 42.92 43.03 44.13
40.10 35.57 41.03 42.94 44.50 44.22 42.41 42.27 35.79 35.75 27.74 25.71 32.49 33.39 36.57 39.61 41.59 41.75 42.31 43.88 45.52 47.05 47.93 48.46 49.03 49.06 48.64 48.88 48.45 48.67 48.46 47.62 47.95 48.06 46.24 45.46 45.08 44.57 43.22 41.88 41.43 41.72 43.12 43.65
40.87 38.67 37.64 40.45 39.65 38.69 40.22 38.25 37.36 37.26 34.46 29.84 26.84 32.52 41.40 41.57 42.55 42.73 43.77 44.69 45.46 46.84 47.75 48.27 48.46 48.01 48.05 47.91 48.39 48.17 47.94 47.08 47.23 45.34 44.57 44.15 43.56 41.38 40.40 40.69 41.23 41.57 42.60 41.70
41.62 37.00 33.45 36.62 41.19 42.81 41.52 38.57 37.22 32.33 29.19 33.09 31.00 31.83 42.37 43.63 44.17 44.20 44.22 44.75 45.95 46.85 47.43 47.81 47.96 47.95 48.00 48.29 47.76 47.61 47.52 46.22 44.50 44.16 43.84 43.00 40.76 39.36 39.64 39.92 40.79 41.98 41.59 40.98
42.08 36.15 30.59 32.34 37.50 40.16 39.16 39.66 37.22 35.51 34.10 31.86 29.52 32.48 42.08 42.57 43.36 44.41 44.26 44.92 45.77 46.50 46.71 47.19 47.16 46.86 47.02 46.41 46.24 46.30 45.71 44.17 43.75 43.36 43.08 41.07 40.06 39.03 38.91 40.98 41.65 42.10 41.72 41.57
43.36 36.74 33.59 30.08 32.93 36.66 34.87 36.69 37.76 37.54 33.43 32.89 33.64 35.65 40.61 42.26 42.24 43.44 43.06 44.64 45.34 45.94 46.07 46.08 46.27 45.77 45.39 45.34 44.53 43.47 42.80 43.09 42.29 42.44 42.08 41.31 40.24 39.77 40.14 40.67 41.45 41.20 41.09 40.33
42.19 36.04 35.87 36.44 37.51 36.85 36.52 36.26 36.75 35.57 36.83 32.91 35.75 36.12 39.83 41.99 42.25 42.49 44.45 44.95 44.66 45.23 45.37 44.44 43.63 43.50 43.68 43.45 43.12 42.61 42.27 41.80 42.36 41.67 40.98 40.24 41.16 40.83 38.97 38.34 38.74 39.64 40.44 40.18
39.74 34.97 35.38 32.99 35.15 34.73 32.78 35.69 36.10 36.62 36.89 36.56 37.17 36.45 42.78 42.98 42.60 43.24 43.36 43.34 43.29 43.75 42.59 41.82 41.30 41.01 41.88 42.95 41.83 40.66 40.14 40.44 40.74 38.54 36.35 36.88 37.28 38.45 38.37 38.23 38.10 37.48 36.27 34.74
38.23 35.30 32.54 29.67 32.48 32.51 29.81 33.47 35.44 36.69 37.98 37.66 33.59 38.76 39.96 40.57 41.70 43.05 43.21 43.20 41.25 39.55 40.04 40.03 40.58 41.20 41.90 42.74 40.22 39.35 39.20 39.36 37.94 36.02 36.27 37.31 38.07 36.49 34.95 34.89 34.39 33.53 32.94 33.08
33.37 32.86 31.97 30.92 32.36 25.59 36.55 39.49 39.47 37.37 38.33 38.85 37.94 38.83 40.40 41.93 43.17 43.48 42.47 40.48 39.52 39.46 38.70 39.84 40.98 42.08 43.31 42.06 39.92 38.00 37.79 36.60 35.26 35.68 37.09 37.86 36.08 33.74 33.85 33.49 32.52 32.07 31.99 31.16
37.80 34.42 31.24 29.41 29.42 32.13 36.21 38.55 36.82 35.62 35.93 39.13 39.32 40.81 42.17 43.76 43.03 40.97 40.64 40.94 39.35 38.35 40.16 41.28 42.68 43.36 42.36 40.32 39.28 35.69 34.91 34.72 35.04 35.80 36.29 34.93 33.42 32.78 32.27 31.17 30.73 31.05 30.45 30.23
35.72 33.11 34.07 30.73 27.78 25.53 34.88 38.00 40.31 40.29 32.85 40.80 41.45 41.44 41.93 41.82 35.11 40.05 38.37 39.86 39.91 40.80 41.50 41.62 43.07 42.42 39.99 39.89 38.22 34.93 35.11 35.15 34.53 34.76 34.05 33.49 32.76 31.98 31.13 30.55 30.09 30.15 30.00 29.16
30.24 30.87 30.32 30.92 28.99 32.07 37.38 38.68 40.29 31.50 34.05 39.84 41.48 42.06 40.52 38.10 38.16 38.67 39.89 39.46 40.82 40.93 40.30 41.67 42.19 39.62 39.09 39.79 38.73 35.46 32.76 32.56 35.51 34.71 33.68 32.90 32.25 31.31 31.23 30.03 30.20 29.39 29.09 28.01
31.39 30.15 27.62 28.00 26.96 25.36 38.34 38.66 36.57 40.30 40.58 41.44 41.20 41.09 39.70 38.88 38.41 38.16 38.96 38.66 38.77 38.91 39.69 40.37 39.80 38.60 38.86 39.29 35.97 34.26 34.75 37.71 38.10 34.74 32.95 32.39 31.92 31.07 30.07 29.52 29.70 28.95 28.28 27.03
31.96 35.14 33.37 33.32 33.85 39.34 40.35 41.56 43.07 42.11 41.12 40.13 39.55 39.17 38.41 36.87 35.86 37.86 37.89 38.28 38.74 38.44 38.75 39.65 38.48 37.60 38.37 38.66 35.91 36.42 37.65 37.18 35.06 33.23 32.41 31.92 31.39 30.84 30.38 28.92 28.50 27.68 27.67 26.27
37.07 38.96 36.30 35.51 39.95 40.41 42.38 43.08 43.50 42.25 41.43 40.37 40.74 39.27 38.51 37.09 37.55 37.70 37.73 37.84 37.15 37.41 37.39 38.30 37.40 36.97 37.23 38.01 36.26 36.56 36.17 34.16 32.77 32.09 31.75 31.60 30.74 30.22 30.77 29.26 28.78 27.17 26.85 25.40
40.18 39.81 37.11 36.42 41.02 41.34 41.81 43.04 44.30 41.37 41.59 40.00 40.40 39.82 38.89 38.37 37.43 37.30 36.88 36.27 36.27 36.61 36.84 37.18 36.54 36.51 37.23 37.30 35.74 34.50 32.80 32.37 31.55 31.29 31.17 30.59 29.96 28.95 28.31 28.46 27.49 26.94 27.14 25.37
40.80 39.71 37.17 36.36 41.39 41.72 41.38 43.27 43.06 40.10 39.27 39.09 37.76 37.19 37.95 37.56 36.62 36.66 35.59 35.65 35.58 35.39 35.98 35.80 35.82 36.71 36.79 35.09 32.96 32.59 31.77 30.67 30.26 29.56 29.76 29.78 28.88 28.20 27.27 26.89 26.53 26.07 24.59 24.48

GFSCGP_sfc_wetblb_006.txt.gz
Wetbulb
50.68 48.64 45.43 46.05 46.83 45.90 44.96 43.68 43.00 44.92 47.64 47.60 47.13 46.91 48.07 50.47 51.28 51.33 51.73 51.63 52.92 55.50 56.28 56.68 57.11 58.24 60.05 62.98 63.23 62.30 61.59 58.64 59.77 59.47 57.51 57.77 57.30 57.93 58.43 58.16 58.16 58.09 57.71 57.49
48.09 44.58 46.29 47.45 46.90 45.00 44.50 43.03 42.89 45.50 46.63 47.34 47.22 46.65 48.27 49.72 50.07 51.41 52.13 52.41 53.27 54.08 54.80 55.78 57.24 58.45 59.29 60.13 59.78 57.87 56.86 57.06 57.13 57.85 57.68 57.52 57.03 57.46 57.36 57.47 57.44 56.95 55.58 55.44
45.67 45.07 46.56 46.21 46.94 45.57 44.34 43.14 43.48 43.27 46.42 48.00 46.60 46.15 46.63 48.52 50.47 51.35 52.11 52.83 53.47 53.60 53.61 54.48 55.59 56.45 57.47 56.58 56.97 56.65 56.81 56.71 56.62 56.73 56.96 57.56 58.01 56.89 55.86 55.07 54.60 54.29 54.38 54.06
45.99 47.35 46.53 46.32 45.16 46.42 42.64 45.67 45.36 44.41 44.08 42.54 46.96 41.28 45.12 46.66 47.71 49.27 50.57 51.95 52.41 53.11 53.64 53.83 54.25 55.19 55.82 56.61 57.10 56.43 56.19 56.22 55.58 55.84 55.30 54.81 53.60 52.41 53.44 53.61 53.79 53.37 53.58 53.15
43.41 45.85 46.01 45.28 44.65 47.02 44.54 46.96 45.43 45.00 44.64 44.32 44.23 42.60 44.73 47.48 45.63 47.07 49.26 50.94 51.97 52.56 53.35 53.50 53.88 54.31 55.08 56.02 56.02 56.36 56.03 55.70 55.44 54.67 54.68 54.23 53.23 53.24 53.50 53.19 51.91 51.91 52.23 52.59
46.77 49.27 48.62 47.24 47.27 47.08 48.05 45.48 45.47 46.19 45.96 39.94 41.83 41.80 42.55 45.82 44.64 47.05 49.29 50.88 52.00 52.79 52.54 53.33 54.20 54.68 54.88 55.96 56.25 55.82 54.96 54.37 55.04 54.78 53.89 53.01 52.70 52.55 51.67 50.77 49.78 49.93 50.39 50.78
45.63 46.21 48.72 49.42 46.40 48.69 48.15 44.14 40.35 37.97 38.60 37.75 41.80 40.84 42.73 45.35 47.27 48.26 48.78 50.45 51.74 53.10 53.05 52.76 52.84 53.46 54.28 54.47 54.55 53.76 53.92 53.19 54.11 53.63 52.06 51.99 52.09 52.11 50.94 50.08 49.07 48.33 48.23 48.70
41.64 39.62 46.24 48.67 46.20 44.20 44.72 44.38 39.17 30.11 34.59 37.42 41.81 38.11 43.12 47.59 48.95 49.25 49.63 50.12 50.89 51.52 52.44 52.35 52.67 53.37 53.57 53.57 54.07 54.15 52.85 52.43 52.52 51.59 51.40 52.08 52.53 51.84 50.37 49.59 48.25 47.39 47.63 48.33
41.57 40.44 47.35 47.15 48.25 47.17 43.98 41.80 44.29 37.77 33.00 36.35 40.92 42.51 45.91 47.45 47.54 48.17 48.36 49.30 49.94 50.78 51.16 51.77 52.61 53.24 53.43 53.31 52.28 53.47 52.72 52.80 52.68 52.45 52.67 51.99 51.76 50.11 48.49 47.99 47.65 47.37 47.95 47.64
43.84 39.75 44.38 46.08 48.09 48.42 46.47 46.46 40.52 41.54 31.72 28.33 37.09 38.30 40.06 43.96 45.62 46.48 47.39 48.50 49.98 51.24 51.67 52.44 52.99 52.35 52.74 53.75 54.03 54.15 53.98 52.89 52.70 52.34 51.57 50.41 49.33 48.63 47.13 46.56 46.15 46.46 46.98 47.62
45.26 42.66 41.40 44.57 43.88 43.24 44.75 43.54 41.98 41.87 39.73 32.89 30.75 36.79 46.12 45.05 45.97 45.89 48.06 49.12 49.98 50.72 51.46 51.91 52.38 52.91 53.13 53.68 53.51 52.95 52.87 52.20 51.45 50.66 49.70 48.71 47.76 46.46 46.10 45.79 45.61 45.62 45.81 45.07
45.90 43.36 38.43 39.77 44.98 46.47 45.61 43.12 42.02 37.28 31.65 37.15 35.65 35.97 46.87 47.36 47.50 47.50 48.16 48.81 50.07 50.81 51.57 51.80 52.26 52.32 52.31 52.02 52.03 51.73 50.96 49.57 48.42 47.58 47.11 46.97 46.11 45.91 45.20 44.99 45.01 44.47 44.08 44.50
46.42 41.77 36.00 37.75 42.46 44.94 43.05 43.55 42.97 40.92 39.48 34.97 32.70 37.42 46.40 47.30 47.37 48.30 47.91 48.62 49.33 50.02 50.57 51.13 51.80 51.35 50.72 49.89 48.54 46.45 46.64 47.61 47.35 46.70 46.26 45.77 45.44 45.10 44.27 43.71 43.26 43.29 42.34 42.05
47.06 42.89 38.54 34.70 37.26 40.85 38.15 40.17 41.96 41.10 35.92 36.08 37.15 39.43 43.78 45.32 45.62 46.90 47.33 48.58 49.39 49.55 49.58 50.19 49.83 49.55 47.81 45.77 45.68 46.83 47.15 47.04 46.23 45.92 45.18 44.63 44.64 43.71 42.99 41.96 42.32 41.90 41.80 41.09
46.94 38.44 40.75 41.13 41.67 41.45 40.32 39.84 40.56 39.19 40.02 35.73 38.84 39.52 42.98 44.81 45.17 46.47 47.70 48.59 48.04 48.04 47.99 47.73 47.30 45.79 46.03 46.21 46.75 47.05 46.36 45.47 45.79 45.03 43.66 42.11 42.33 42.19 41.86 41.34 40.77 40.42 39.70 38.87
45.43 39.27 38.59 36.64 40.08 40.39 38.18 40.67 40.94 40.86 41.20 40.71 40.87 39.99 45.13 46.03 47.03 46.50 46.30 46.12 46.04 46.27 45.59 44.82 42.26 42.79 44.41 44.94 46.12 45.33 44.19 44.59 44.93 43.53 41.11 41.08 41.46 41.10 40.11 39.42 38.85 38.30 37.73 37.48
42.88 41.16 37.40 34.42 37.15 37.17 34.23 38.30 40.17 40.79 42.13 41.52 37.16 42.13 45.12 44.53 45.03 45.98 46.05 45.84 44.47 43.60 43.00 41.02 41.61 43.87 44.69 45.91 46.28 44.32 43.99 44.18 43.49 41.91 40.64 40.77 40.99 39.16 38.37 37.85 37.15 36.65 36.56 36.72
39.09 39.67 37.05 34.46 34.94 30.04 39.09 44.10 43.53 41.21 42.43 43.73 43.21 43.34 44.67 45.70 46.11 47.63 45.67 43.39 40.49 40.23 41.30 42.17 43.55 43.72 45.20 47.18 45.95 44.71 43.98 43.34 42.10 41.07 40.57 40.56 39.15 37.57 37.15 36.52 36.00 36.10 36.11 35.45
44.02 40.90 34.86 31.75 31.65 36.60 38.95 41.30 40.49 39.10 39.38 43.69 42.96 44.36 45.46 46.46 46.18 44.81 41.70 40.78 42.30 42.38 43.10 43.64 44.43 44.85 45.68 46.53 45.06 44.04 42.82 42.18 40.67 39.99 39.13 39.01 38.06 36.75 35.90 35.47 35.47 35.66 35.09 34.69
40.35 40.39 39.79 33.89 30.02 28.71 39.00 41.98 44.04 43.97 35.89 44.21 44.38 43.16 42.44 44.52 38.31 38.72 43.43 41.96 41.56 43.67 44.12 43.41 43.56 44.79 45.95 45.61 44.00 43.55 42.38 41.59 39.93 39.29 39.52 39.13 38.06 36.28 35.19 35.39 35.44 35.67 35.31 33.92
34.80 34.56 33.57 33.43 31.80 35.72 42.84 43.15 44.18 33.76 37.30 44.49 41.91 41.48 41.60 39.48 39.80 41.49 41.88 41.88 43.37 43.39 43.15 43.07 42.77 42.61 44.28 45.14 44.43 42.46 41.38 38.96 39.54 40.10 39.57 38.75 37.70 35.79 35.82 35.72 36.04 35.37 34.45 32.98
36.82 36.58 33.63 33.68 29.97 28.70 43.17 42.94 37.44 43.32 44.03 42.25 42.51 43.32 42.25 42.28 41.52 41.38 41.42 41.33 41.46 41.90 42.14 42.18 41.32 41.32 42.73 43.98 43.45 41.79 39.52 40.02 40.33 40.29 39.37 37.89 36.75 35.73 35.31 35.66 35.53 34.61 33.65 30.97
36.37 40.31 38.21 37.20 39.06 45.89 46.91 44.61 46.07 44.35 42.80 44.39 42.68 43.27 42.49 40.90 40.02 39.87 39.70 40.60 41.09 41.42 41.40 41.43 40.75 40.38 41.34 42.57 43.19 40.19 39.99 40.23 39.59 38.39 37.43 36.93 36.27 35.57 35.84 35.11 34.33 32.82 31.86 28.99
43.12 44.60 40.23 39.80 43.14 44.78 46.47 47.58 46.86 45.32 43.15 42.37 42.51 42.33 40.76 39.56 39.43 39.64 40.14 40.09 40.27 40.41 39.49 40.18 39.36 38.66 38.96 41.13 41.73 40.59 40.18 39.36 37.94 36.81 36.32 36.49 35.70 34.69 35.38 34.81 33.24 31.97 29.70 27.51
44.24 44.18 41.14 40.52 44.27 45.19 45.39 45.71 44.56 43.88 42.42 41.84 42.60 41.46 39.98 39.36 39.03 39.17 38.67 38.82 38.64 38.77 39.22 39.12 38.24 37.92 37.83 39.47 39.20 38.97 37.47 37.12 35.81 35.34 35.22 34.88 34.62 34.39 34.04 33.32 32.28 30.59 29.97 27.17
45.60 43.20 39.45 37.41 43.34 43.89 42.42 43.03 44.48 43.04 42.01 41.39 39.76 39.17 40.16 39.89 39.00 38.72 37.82 38.17 38.19 38.02 38.48 38.11 38.09 37.67 37.61 37.55 37.32 36.89 35.73 34.62 33.49 32.17 33.51 34.25 33.73 34.09 32.70 31.92 31.27 26.64 25.41 24.32

GFSCGP_sfc_wetblb_009.txt.gz
Wetbulb
52.54 49.69 48.17 48.14 48.50 47.48 46.54 45.35 44.82 47.28 49.06 48.18 48.22 48.20 49.84 52.18 52.92 53.03 53.36 53.80 54.18 55.32 60.64 61.59 60.35 60.44 62.08 63.69 63.80 64.34 62.43 61.56 61.25 60.53 59.05 58.36 57.93 58.84 59.36 59.44 59.34 59.19 58.31 57.41
48.91 46.74 48.41 49.46 49.05 47.52 46.67 45.32 45.17 47.14 48.41 48.83 48.78 48.17 49.84 51.36 51.96 53.32 53.25 54.29 55.44 56.39 56.88 57.67 59.04 60.14 61.44 62.33 62.20 60.77 59.69 58.73 59.04 59.04 58.63 58.83 58.64 58.41 58.55 58.90 58.38 57.89 57.07 56.39
47.80 47.87 49.06 48.61 48.30 47.31 46.96 45.86 45.98 45.54 48.14 49.37 48.57 47.29 48.06 50.50 52.12 52.63 53.70 54.44 55.00 54.86 54.94 56.18 57.20 58.62 59.41 59.17 59.10 58.53 58.30 57.98 58.11 58.34 58.08 57.72 58.03 57.86 56.81 56.55 56.32 56.52 55.97 55.07
48.10 49.75 48.17 47.98 47.17 48.24 45.10 47.71 47.07 46.18 45.38 43.39 49.17 43.04 47.11 48.87 49.43 51.05 52.46 53.47 53.78 54.25 54.94 55.71 56.63 57.35 58.07 58.10 58.52 58.18 57.94 57.36 57.13 57.44 56.83 56.06 54.80 53.68 55.04 55.55 55.45 54.58 54.56 53.61
46.42 47.51 47.77 46.81 46.70 48.61 46.73 49.16 47.43 47.44 46.06 46.15 45.86 43.32 45.99 48.87 47.33 48.96 51.27 52.27 53.47 54.50 55.25 55.46 56.03 56.69 57.43 57.93 57.76 58.15 57.36 56.89 56.92 56.50 55.95 55.17 54.85 55.15 55.69 54.81 53.56 53.61 53.21 52.89
48.83 51.37 50.43 49.15 49.38 49.02 50.42 48.55 48.08 48.60 47.19 40.83 45.04 43.71 45.03 46.97 47.92 48.71 50.93 52.27 53.45 54.30 54.91 55.22 55.86 56.40 56.85 57.74 57.61 57.53 56.70 55.71 55.93 56.06 55.83 55.55 53.73 52.12 52.12 51.93 50.98 50.93 50.88 50.69
47.92 47.91 50.57 51.02 48.71 50.71 49.74 47.00 41.81 39.64 40.11 39.17 45.05 42.03 44.93 48.01 49.54 50.49 50.51 51.85 53.32 54.57 54.74 54.41 54.74 55.30 55.72 55.68 55.73 56.65 56.25 55.84 56.31 55.94 54.69 53.96 53.28 53.29 52.14 51.24 50.18 48.86 48.37 48.70
44.08 41.93 47.80 49.98 48.19 46.18 46.44 46.67 41.03 32.72 36.30 39.54 44.73 39.49 44.75 49.87 51.03 51.22 51.41 51.85 52.70 53.22 53.90 53.78 54.28 55.04 55.58 55.48 56.36 56.61 56.03 55.20 55.54 55.30 54.67 54.71 53.95 52.60 51.34 50.11 48.46 47.26 47.45 48.22
43.92 43.04 48.98 49.22 50.36 49.30 46.24 43.79 46.57 40.75 38.78 37.89 41.94 44.57 48.51 49.50 49.40 49.88 49.95 51.01 51.62 52.53 52.92 53.32 54.24 54.94 54.83 55.38 55.95 55.79 55.51 55.26 55.39 54.85 54.52 53.37 52.28 50.68 49.20 48.27 47.93 47.45 47.86 47.70
45.84 42.24 46.36 47.89 49.91 50.11 48.30 48.50 42.43 43.44 32.69 30.35 38.69 39.78 42.04 45.64 47.09 48.86 49.12 49.98 51.26 52.66 53.08 53.81 54.11 54.44 55.10 55.32 55.62 55.92 55.57 54.56 54.44 53.69 52.34 51.22 50.07 49.58 48.26 47.51 46.81 46.96 47.17 47.10
47.16 44.48 44.10 46.42 45.67 45.06 46.54 45.69 44.08 43.20 40.96 34.05 32.47 38.00 47.13 45.97 47.30 47.43 49.08 50.30 51.14 51.92 52.70 53.19 53.51 53.26 54.30 54.98 55.17 54.47 53.34 52.34 51.36 51.42 50.27 49.30 48.83 48.07 47.45 46.70 46.84 46.16 45.17 45.06
47.57 45.28 40.40 42.22 47.28 48.97 47.66 45.14 44.01 38.70 35.14 38.93 36.96 37.19 48.80 48.20 48.27 48.76 49.47 50.08 51.29 51.85 52.32 52.34 52.70 52.43 52.45 52.59 52.72 52.67 51.52 50.25 49.82 49.49 48.63 47.98 47.82 47.36 46.75 46.12 44.36 44.66 44.60 44.92
48.17 44.58 38.70 40.75 44.90 47.28 44.35 45.54 44.55 42.55 40.93 36.20 35.23 37.80 48.46 48.80 48.48 49.32 48.98 49.81 50.63 50.36 50.40 50.88 52.17 52.04 50.95 51.17 50.90 50.27 49.90 49.18 49.05 48.20 47.43 46.85 46.43 45.80 45.16 44.18 43.60 43.71 43.06 42.73
48.09 44.78 40.09 36.70 39.94 43.09 40.52 42.25 43.37 42.64 37.20 37.81 38.55 40.88 45.13 46.53 47.00 47.96 48.63 49.86 49.31 49.67 49.18 49.40 49.24 49.13 49.12 49.23 47.55 48.21 48.30 48.80 47.88 47.31 46.06 45.30 44.82 44.25 43.27 42.61 42.31 41.88 41.65 40.43
47.82 40.14 42.83 43.20 43.29 43.06 42.01 41.69 42.31 40.85 41.48 37.49 40.31 41.16 44.20 46.42 46.56 47.79 49.07 49.14 48.34 47.75 48.17 47.67 47.77 47.81 46.72 46.09 47.01 47.42 48.39 47.75 47.34 46.18 45.38 44.34 43.99 43.56 42.66 41.68 41.27 40.73 40.05 39.36
47.34 41.09 41.42 38.75 42.77 42.14 39.91 42.03 42.58 42.50 42.58 42.34 42.51 41.65 47.69 48.11 48.70 47.97 46.84 47.22 47.17 47.12 46.48 46.28 46.17 45.58 45.46 45.85 45.96 46.99 47.22 46.69 46.77 45.43 44.17 43.89 43.32 41.86 41.28 40.18 39.93 39.13 38.54 38.35
44.57 42.93 39.17 35.56 40.98 39.03 35.63 41.01 41.63 42.34 43.77 43.07 38.88 43.33 46.78 46.50 45.98 44.79 45.10 47.21 45.97 44.78 44.08 45.39 45.13 45.15 45.60 45.75 46.43 46.30 47.00 46.73 45.48 44.64 43.87 43.13 41.81 41.21 40.00 39.33 38.45 37.77 37.41 37.71
43.82 41.43 39.72 35.56 36.05 31.04 42.01 46.42 45.60 42.96 44.06 45.27 45.03 45.55 46.61 45.26 46.49 46.51 46.91 45.63 44.06 43.64 44.44 44.70 45.19 45.37 45.49 45.83 46.13 46.87 47.00 45.87 44.93 43.86 42.65 42.12 41.33 40.29 38.99 38.64 37.48 37.24 37.43 36.75
47.29 43.67 37.29 33.66 34.04 38.16 41.34 42.98 42.26 40.88 40.75 46.03 45.22 46.26 46.50 47.17 46.84 44.39 46.20 45.63 44.15 44.58 45.40 45.50 45.42 44.62 44.41 44.50 45.24 45.37 45.07 44.54 43.68 42.73 41.51 40.85 40.80 38.95 38.08 37.39 36.90 36.98 36.57 36.16
44.11 44.76 41.22 36.26 30.99 29.92 40.59 45.37 46.62 46.01 36.85 46.46 46.05 44.80 43.05 44.62 38.82 42.05 45.33 45.49 44.76 45.48 45.04 44.33 44.75 44.54 43.92 43.94 44.15 43.28 42.83 43.11 41.95 42.00 40.85 40.71 39.89 38.91 37.43 37.17 36.61 36.99 36.56 35.65
36.62 36.82 35.87 34.80 33.11 37.07 44.35 45.08 46.81 35.01 38.46 46.90 45.71 43.90 43.83 41.01 42.66 44.50 44.70 44.55 44.59 44.00 43.98 44.54 43.89 42.66 42.74 43.22 42.89 41.75 41.68 41.22 42.13 42.05 41.20 40.72 40.39 39.01 37.95 37.03 37.10 36.51 36.02 35.28
37.68 36.97 33.53 35.85 32.44 29.99 45.98 44.70 39.08 44.95 47.47 46.41 44.38 44.07 43.05 43.87 43.64 43.44 42.86 42.42 42.78 42.69 42.95 43.04 41.61 41.35 41.96 42.08 41.31 40.23 39.85 42.01 41.81 41.46 40.71 39.45 39.40 38.35 37.21 36.77 36.46 36.16 35.07 33.57
38.48 42.30 40.52 40.13 40.17 47.00 47.45 46.48 49.04 47.95 45.89 45.25 43.21 43.25 44.05 42.62 41.99 41.86 41.42 41.83 42.03 41.84 41.40 41.49 40.70 40.28 40.81 41.15 40.62 38.86 40.66 41.89 40.64 39.51 38.83 38.33 38.09 37.39 37.09 36.12 35.32 34.08 33.88 31.90
45.12 47.81 43.05 42.02 44.62 45.55 46.31 48.03 48.08 47.48 45.56 44.02 43.44 45.19 43.59 41.70 41.36 40.87 41.34 41.25 40.41 40.45 39.88 40.24 39.72 39.12 39.07 40.46 40.21 39.81 40.04 39.62 39.08 37.08 36.89 36.78 35.86 35.50 36.23 35.86 34.88 33.47 31.84 29.56
46.18 46.54 43.90 43.41 46.06 46.14 47.64 46.63 46.68 45.50 45.49 44.90 45.60 43.75 42.63 41.55 40.89 41.19 40.26 39.74 39.69 39.74 39.85 39.84 39.39 38.89 39.03 39.95 39.44 39.54 39.33 37.72 35.89 35.18 35.20 35.07 35.56 35.47 35.13 34.74 34.21 32.72 32.03 28.68
46.84 45.17 42.80 41.20 46.25 45.00 45.05 46.54 46.70 45.51 44.49 44.19 42.32 41.87 42.45 42.14 40.78 40.64 39.34 39.65 39.38 39.07 39.39 39.25 39.37 39.24 39.21 38.85 38.05 37.81 37.92 36.79 34.78 33.34 33.90 34.87 34.64 34.67 33.36 33.14 32.50 27.73 26.83 25.57

GFSCGP_sfc_wetblb_012.txt.gz
Wetbulb
52.25 48.63 46.44 47.74 48.35 47.49 46.59 45.25 44.54 47.40 49.01 47.17 46.95 48.00 49.65 51.76 52.42 53.57 55.12 54.78 55.04 57.17 59.79 59.71 60.60 61.26 62.58 63.66 61.99 61.30 60.37 60.55 60.10 59.88 58.19 57.14 56.32 57.45 57.76 57.80 57.76 57.17 56.40 55.56
48.01 46.10 48.60 49.54 48.90 47.50 46.69 45.18 45.07 47.28 48.65 47.12 48.11 47.11 49.65 51.05 51.77 52.73 52.99 53.87 55.52 55.81 56.37 57.91 59.24 60.17 60.28 60.16 60.31 59.43 58.49 58.18 57.67 57.38 57.35 57.02 57.17 56.73 56.82 57.52 56.54 56.76 55.46 54.49
46.81 47.63 49.51 48.64 48.19 46.74 47.09 45.27 46.04 45.18 48.01 48.85 47.32 46.26 47.23 50.24 51.62 52.54 53.48 54.32 54.64 54.49 54.76 55.99 57.05 57.75 58.62 58.29 58.04 57.45 57.09 56.63 56.66 56.95 56.51 55.86 55.92 55.06 54.35 54.08 54.05 54.79 54.63 53.98
48.20 49.71 48.36 47.90 47.31 47.60 44.38 48.67 47.06 45.82 44.58 40.96 47.48 39.46 45.82 48.17 48.87 50.56 51.60 52.70 53.07 53.60 54.68 55.58 56.32 56.55 56.72 56.89 57.95 57.18 57.37 56.63 56.67 56.28 55.50 54.18 52.98 52.15 53.97 54.78 53.67 53.35 53.33 52.41
46.72 47.88 48.10 47.19 47.09 48.42 46.51 49.10 47.06 46.75 44.97 44.47 45.21 42.39 45.42 48.14 46.41 48.34 50.57 51.96 53.08 54.19 54.68 54.56 55.24 55.88 56.60 57.36 57.28 57.45 57.05 56.44 56.63 56.24 55.12 53.57 53.91 53.14 52.56 52.29 51.76 51.01 50.71 50.20
48.85 51.49 50.29 48.94 49.60 49.09 50.35 48.66 48.13 47.80 45.93 40.54 43.92 43.35 41.85 45.02 46.60 48.45 50.54 51.99 53.13 53.79 54.42 54.71 55.79 56.32 56.13 57.50 57.36 57.17 56.32 55.93 56.12 55.76 54.99 52.75 51.32 51.29 50.57 50.32 48.72 47.65 47.66 47.54
47.99 48.09 50.66 50.78 48.49 50.96 49.22 46.69 40.79 39.08 39.85 38.33 45.62 41.99 44.06 48.13 49.58 50.06 50.37 51.39 52.97 54.13 54.37 54.45 54.56 54.81 55.61 56.01 56.72 56.52 56.04 55.14 55.70 54.99 53.72 53.54 52.53 51.39 49.27 48.22 46.77 45.51 45.33 45.56
43.60 41.17 47.73 50.40 47.98 45.62 46.77 45.64 40.97 32.54 34.07 38.22 44.41 38.99 42.69 49.41 50.70 51.31 51.31 51.83 52.80 53.12 54.00 54.02 55.04 54.71 54.96 55.70 55.80 56.19 55.29 54.22 54.48 54.65 53.78 53.17 51.70 49.59 48.60 47.28 45.66 44.97 44.75 45.09
43.66 42.74 49.16 49.07 49.75 48.69 46.09 42.61 45.99 41.34 38.67 36.89 39.89 44.26 47.48 49.10 48.76 49.61 49.80 50.57 51.38 52.81 53.85 54.17 54.98 55.08 54.78 54.85 54.96 54.77 54.52 54.19 53.61 52.30 51.75 51.21 49.82 48.87 47.23 46.21 45.77 44.95 45.43 45.37
45.66 42.12 46.34 47.58 49.83 50.22 47.41 47.84 41.47 43.39 33.14 30.50 37.19 39.12 39.80 44.99 46.73 48.50 48.63 49.28 50.51 51.77 52.39 53.36 53.35 53.67 54.01 54.22 54.49 54.55 52.62 51.65 51.50 50.81 49.57 48.68 48.24 47.91 46.58 45.91 44.85 44.50 44.06 44.08
47.34 45.44 43.92 46.93 45.42 44.00 45.58 44.42 44.39 42.94 40.75 33.59 31.63 36.34 45.80 45.68 47.33 46.95 48.25 49.67 50.66 51.08 51.21 52.02 52.63 53.05 53.05 53.25 53.16 51.93 50.59 50.08 49.68 49.37 48.64 47.89 47.22 46.87 46.29 45.21 43.98 43.35 42.93 43.29
46.70 45.14 41.90 42.56 47.24 48.28 46.79 44.52 44.02 38.95 35.98 39.83 37.35 35.74 48.25 47.91 48.46 49.09 48.52 49.41 50.56 51.25 51.17 51.14 51.27 51.30 50.99 50.62 51.21 50.45 49.82 49.38 48.79 48.25 47.31 46.45 46.69 45.57 44.09 43.78 42.81 42.25 41.84 42.28
47.41 44.90 39.35 40.28 44.76 47.06 43.27 45.15 44.47 43.65 41.21 35.41 33.31 36.15 48.35 48.61 47.88 49.12 48.04 49.04 49.90 49.98 50.20 50.31 50.26 50.05 49.52 49.61 49.78 48.28 48.47 48.06 48.07 47.41 46.03 45.58 44.74 43.45 42.29 42.04 41.93 41.87 41.11 40.65
48.05 44.69 40.89 36.81 39.47 42.84 40.13 42.06 43.38 42.19 37.29 37.02 37.42 39.40 43.92 46.04 46.30 47.29 47.99 49.14 49.00 49.02 48.97 49.17 48.86 48.62 48.01 47.23 46.52 47.07 47.39 48.16 47.66 46.49 45.45 44.29 43.36 42.39 41.53 41.50 40.82 40.36 39.95 38.31
47.87 41.22 42.81 42.51 42.76 42.86 41.77 41.27 41.86 40.41 41.19 36.12 39.25 39.95 43.51 45.58 46.36 46.61 47.54 47.84 47.81 47.81 47.56 46.98 46.56 46.78 46.01 45.82 46.30 46.42 46.58 47.62 47.47 45.42 44.75 44.05 43.58 42.93 41.63 41.11 40.58 39.65 38.68 37.77
48.19 42.10 41.90 39.52 42.97 41.79 39.11 41.07 41.39 41.69 41.99 41.58 41.94 40.96 47.08 47.94 47.69 46.43 46.30 46.57 46.25 46.20 45.44 45.33 45.97 45.61 45.26 45.56 45.42 45.58 45.61 46.57 47.02 44.82 44.05 44.39 43.71 42.24 41.22 40.43 39.80 38.59 37.19 36.76
45.49 43.75 39.76 36.02 39.44 38.85 36.29 41.11 41.71 42.34 43.57 42.74 38.39 43.27 46.62 45.41 45.48 45.65 45.98 46.16 44.70 44.22 44.21 44.23 44.54 45.10 44.82 43.95 43.81 43.32 44.49 46.14 45.58 44.83 44.36 43.57 41.56 40.82 40.60 40.14 38.29 36.76 35.72 35.22
43.48 41.70 39.58 35.20 35.99 31.22 42.00 45.74 45.15 42.90 43.81 44.85 44.54 45.50 46.06 45.22 46.03 46.72 46.23 44.57 43.48 43.65 43.83 44.19 44.61 44.00 44.04 43.94 43.71 43.59 43.27 42.97 42.90 43.49 42.97 42.65 41.17 40.60 39.88 38.75 37.30 35.78 35.26 34.21
47.79 43.17 35.02 34.19 33.03 37.17 40.65 43.45 41.84 40.26 39.69 45.31 45.11 45.32 45.31 45.53 45.56 43.90 45.31 44.91 43.99 44.14 44.47 43.92 43.81 43.89 43.56 42.88 42.60 41.79 41.24 41.29 41.37 41.01 41.77 40.96 40.37 39.66 39.02 37.31 35.66 34.86 34.18 33.28
45.43 45.98 41.49 34.51 30.77 28.24 41.17 45.17 46.97 45.71 35.81 46.46 45.59 44.30 43.36 43.90 37.64 40.32 44.35 44.49 44.05 43.77 43.33 42.97 43.25 43.05 41.76 41.64 41.34 40.45 39.60 39.18 39.09 40.18 40.82 40.00 39.74 39.23 37.63 36.84 35.27 34.57 33.96 33.93
35.39 37.91 35.06 34.81 31.89 36.21 43.97 45.80 46.93 34.41 37.61 46.14 46.09 44.42 43.34 40.83 41.61 43.55 44.56 43.43 43.00 42.94 42.67 42.94 42.17 40.70 40.78 40.99 40.56 38.99 38.53 38.01 40.18 40.94 40.58 39.26 38.17 38.22 37.52 36.29 35.00 33.67 32.87 31.67
35.13 35.27 32.73 35.43 32.54 30.07 46.38 44.92 39.05 44.79 47.84 46.82 45.57 44.47 42.86 42.77 43.84 43.00 42.39 41.66 41.86 41.35 41.18 41.06 39.78 39.56 40.30 40.58 39.73 38.49 37.65 39.42 40.10 39.61 39.22 38.81 38.63 38.08 37.36 34.91 34.21 33.52 31.05 30.00
39.03 42.91 40.49 39.55 38.90 47.17 48.96 46.23 48.09 47.65 45.89 45.15 44.76 44.17 43.44 43.31 41.93 41.73 40.73 41.24 41.12 40.29 39.72 40.20 39.22 38.90 39.92 40.40 39.93 38.12 38.51 39.22 38.72 37.36 36.94 36.97 37.04 36.58 35.73 33.17 31.30 30.43 29.97 27.74
44.99 47.09 43.90 42.92 44.94 45.72 47.37 48.44 48.72 48.04 46.19 45.81 45.29 44.68 44.87 41.74 41.59 40.45 40.97 40.62 39.70 39.34 38.87 39.37 38.71 38.35 38.50 39.71 39.96 39.01 38.59 38.58 36.77 35.25 35.22 35.23 34.19 33.78 33.71 33.68 32.00 29.91 28.25 26.66
45.27 46.39 44.07 43.28 46.20 47.22 47.39 47.72 46.85 46.12 46.32 45.42 45.69 44.34 42.37 41.59 40.66 40.40 39.56 39.35 39.20 39.01 39.30 38.97 38.42 37.82 37.93 38.98 38.59 38.25 37.16 36.98 35.04 34.58 33.94 32.60 32.43 32.57 32.25 32.20 29.58 29.23 27.75 26.04
46.08 43.76 41.67 40.70 46.94 46.45 45.86 46.37 46.27 44.99 44.59 45.24 42.68 41.91 42.25 41.56 39.64 39.65 38.75 39.16 38.84 38.06 38.47 38.09 38.16 37.85 38.03 38.14 37.32 37.30 36.76 35.91 33.51 31.56 31.44 31.70 31.17 31.33 30.95 30.31 29.46 28.93 27.43 26.88

GFSCGP_sfc_wetblb_015.txt.gz
Wetbulb
48.32 43.38 39.51 41.79 43.95 44.44 43.45 41.58 40.65 40.74 45.41 43.49 42.13 41.47 44.57 46.67 46.89 46.24 47.34 51.07 51.56 52.70 55.52 56.45 56.70 56.72 57.20 56.80 56.92 56.06 55.74 53.39 53.86 52.84 51.85 51.45 50.99 52.31 52.46 52.56 53.37 52.30 51.72 52.27
44.24 40.50 45.33 47.53 47.11 45.54 44.11 42.38 40.97 43.06 45.97 42.47 40.77 40.40 44.49 47.14 46.86 47.39 49.35 49.70 50.63 52.07 53.32 54.40 54.58 54.04 53.82 53.29 53.46 53.22 52.51 52.83 52.37 51.83 51.68 52.44 52.06 51.77 52.14 52.16 52.32 52.18 51.38 50.55
41.99 44.62 48.53 47.36 45.68 44.43 43.63 42.11 41.38 41.61 44.09 42.76 41.33 39.75 43.13 46.80 48.71 49.91 49.16 49.83 50.70 50.92 51.17 52.88 52.82 51.27 51.15 51.09 51.14 52.05 52.00 52.29 52.28 52.00 51.54 50.80 50.26 50.27 50.53 50.94 51.30 51.36 50.03 48.96
44.49 48.14 47.58 45.84 44.98 44.48 41.63 46.46 45.29 43.57 40.28 34.80 40.79 32.38 40.27 44.17 45.51 47.59 48.11 47.61 47.99 49.81 51.87 52.50 51.59 50.57 50.75 50.62 51.15 51.52 52.13 52.11 52.92 51.55 50.19 49.10 48.39 48.44 49.69 48.59 48.42 48.03 47.67 47.16
43.78 45.07 45.42 44.62 44.78 46.23 44.22 47.03 44.52 43.42 39.60 37.96 39.55 35.67 38.19 44.94 43.30 44.87 45.72 47.65 47.85 48.66 49.39 50.10 50.48 51.25 51.33 51.25 50.44 50.60 51.37 51.76 52.00 50.91 50.21 49.50 48.06 48.07 48.77 47.88 45.67 45.45 45.66 46.02
45.26 48.48 46.51 45.47 47.93 47.15 47.76 45.74 44.85 43.35 40.40 31.22 39.95 38.05 38.44 41.01 43.87 45.18 47.37 48.38 48.46 48.09 49.11 50.15 51.08 51.95 51.16 50.81 50.59 50.72 50.99 51.29 51.74 52.20 50.89 48.61 47.54 47.23 45.64 44.49 43.43 43.41 43.78 44.30
44.88 45.23 46.74 48.62 44.87 47.33 44.93 41.26 31.17 30.28 29.23 29.16 43.08 39.07 38.87 44.29 46.36 47.24 47.18 46.83 47.90 48.49 48.07 48.38 49.31 49.98 50.31 50.07 49.93 50.34 50.69 51.02 51.40 50.37 49.60 48.09 47.16 45.38 43.97 42.44 41.73 41.71 42.03 41.84
38.95 36.01 44.23 47.74 44.72 41.61 42.99 41.32 29.58 27.59 26.69 30.04 39.31 35.64 37.78 45.67 47.34 48.16 48.34 47.99 48.62 48.19 48.84 48.19 49.21 48.72 49.26 51.30 49.47 49.99 50.67 50.44 49.73 48.90 48.25 47.12 46.08 45.72 43.72 42.75 42.25 41.59 41.36 41.25
39.83 39.25 45.98 46.70 46.81 45.40 43.43 36.37 42.03 35.05 31.66 27.56 34.74 39.36 43.83 45.97 46.54 47.41 47.02 47.36 48.07 47.83 48.13 48.57 49.33 49.09 49.51 49.37 49.11 48.56 48.71 48.53 48.04 47.13 46.34 46.02 45.49 44.40 42.91 42.33 41.29 41.25 40.65 42.05
42.96 37.40 44.17 45.97 47.12 47.10 43.56 44.55 35.06 33.79 25.78 25.63 32.07 35.74 36.42 42.26 44.05 46.65 45.30 45.24 46.27 46.21 47.34 47.85 48.17 47.78 48.20 48.37 48.11 47.49 47.19 46.79 46.97 46.68 45.41 45.79 44.98 44.29 42.62 41.41 40.20 39.84 39.83 40.15
43.38 41.50 39.91 44.26 41.39 40.10 41.16 39.84 40.32 39.03 32.86 25.89 23.45 29.72 40.89 43.10 45.35 44.08 44.38 45.39 45.06 45.28 45.83 46.53 47.18 47.07 47.01 47.30 47.00 46.30 45.67 45.76 44.85 44.17 43.81 42.63 42.60 42.16 41.49 40.62 39.75 39.36 39.29 39.16
43.27 40.19 31.07 39.69 44.36 45.64 43.23 41.33 41.04 28.62 30.26 29.34 27.82 29.36 43.39 43.63 44.79 44.60 44.80 45.96 45.74 45.92 45.41 45.75 46.23 45.81 45.23 45.00 45.40 44.73 44.62 44.31 44.50 44.38 43.48 42.50 42.11 40.52 39.56 39.33 38.93 38.51 38.39 38.95
43.45 38.10 29.51 35.69 40.89 43.78 39.86 42.45 42.61 39.99 32.46 29.49 21.67 27.87 44.81 47.08 46.15 47.03 44.60 44.69 44.94 45.08 45.17 44.84 44.78 44.52 44.15 43.48 43.21 42.93 43.27 43.25 43.97 43.76 42.55 41.87 41.32 40.92 38.30 38.07 38.39 38.77 37.87 36.38
45.42 41.11 34.84 29.21 34.91 38.22 35.73 39.28 40.04 37.97 28.02 29.62 30.54 35.44 40.62 43.07 43.08 42.82 43.40 43.80 43.57 43.92 43.97 43.63 42.95 43.17 42.77 42.48 42.03 42.37 42.48 42.84 43.82 42.83 41.87 41.36 41.48 41.35 39.92 38.03 37.43 38.53 37.37 35.09
43.38 35.98 38.59 39.36 39.97 40.13 38.72 38.12 38.16 36.44 36.33 29.65 33.25 36.96 40.92 40.67 41.64 42.91 44.18 44.60 44.13 43.20 43.37 42.88 42.02 41.02 40.96 41.17 41.71 41.73 41.66 41.92 43.45 43.07 41.81 41.41 41.78 40.61 39.49 40.69 39.68 39.22 36.96 35.13
44.53 33.82 33.35 32.64 39.83 38.84 35.67 38.17 38.27 38.23 38.82 37.87 38.01 37.00 43.78 43.36 43.52 42.93 43.14 42.98 41.83 42.19 42.06 42.04 42.23 41.66 41.71 41.15 39.71 40.14 39.78 41.12 42.78 41.53 41.81 41.83 40.65 40.40 40.45 39.92 40.16 38.14 34.38 34.18
40.56 33.50 29.98 28.89 35.28 34.06 27.42 35.20 38.90 39.60 40.42 38.64 31.88 38.34 42.13 41.06 41.57 40.71 40.67 41.63 40.98 40.69 40.87 41.28 41.47 41.80 40.40 39.01 39.56 37.51 37.85 38.82 38.23 38.32 41.03 41.22 41.16 40.00 39.51 40.64 39.69 35.80 31.96 32.10
36.28 33.82 30.77 24.25 26.29 18.73 37.90 42.70 41.83 39.74 40.55 41.00 41.89 41.42 41.32 40.90 41.16 41.48 41.32 39.75 39.75 40.31 40.92 41.28 41.26 38.83 38.83 37.85 37.17 37.08 37.26 37.15 36.69 37.78 38.83 39.40 39.37 38.53 38.98 38.75 37.46 33.14 32.49 32.01
43.85 33.70 25.78 26.39 24.79 30.98 38.11 40.89 38.80 36.45 35.63 42.93 41.27 41.60 41.81 42.47 41.75 38.85 41.45 40.37 39.12 40.10 40.67 39.38 38.05 38.04 36.35 36.21 36.40 36.07 35.86 35.44 35.66 37.40 37.37 37.63 37.81 37.53 37.45 37.53 33.85 33.31 32.66 29.50
42.12 36.47 29.34 24.63 19.24 16.37 33.56 41.92 44.32 42.53 28.61 43.32 42.62 40.78 40.03 39.72 29.79 35.62 39.66 40.73 40.38 39.07 38.54 37.69 37.14 36.46 35.43 35.56 35.95 35.46 34.65 34.42 36.01 37.36 37.71 37.94 37.11 36.62 36.25 35.12 34.79 32.22 30.81 30.28
28.47 28.58 23.89 30.09 18.21 28.11 40.04 43.52 44.46 29.12 30.40 42.69 42.14 40.90 40.04 36.80 37.29 40.01 40.78 39.00 38.89 38.39 37.55 37.38 36.16 34.60 34.82 35.75 35.87 34.74 34.12 34.21 36.63 37.53 37.26 36.82 36.93 36.64 36.26 35.94 33.34 30.59 27.97 28.46
28.91 25.72 28.51 30.95 26.33 22.19 43.48 42.09 33.77 37.98 42.89 42.99 41.64 41.22 41.16 40.83 41.50 42.32 38.93 38.49 38.46 36.16 35.61 36.30 34.52 34.38 35.43 36.12 35.26 34.31 33.60 35.64 36.40 35.39 35.20 34.86 34.87 34.79 35.76 31.78 29.31 27.85 26.75 25.88
31.55 35.14 31.73 32.42 30.59 39.78 43.33 42.02 44.05 44.28 42.73 41.79 41.41 43.45 41.45 40.62 41.85 39.08 37.92 37.60 36.72 34.34 34.22 35.20 33.95 34.60 35.44 35.57 35.59 33.82 34.24 35.62 34.84 33.38 32.75 32.62 33.08 33.17 32.24 28.21 26.33 26.02 25.70 22.08
39.76 43.59 33.83 36.05 41.12 42.47 43.02 45.24 45.73 44.77 43.19 43.56 44.50 44.89 44.04 41.93 38.24 37.18 36.47 35.48 34.87 34.03 33.27 34.24 34.46 33.74 33.90 35.25 36.08 34.61 34.30 34.65 33.30 31.83 31.35 31.05 30.25 30.92 29.70 28.66 27.38 25.75 21.26 19.94
38.51 41.65 39.07 35.82 41.29 42.49 44.17 43.95 43.59 43.58 44.46 44.89 44.19 44.53 40.29 38.28 36.78 35.85 34.65 34.39 34.08 33.10 34.07 34.23 33.50 33.46 34.02 34.85 34.72 34.52 33.59 33.73 32.15 31.21 30.61 28.82 28.44 28.20 28.34 27.16 25.56 25.57 23.50 22.52
42.72 39.23 34.55 32.79 41.83 41.63 41.88 43.55 44.85 44.87 44.19 44.59 43.96 40.15 39.93 37.65 35.27 35.05 33.69 33.86 33.17 32.85 33.87 33.98 34.34 34.42 34.12 34.10 34.11 35.17 35.18 32.56 30.25 28.67 28.19 26.88 26.21 25.16 27.10 26.18 25.70 28.88 27.48 27.86

GFSCGP_sfc_wetblb_018.txt.gz
Wetbulb
46.90 42.21 38.12 40.02 41.81 42.73 42.59 39.32 38.45 38.56 42.89 41.91 40.11 39.79 42.54 44.60 46.65 47.23 49.02 49.98 50.43 50.59 52.37 53.23 53.31 53.86 53.74 53.90 54.17 54.59 54.80 54.16 54.07 51.37 50.30 50.71 49.89 50.25 50.06 50.73 51.08 50.72 50.13 49.59
42.48 38.97 43.56 45.67 45.90 44.39 43.47 40.44 38.91 41.89 44.61 41.10 39.91 40.00 42.39 45.28 45.17 48.38 48.86 49.10 49.33 49.97 50.47 51.29 51.61 52.24 52.90 52.83 53.05 51.86 50.81 51.03 50.93 50.55 51.33 51.54 50.26 49.80 50.43 51.84 50.35 49.24 48.08 47.73
40.22 42.89 46.81 46.11 43.59 43.24 41.88 40.09 39.43 39.96 41.65 40.84 41.70 38.76 41.52 45.09 46.71 47.68 47.93 49.28 50.14 49.69 49.24 50.27 50.73 49.75 48.82 49.10 49.37 50.23 50.24 50.97 50.67 51.17 50.21 49.98 50.26 49.48 48.68 48.18 46.66 46.48 47.47 47.00
42.86 46.60 45.95 44.22 42.84 42.49 39.33 44.44 43.30 41.44 37.84 33.12 38.42 30.33 37.99 41.87 43.58 45.61 46.60 47.20 48.61 50.05 50.39 50.35 49.52 48.70 48.84 48.22 48.61 49.59 50.60 50.50 50.51 50.29 49.16 48.59 47.77 46.93 47.14 45.64 44.10 43.98 45.17 45.05
41.69 43.53 43.35 42.45 42.91 44.28 42.22 44.97 42.50 41.41 37.12 35.88 37.18 33.31 36.38 42.68 41.51 43.06 44.27 46.34 47.09 48.24 49.41 48.66 50.09 49.65 49.31 48.89 48.41 48.89 49.59 50.08 49.93 49.21 48.87 48.40 46.00 45.94 45.54 44.17 42.94 43.35 43.94 44.22
43.84 46.24 44.42 43.45 46.13 45.29 45.76 43.75 42.90 41.12 37.99 29.85 38.14 35.56 34.80 37.87 41.21 43.52 45.34 45.86 46.56 46.76 47.55 48.74 49.73 50.05 49.31 48.58 48.76 48.11 49.55 49.63 50.05 49.26 47.89 46.38 45.87 44.51 43.05 41.96 41.71 43.37 43.28 42.16
42.93 43.29 45.38 46.78 43.48 45.42 43.11 39.02 29.82 29.21 28.17 28.11 40.93 36.92 36.60 42.75 45.90 46.29 45.13 44.96 46.11 46.55 46.61 47.56 48.40 48.25 48.18 47.89 48.19 49.10 48.75 48.64 48.96 47.84 46.46 45.53 43.97 42.77 42.60 43.51 43.13 42.74 41.40 40.59
36.64 34.39 42.15 45.87 42.70 39.78 41.16 38.58 29.09 27.61 25.26 28.42 38.14 33.22 36.37 44.03 47.73 48.03 47.25 46.75 46.50 46.10 46.20 46.22 46.29 46.43 47.03 47.65 47.30 47.70 47.13 46.61 46.79 46.81 45.35 44.81 44.41 44.95 44.72 43.95 42.46 41.85 39.57 39.46
37.04 37.37 43.85 44.23 44.55 43.97 41.02 35.04 40.42 32.74 29.70 26.09 32.80 37.08 41.63 45.16 44.74 46.57 47.43 47.54 45.26 44.72 45.10 46.26 46.73 46.34 46.62 46.45 46.19 47.43 46.75 46.03 45.85 45.26 44.30 43.92 44.72 45.30 44.35 42.08 40.60 39.63 39.30 40.52
41.50 35.25 42.12 44.08 46.09 45.42 40.93 42.63 34.24 31.40 24.57 24.87 30.03 33.22 34.61 40.16 42.62 43.49 43.16 42.60 43.53 44.80 45.10 45.24 45.46 45.89 45.88 45.77 45.08 45.07 45.12 45.01 45.20 44.41 43.57 43.79 43.38 43.44 41.17 40.10 39.06 38.75 38.58 39.10
42.29 38.58 37.92 43.26 39.63 38.13 39.18 37.58 37.91 36.21 30.54 24.93 22.47 28.58 38.69 42.20 43.34 41.17 41.44 42.80 42.93 43.40 44.16 44.80 45.28 45.10 44.19 44.56 43.55 43.01 42.61 42.98 43.24 42.77 42.65 41.65 41.09 41.30 40.44 39.21 38.76 38.20 38.30 38.72
41.79 37.34 30.11 37.81 42.34 43.49 41.05 39.46 37.94 27.51 29.44 27.62 26.10 28.37 41.62 42.02 42.36 43.31 43.34 44.07 43.15 44.28 44.55 44.55 44.33 42.98 42.26 41.86 41.79 41.43 41.65 41.85 42.73 42.98 42.22 40.88 40.48 39.53 39.35 38.90 38.73 38.68 39.37 39.72
41.14 35.57 28.34 34.00 39.11 41.47 38.28 40.39 40.82 36.37 30.33 28.62 20.93 26.19 42.27 43.16 42.39 43.68 42.15 42.35 42.93 42.35 42.18 42.52 42.18 41.99 42.21 41.60 41.41 40.91 40.84 40.72 41.22 41.71 40.60 40.57 40.31 38.98 38.21 38.18 37.95 38.72 37.75 37.50
44.44 38.48 33.39 29.31 33.52 35.98 33.27 36.87 38.66 35.91 26.47 28.34 28.53 32.81 37.60 39.77 40.03 40.89 41.25 41.35 40.62 41.10 41.64 41.04 40.56 40.62 40.27 40.57 40.00 39.82 39.20 39.60 41.25 41.43 40.38 39.66 39.51 39.74 38.56 36.86 39.24 39.65 38.13 38.45
41.40 34.23 36.32 36.60 37.73 37.40 35.89 35.54 35.64 34.67 34.29 29.45 32.34 34.19 37.63 39.45 39.74 41.10 42.02 41.58 41.01 40.86 41.14 41.11 40.80 39.77 39.18 39.53 38.84 37.83 37.79 39.06 39.89 39.00 38.15 38.74 39.15 39.07 38.65 38.92 38.18 38.97 38.91 38.42
42.14 32.11 32.92 32.16 37.60 37.25 33.56 36.30 36.19 35.84 36.37 35.68 35.69 35.38 40.53 41.01 41.16 40.45 40.50 40.31 40.00 40.60 41.13 40.44 40.54 40.12 40.28 38.26 36.38 36.75 36.62 36.85 37.20 36.16 38.98 39.61 39.71 39.24 38.73 38.55 38.25 37.89 38.11 34.75
37.83 31.98 27.83 26.32 32.75 32.63 26.36 34.42 36.63 37.14 37.55 36.66 31.39 36.72 40.05 39.10 39.83 38.90 38.92 39.82 39.57 38.75 38.94 39.42 39.36 39.56 36.82 35.62 36.07 34.78 35.67 36.44 35.60 37.71 38.28 38.54 38.64 38.32 37.84 38.30 38.59 37.74 35.26 33.04
34.40 31.98 26.84 22.17 23.36 17.03 35.66 40.39 40.21 37.86 38.82 39.61 38.98 39.02 39.54 39.40 39.27 39.06 39.55 38.51 38.55 38.90 39.27 38.99 37.89 35.80 35.33 34.84 34.71 35.02 35.45 34.78 35.21 36.22 36.67 36.76 36.94 36.43 36.87 36.72 36.33 35.72 32.22 32.58
40.08 29.91 25.73 19.79 23.56 27.95 35.59 38.92 37.62 35.29 34.51 40.96 39.67 39.74 40.14 40.05 38.35 36.56 39.81 39.48 38.28 38.19 37.51 36.46 35.43 35.25 34.14 34.16 34.46 34.08 33.77 33.19 35.77 35.81 35.90 36.47 36.50 35.89 35.96 34.35 33.60 34.10 32.05 28.94
39.00 32.51 26.63 26.69 17.12 15.16 30.06 39.85 42.48 40.62 29.15 41.59 40.92 39.70 39.29 38.44 29.74 34.20 39.17 39.38 38.28 36.68 36.26 34.80 34.41 34.06 33.32 33.83 33.83 32.85 32.22 33.73 34.54 35.70 35.88 35.82 36.20 35.75 34.90 33.59 32.92 31.75 28.66 29.65
27.57 24.94 22.73 16.89 16.23 26.07 35.54 41.42 42.29 28.35 29.79 41.53 41.11 39.79 38.89 35.86 35.83 38.62 41.08 37.82 36.44 35.98 35.48 34.78 33.77 32.97 33.30 33.56 33.61 32.66 32.63 32.77 34.65 35.06 34.88 34.36 34.14 33.77 34.32 33.95 32.25 27.96 28.61 27.37
28.70 26.09 24.61 25.45 16.90 21.59 39.85 40.57 33.49 36.24 40.43 41.84 40.48 40.51 39.60 39.92 41.19 42.41 39.87 36.69 36.19 34.05 33.80 34.06 33.35 32.96 33.45 33.76 33.83 32.06 31.70 34.00 34.58 33.42 33.09 32.26 31.95 31.98 32.04 27.80 26.88 27.25 25.38 24.86
30.78 32.16 29.56 31.83 30.92 38.07 41.03 40.68 41.22 43.05 41.54 40.54 40.26 41.45 41.68 39.82 40.32 39.80 36.36 35.06 34.25 32.94 32.47 33.71 31.79 32.51 33.45 33.58 33.70 32.25 32.75 33.93 33.30 31.64 30.88 30.13 30.33 30.61 29.16 26.43 25.26 25.03 24.24 20.85
38.04 41.18 32.81 34.53 39.30 39.91 41.84 42.79 43.85 43.25 42.06 42.27 42.65 42.61 43.08 41.82 38.81 34.83 33.82 33.40 32.62 32.06 31.61 32.14 32.01 31.89 32.05 33.44 34.32 33.41 33.42 33.16 31.96 30.34 29.67 29.44 28.55 28.73 28.20 26.63 26.62 24.37 19.83 18.34
36.05 39.99 37.68 34.13 39.08 40.97 42.51 42.33 42.40 42.37 42.76 42.98 44.83 44.02 42.73 37.42 34.12 33.93 32.60 32.37 31.91 31.22 31.94 32.26 31.79 31.81 32.19 33.18 33.03 33.35 33.13 32.41 30.94 30.03 29.51 27.75 27.11 26.91 26.82 25.69 25.09 24.85 23.57 22.07
40.38 38.09 33.76 33.20 39.53 39.60 40.65 42.04 43.31 42.52 43.19 44.55 43.76 39.11 36.02 34.69 33.30 32.96 31.47 31.79 31.46 30.99 31.89 31.74 32.11 32.17 32.20 32.63 32.33 32.90 32.34 31.99 30.62 28.70 27.92 26.16 24.94 23.68 25.65 26.19 25.68 28.53 28.02 27.74

GFSCGP_sfc_wetblb_021.txt.gz
Wetbulb
44.85 41.40 37.16 37.95 39.67 40.58 39.65 37.21 36.04 36.34 40.86 40.25 38.63 38.43 40.38 43.66 46.23 46.48 46.74 47.59 47.94 48.76 50.58 51.81 52.78 54.21 53.92 54.90 56.70 57.52 56.93 54.38 51.76 51.14 50.29 49.62 48.32 49.82 50.90 50.80 50.17 49.15 48.66 48.00
41.85 38.21 41.67 44.99 44.42 42.77 41.00 38.31 36.68 39.63 42.70 40.36 39.60 38.20 42.05 44.80 45.21 47.07 46.75 46.42 47.00 48.15 49.96 51.17 51.74 52.06 53.51 54.31 53.21 49.99 49.95 50.26 50.47 50.20 50.54 52.33 53.16 52.57 51.15 49.08 47.96 47.82 46.72 46.20
38.78 40.96 45.62 44.23 42.34 42.01 40.29 37.81 37.30 38.68 39.67 40.73 39.58 37.62 39.25 43.66 45.33 46.97 47.29 47.52 47.81 47.93 48.16 50.03 50.54 49.83 48.73 47.85 48.16 49.15 49.47 49.89 50.96 51.80 51.15 50.30 50.07 48.92 46.59 45.00 43.63 44.66 45.39 44.72
41.56 45.49 44.25 42.58 41.18 41.00 37.76 42.55 41.44 39.84 36.04 32.89 37.46 28.71 36.74 40.18 42.05 44.36 45.51 45.62 46.30 47.75 49.09 49.02 47.65 46.43 47.12 46.89 47.13 48.37 48.86 48.94 49.31 48.92 48.24 47.81 47.34 46.35 45.77 43.22 42.37 42.73 43.64 43.62
40.31 41.64 42.12 41.11 40.84 42.73 40.73 43.08 40.67 39.51 35.41 34.19 34.95 31.65 34.06 40.81 39.46 41.73 43.29 45.90 48.00 47.84 48.00 47.21 47.18 47.64 47.45 46.96 46.69 47.05 48.33 48.96 48.64 48.19 47.95 47.64 45.92 44.97 43.39 42.21 41.59 43.50 44.36 43.11
42.26 44.36 43.10 41.75 44.25 43.36 44.02 42.44 41.08 39.22 36.02 28.79 35.59 33.05 32.43 35.94 39.93 41.57 43.98 46.38 47.70 47.03 46.65 47.27 48.36 48.64 47.49 46.67 46.29 46.61 47.54 47.66 48.04 47.19 46.36 45.40 43.97 42.85 41.60 42.57 43.28 43.84 43.77 43.27
41.12 41.39 43.54 44.74 41.67 43.49 42.01 37.53 28.76 28.06 27.33 27.43 37.32 34.50 34.43 40.87 43.03 43.78 44.39 44.91 45.49 44.88 45.40 47.05 47.87 48.35 48.05 46.27 46.44 46.46 46.78 46.85 47.09 45.75 44.63 44.02 43.42 42.45 42.21 42.09 41.72 41.19 40.50 39.31
34.87 33.07 40.53 44.02 40.95 38.37 38.44 37.33 29.10 28.10 24.98 27.26 36.46 31.08 35.35 42.18 45.22 46.14 45.43 44.13 43.98 43.41 45.68 46.52 46.51 46.07 45.31 45.64 44.88 44.91 45.17 44.88 45.79 44.79 44.15 43.70 43.32 42.73 42.68 41.90 40.75 39.77 39.42 38.19
35.47 35.41 42.40 42.58 42.94 42.57 38.94 33.67 38.64 31.10 28.70 26.02 30.98 35.13 40.72 42.82 43.20 44.02 43.99 44.10 43.48 44.10 43.80 44.01 44.76 44.89 44.45 44.28 44.43 44.26 44.46 44.37 44.32 44.03 43.05 42.90 42.89 42.62 41.87 41.06 39.46 39.10 38.29 39.37
40.47 33.69 40.38 42.52 43.90 43.13 40.04 41.64 32.66 30.03 23.70 24.24 28.54 30.94 32.18 38.24 40.83 42.95 41.58 41.62 42.04 42.55 42.60 43.13 43.60 44.55 45.20 44.92 43.89 43.20 43.25 43.19 43.87 43.65 42.59 42.52 41.64 42.15 41.43 39.64 38.95 38.52 37.92 38.65
40.78 36.30 35.94 41.10 38.02 36.42 38.04 35.86 35.47 34.44 29.17 24.02 21.35 28.32 37.11 39.78 41.47 39.68 40.00 41.63 41.68 41.99 42.05 42.65 43.62 43.78 43.62 42.88 42.46 40.67 40.61 40.85 41.79 41.67 41.03 40.47 40.16 40.02 39.89 39.03 38.13 37.54 37.41 39.71
40.13 35.77 29.69 35.38 41.05 41.94 39.18 37.34 35.65 26.25 28.22 26.42 24.95 27.33 39.00 41.65 40.75 41.90 41.62 41.77 41.54 41.90 42.50 43.25 43.63 43.14 42.59 41.08 39.88 39.97 39.33 38.98 39.63 40.16 40.20 39.66 39.29 39.11 37.79 37.88 37.60 37.53 37.17 37.05
39.53 34.47 27.97 32.90 37.68 39.38 36.97 38.42 37.35 33.85 29.64 27.71 20.73 26.40 40.50 41.37 40.46 41.44 39.98 40.83 41.07 40.65 40.33 40.72 41.06 40.66 40.30 40.38 41.18 38.61 37.83 38.30 39.77 39.17 37.73 37.57 38.07 38.40 37.61 37.54 37.07 37.04 36.11 36.44
42.90 36.70 31.95 28.71 31.79 34.69 31.71 34.95 36.79 34.13 26.12 27.38 27.17 29.91 36.00 37.82 38.32 38.84 39.71 39.93 39.42 39.48 40.02 39.27 38.99 39.36 39.16 40.00 38.30 36.54 36.67 37.57 37.93 36.83 36.88 37.52 37.94 38.22 37.25 36.46 35.56 36.08 36.80 37.43
39.68 33.05 34.21 34.42 35.57 35.28 33.98 34.14 34.73 33.66 33.04 29.04 30.80 32.19 35.53 38.46 38.19 38.94 39.88 39.65 39.40 39.23 39.22 39.55 39.31 39.75 39.02 37.17 35.59 35.48 35.48 35.94 36.83 36.18 37.18 37.39 37.88 38.01 37.57 37.41 37.12 37.10 38.35 38.80
39.88 30.95 31.53 31.69 35.37 35.38 31.88 33.87 34.18 33.83 34.04 34.28 33.40 33.81 38.97 39.64 39.72 39.33 39.44 39.07 38.35 39.22 39.57 39.80 39.50 38.67 37.43 35.33 34.41 35.03 35.14 35.14 35.25 35.99 37.03 38.17 38.24 37.97 37.41 37.16 37.02 37.14 37.80 35.36
35.35 30.77 27.06 24.22 30.67 30.88 24.27 32.09 35.59 35.48 36.17 35.56 30.24 35.47 38.76 38.11 39.10 38.66 38.14 38.82 38.43 38.98 38.67 38.35 38.22 37.42 35.07 34.01 34.32 33.64 34.16 34.66 34.06 35.99 36.79 37.03 36.49 35.81 35.56 36.32 36.12 35.26 34.85 35.01
33.34 29.43 24.57 21.11 22.91 16.66 32.35 37.87 38.17 36.23 36.89 37.94 37.13 37.93 38.71 38.57 38.59 38.97 39.01 37.98 37.84 37.92 37.98 37.36 35.70 34.69 34.11 33.36 33.26 33.49 33.47 33.14 33.29 35.09 35.49 35.56 35.37 34.97 35.03 34.87 34.15 32.34 32.00 30.15
37.82 28.94 24.93 19.65 21.43 27.32 33.11 37.17 35.69 34.58 33.78 39.05 37.89 37.76 38.20 38.38 37.02 35.93 39.05 38.37 37.61 37.86 36.97 35.09 34.60 33.83 33.00 32.67 33.04 32.35 31.94 31.99 34.48 34.42 34.52 34.58 34.59 34.62 34.46 33.48 32.71 31.40 31.64 27.61
35.51 30.49 25.80 24.38 15.97 15.22 29.55 37.45 40.70 38.80 28.85 39.93 39.49 38.03 37.76 36.80 29.80 34.27 38.50 38.91 38.68 36.60 34.56 33.40 32.99 32.87 31.96 32.49 31.84 31.56 31.45 32.46 32.77 33.86 34.27 33.89 33.44 32.82 32.76 32.56 32.10 31.53 28.42 28.92
27.19 22.98 21.81 14.83 16.16 25.57 33.83 39.79 40.43 28.86 28.88 39.85 40.46 39.79 37.88 35.94 36.08 37.88 39.51 38.37 36.76 34.05 34.09 33.63 32.61 31.94 31.76 31.98 32.57 31.63 31.51 31.53 33.22 33.63 33.04 32.84 32.01 30.86 30.62 30.38 29.33 27.85 27.64 26.46
29.37 27.74 23.85 24.88 17.69 22.02 38.20 38.23 33.18 36.75 37.28 41.49 40.47 40.26 39.82 39.36 39.74 40.44 38.70 35.70 34.21 33.45 32.01 32.42 31.68 31.29 31.97 32.42 32.23 31.20 30.44 32.67 33.11 32.63 31.79 30.85 30.20 30.11 29.38 26.57 26.59 26.82 25.27 24.96
29.19 31.79 29.22 30.42 30.14 37.00 38.72 38.34 39.97 40.64 40.52 40.62 40.39 40.65 40.97 40.97 40.04 40.44 35.21 34.18 32.96 31.63 31.02 31.71 30.47 31.25 32.15 32.20 32.24 30.97 31.59 32.32 31.98 31.36 30.21 29.69 29.63 28.83 27.97 25.66 24.60 24.36 23.64 20.52
36.21 38.61 31.34 33.00 37.06 37.80 39.09 40.63 41.85 42.01 41.27 40.81 41.62 42.11 41.45 39.78 41.20 35.73 32.80 31.95 30.89 30.16 29.85 30.42 30.81 30.49 30.58 31.89 32.52 32.04 32.23 32.27 31.22 30.29 29.81 29.27 28.21 28.18 27.78 26.65 26.35 24.17 19.94 17.78
35.68 38.04 35.66 32.81 37.28 39.39 41.87 41.93 42.25 42.12 41.98 42.43 43.22 42.96 42.32 41.55 33.97 33.48 31.57 30.80 30.47 30.04 30.62 30.84 30.20 30.20 30.53 31.40 31.64 31.72 31.62 31.75 30.13 31.07 30.74 29.04 27.39 26.99 25.79 25.76 25.40 25.56 24.66 22.72
38.43 37.22 32.00 32.64 38.44 39.16 38.88 41.96 42.45 41.42 41.14 42.57 42.69 39.63 37.54 34.91 32.92 31.78 30.34 30.63 30.27 29.83 30.29 30.05 30.47 30.24 30.46 31.03 29.91 30.55 31.76 30.98 30.60 30.40 30.32 29.03 27.51 25.58 25.54 25.39 25.59 28.39 27.87 28.03

GFSCGP_sfc_wetblb_024.txt.gz
Wetbulb
43.68 39.87 36.11 37.28 39.37 39.38 38.63 36.02 34.13 34.65 38.85 39.18 37.81 38.15 40.79 43.98 45.01 44.75 45.37 45.81 46.65 47.76 49.61 52.85 54.03 55.68 56.65 57.73 58.82 59.05 59.15 57.73 51.93 51.59 50.59 49.51 48.16 49.23 52.04 48.22 48.36 48.63 47.46 45.78
41.29 37.12 41.11 43.79 42.63 40.86 39.20 36.51 35.23 37.46 40.49 39.86 38.65 37.63 40.31 43.11 44.09 44.00 44.49 45.37 46.60 47.80 49.57 51.00 52.31 53.63 55.14 56.07 56.09 54.77 54.21 53.02 50.77 51.10 50.61 50.56 50.53 50.96 48.45 46.32 44.59 44.80 44.30 44.22
38.63 39.92 43.99 42.81 40.80 40.52 38.73 36.96 35.54 36.54 38.90 39.09 38.08 36.18 38.28 42.48 44.99 45.91 45.71 45.75 47.18 48.69 49.10 50.31 51.37 50.81 49.27 47.74 47.87 49.00 49.11 49.28 50.12 50.77 49.55 48.12 47.86 46.79 44.43 42.74 41.95 42.77 43.99 43.75
41.18 43.67 42.35 40.56 39.95 39.72 36.03 40.75 39.68 38.25 35.07 31.83 36.25 29.79 35.57 39.12 41.51 43.53 44.52 44.41 45.42 47.29 48.19 47.61 46.81 46.21 45.51 45.34 46.14 46.72 47.68 48.00 48.40 47.85 47.27 46.61 45.33 44.91 43.31 41.76 41.18 41.58 42.96 43.53
39.10 40.16 40.22 39.67 39.04 41.45 39.26 41.98 39.69 37.79 35.02 32.91 33.69 31.57 32.23 40.23 39.26 41.45 43.10 44.69 44.77 46.13 45.77 45.95 45.72 45.96 45.16 45.41 45.14 45.87 47.62 47.60 47.50 47.20 47.07 45.39 43.36 42.50 41.61 40.98 42.05 43.51 44.25 43.93
40.30 42.76 41.58 40.15 42.86 42.09 42.68 41.06 39.34 37.66 34.61 27.96 33.14 31.80 30.78 35.70 39.40 41.52 43.25 44.89 45.61 44.58 45.25 47.05 47.21 46.99 45.66 46.57 47.38 46.63 47.80 47.10 47.05 45.97 45.51 44.60 42.60 41.45 40.58 40.87 42.98 43.13 41.47 41.63
40.04 40.14 42.09 43.30 40.59 41.85 40.66 36.21 28.17 27.68 26.64 26.67 35.34 32.24 33.53 39.34 41.74 43.59 43.78 43.95 44.50 44.92 45.00 45.42 46.54 46.89 47.03 46.56 45.16 45.50 45.80 45.24 45.32 44.65 44.05 43.92 43.13 42.24 41.83 41.40 40.80 40.21 39.92 39.16
33.25 31.60 39.01 42.67 39.50 37.50 36.52 36.59 28.67 26.91 24.85 27.04 34.73 30.45 34.66 40.33 43.33 45.14 44.44 44.09 43.78 44.00 45.49 45.67 46.56 45.81 44.64 44.09 43.60 43.75 44.15 44.58 44.50 43.95 43.28 42.96 42.80 41.66 41.42 41.29 40.48 39.67 38.78 38.01
34.04 33.92 40.54 41.09 41.38 41.22 37.22 32.53 37.11 30.69 28.19 25.66 29.78 34.18 39.10 41.14 41.35 42.19 42.37 42.90 41.92 42.84 44.02 43.70 43.72 43.24 43.25 43.45 43.45 43.45 43.55 43.65 43.80 43.61 42.39 41.83 41.57 41.63 41.11 40.51 39.45 38.40 38.26 38.81
38.83 32.97 38.56 40.70 42.32 42.10 38.47 40.37 31.52 29.21 23.13 23.53 27.13 29.21 31.24 37.00 39.49 41.35 41.17 40.85 41.33 41.47 41.83 42.57 43.04 43.00 42.97 42.71 42.12 41.87 41.99 41.84 42.38 42.57 41.15 40.85 39.92 39.90 39.35 39.15 38.40 37.99 37.78 37.56
38.57 35.79 34.81 38.83 36.74 35.28 36.91 34.51 33.46 33.08 28.10 22.79 19.82 27.27 35.98 39.97 41.85 41.03 40.13 40.80 40.91 40.91 40.83 41.67 42.58 42.78 41.68 40.95 41.14 40.30 39.66 39.51 40.38 40.48 40.05 39.03 38.34 38.52 38.21 37.72 37.63 37.37 37.88 38.53
38.64 34.91 29.71 33.73 38.99 40.28 37.38 35.28 33.96 25.47 26.97 25.68 24.31 26.04 37.31 39.31 41.16 40.56 39.98 41.34 40.58 40.64 40.47 40.57 40.92 41.34 41.26 40.25 39.46 39.14 37.81 39.23 38.51 38.72 37.47 36.89 37.46 38.01 37.04 36.35 36.69 36.72 36.54 36.61
38.97 33.58 27.98 31.47 35.59 37.32 35.26 36.69 34.99 32.13 29.26 27.53 20.62 25.82 39.06 38.82 39.17 40.27 40.04 39.75 39.93 39.77 39.59 39.84 40.03 39.56 40.47 39.54 38.97 37.65 38.44 38.00 38.22 36.46 35.52 36.21 37.03 36.93 36.00 35.99 36.26 36.26 35.31 34.79
41.89 34.77 31.17 27.67 30.32 33.12 31.15 34.46 34.91 33.04 25.15 26.52 26.61 29.35 34.46 36.97 37.83 38.02 38.71 38.96 38.67 38.44 38.86 38.18 38.29 38.00 37.88 38.50 38.51 36.72 36.24 36.96 36.35 35.03 35.58 36.06 35.90 35.82 35.61 35.70 35.73 35.41 35.23 35.62
37.92 32.36 32.47 32.77 34.01 33.39 32.32 32.76 34.00 32.58 31.62 28.82 29.74 29.94 34.04 37.39 37.95 38.34 39.22 38.57 38.14 38.14 38.19 37.97 38.09 38.51 38.74 38.08 35.85 35.86 35.59 35.17 35.19 34.29 35.59 35.58 36.48 36.73 36.47 35.99 35.76 35.94 35.98 36.88
38.27 30.37 30.22 31.07 33.73 33.07 31.66 32.73 32.64 32.24 32.30 32.62 31.97 32.08 37.02 37.77 38.23 38.17 38.53 38.31 37.57 37.99 38.14 38.61 39.22 39.04 38.44 35.38 33.67 33.95 33.96 33.94 34.11 33.18 35.41 36.62 36.28 35.85 35.32 34.83 34.91 35.16 35.04 35.75
33.80 30.24 26.82 23.72 28.78 27.96 24.41 31.00 33.07 33.09 33.91 33.45 29.94 34.00 37.43 36.89 37.87 37.81 37.59 38.12 37.92 37.95 37.72 38.27 39.06 38.09 35.16 33.11 33.26 32.56 32.77 33.14 32.58 33.09 35.24 35.60 35.37 34.73 34.23 34.29 33.98 33.59 34.75 35.26
31.63 28.73 23.46 20.45 22.19 16.31 31.23 35.18 35.74 34.90 35.08 35.80 35.28 36.22 37.62 37.19 37.02 38.66 39.01 38.39 37.70 37.43 38.36 38.75 37.97 34.96 33.31 32.47 32.21 31.95 32.11 31.76 31.31 33.79 34.53 34.44 34.15 33.45 33.68 33.03 33.04 31.92 30.24 29.93
34.98 28.02 23.84 19.27 20.51 27.22 31.48 34.67 34.80 33.91 33.45 38.14 36.84 36.77 37.05 37.29 37.45 36.89 39.48 38.71 38.32 39.14 38.57 36.38 33.80 33.03 32.88 31.94 31.75 31.16 31.22 31.07 33.28 33.22 33.31 33.49 33.07 32.09 31.79 31.35 31.80 31.07 30.78 29.31
33.66 29.99 25.38 20.39 16.19 15.05 29.55 34.91 38.60 37.69 28.85 37.60 38.59 36.90 36.66 36.82 31.18 37.36 38.60 38.68 38.10 37.63 35.64 33.94 32.99 32.43 31.21 31.29 31.06 30.98 30.86 30.91 31.34 32.39 32.82 32.41 31.96 30.90 29.95 29.43 29.46 30.03 27.90 28.18
26.16 24.90 20.65 14.26 15.21 24.70 32.92 38.21 39.00 28.26 29.78 37.69 39.09 37.83 36.53 35.37 37.91 38.52 38.66 38.05 37.96 34.74 33.65 33.49 32.56 31.53 30.97 31.37 31.50 30.78 30.25 30.25 31.69 32.40 32.22 31.59 31.02 29.56 29.34 27.59 27.43 26.86 26.67 26.17
29.20 26.88 21.98 22.83 15.27 22.47 36.46 38.25 32.59 36.10 35.60 39.15 39.21 38.77 38.79 38.12 38.20 38.40 37.88 35.15 34.33 33.18 32.90 32.71 31.58 30.76 31.08 31.42 30.65 29.92 29.27 31.16 31.61 31.34 31.06 30.18 29.57 29.48 29.61 26.47 26.51 26.85 24.70 24.14
28.76 31.34 28.12 29.38 29.52 35.89 37.15 37.79 38.76 38.65 38.28 39.21 39.42 40.21 41.14 38.73 38.92 39.18 35.11 34.32 33.43 32.04 31.17 31.16 30.97 31.35 31.46 31.37 30.79 29.65 30.41 31.35 31.09 30.14 29.92 29.51 30.95 29.44 28.56 25.78 24.85 24.23 23.53 19.64
34.51 36.01 29.94 32.19 35.79 36.17 37.27 38.93 40.21 40.26 40.07 40.49 40.96 41.01 41.43 40.19 40.20 34.99 34.54 32.81 31.06 29.74 30.53 30.69 30.81 29.87 30.04 30.84 31.23 30.69 30.81 30.46 30.27 29.68 29.61 29.74 30.08 28.74 28.29 26.97 26.29 24.30 19.57 20.20
34.94 36.21 34.05 31.79 36.35 36.79 39.14 40.21 40.30 41.14 41.35 41.31 42.14 41.99 40.95 40.02 37.47 35.26 32.06 31.37 31.27 30.72 30.97 30.63 29.70 29.64 29.71 30.35 30.87 29.97 29.60 29.91 29.23 29.44 29.75 29.19 29.88 28.56 27.85 25.56 24.81 25.22 24.64 23.95
36.88 35.65 31.30 30.98 37.63 37.47 37.84 40.23 41.52 41.70 41.46 42.05 41.92 39.62 36.57 37.34 33.76 33.54 32.08 31.34 30.86 30.53 29.99 30.08 30.60 30.17 29.84 30.37 29.37 29.59 29.90 29.33 29.37 29.23 29.54 30.93 30.57 28.51 27.41 25.76 25.15 28.73 27.61 28.43

GFSCGP_sfc_wetblb_027.txt.gz
Wetbulb
46.62 44.55 42.02 43.34 43.20 41.75 41.59 40.59 40.13 41.37 42.52 44.38 42.42 43.37 44.86 47.70 49.57 49.55 49.99 50.75 51.34 52.22 54.32 56.72 57.42 59.94 60.84 61.19 61.14 61.38 59.21 57.32 54.97 54.98 53.53 53.31 52.95 53.10 52.92 51.47 52.50 51.85 51.24 50.80
45.07 41.90 44.25 45.83 44.78 43.12 42.08 41.17 40.25 41.78 43.29 44.49 42.92 42.65 45.85 47.01 46.87 48.60 49.71 50.47 51.69 53.49 54.23 55.38 57.87 59.82 60.36 60.41 61.08 60.71 59.99 56.34 55.07 55.77 56.17 57.15 56.07 54.66 51.77 50.84 50.40 50.51 50.71 50.75
42.47 43.65 46.25 44.99 43.57 43.05 41.80 41.31 40.78 40.92 43.29 44.08 43.40 41.65 43.19 46.08 47.86 48.75 49.43 51.08 53.29 54.00 53.97 55.78 57.05 58.83 59.38 59.03 59.33 59.90 58.87 56.07 56.25 56.03 55.94 54.68 53.20 51.17 49.96 49.63 49.39 49.70 49.93 49.41
44.26 45.90 44.19 43.37 42.72 43.04 40.57 44.15 42.12 41.13 41.26 38.82 41.83 37.48 40.56 44.32 45.74 48.11 49.70 51.86 52.59 53.56 54.75 55.23 55.03 52.74 52.48 51.90 53.60 55.14 56.07 55.01 54.81 54.42 54.14 53.63 53.67 52.83 51.32 50.27 49.91 49.79 48.59 48.67
42.87 43.85 42.92 42.45 42.79 44.86 42.41 44.38 42.89 41.29 40.11 39.80 39.68 39.52 39.33 44.36 43.96 46.76 48.76 49.11 50.55 52.73 52.45 51.68 50.80 51.02 50.68 51.55 52.49 53.35 53.27 53.05 53.10 53.26 53.57 52.65 51.12 49.92 49.36 49.38 48.57 49.30 49.54 48.83
43.76 46.67 45.33 44.83 44.85 44.63 45.24 44.19 42.95 41.57 40.41 34.90 37.71 38.10 37.83 41.66 44.97 46.84 48.27 48.62 49.73 49.88 49.66 49.95 50.73 50.83 51.37 52.50 52.74 52.62 52.67 51.93 52.24 52.51 52.18 51.54 50.38 49.58 49.45 49.65 49.84 50.04 49.74 49.30
42.89 43.09 45.15 46.41 44.29 45.20 44.74 42.11 35.79 34.69 34.98 33.24 38.06 36.89 40.49 43.24 45.55 49.02 48.11 48.45 49.64 50.15 49.97 50.14 50.26 50.65 50.99 50.84 51.57 52.06 52.07 50.71 51.22 51.54 51.53 51.42 50.93 50.23 49.47 49.19 48.81 48.15 48.22 47.68
37.39 36.38 42.35 45.04 44.09 42.21 41.17 41.90 36.68 29.15 30.94 34.13 37.90 35.56 41.22 44.51 46.66 49.89 50.04 49.69 49.50 49.50 50.37 50.20 50.54 51.06 50.85 50.18 50.64 50.77 50.73 49.88 50.47 50.69 50.24 49.72 48.94 48.97 48.63 48.28 48.17 47.58 47.04 46.74
38.17 37.66 44.17 44.05 45.17 45.17 40.86 38.10 41.32 34.61 31.29 32.11 35.97 39.14 43.40 43.70 44.32 46.66 47.61 48.03 48.53 49.48 50.02 50.10 50.08 49.74 49.26 49.11 49.24 49.74 49.62 49.20 49.36 49.32 48.90 48.68 48.18 47.75 47.36 47.07 46.75 46.01 45.89 45.33
41.78 36.82 41.66 43.65 45.40 44.75 43.41 42.82 37.12 36.18 28.69 27.16 32.46 34.18 37.87 40.64 42.31 45.39 46.04 47.13 48.32 48.75 48.46 48.55 48.18 48.00 48.15 48.57 48.02 48.11 48.00 47.49 48.37 48.77 48.08 46.95 46.31 45.63 45.41 45.61 45.29 45.48 45.64 45.62
41.97 40.83 39.47 42.25 40.64 40.69 41.11 38.92 37.19 37.32 33.88 29.55 27.54 33.76 42.00 43.57 44.68 44.84 46.93 47.61 47.57 47.05 47.36 47.33 47.24 47.58 46.95 46.47 46.29 46.28 45.06 45.80 46.25 46.37 45.13 44.43 44.45 44.58 44.99 44.86 44.74 44.60 44.73 44.53
42.34 39.47 36.26 38.10 42.41 43.90 42.25 39.83 38.95 33.97 30.92 31.00 31.16 34.35 41.45 43.18 45.69 46.74 46.90 45.65 46.02 46.59 46.41 46.83 46.95 45.93 45.29 44.89 45.00 43.07 43.85 45.08 44.51 43.13 43.15 43.21 43.90 44.31 43.43 42.97 42.94 43.40 42.40 42.54
42.83 38.25 33.85 36.32 39.75 41.76 40.58 40.08 37.51 35.80 34.97 31.65 32.93 34.74 41.60 42.90 43.30 45.53 45.79 45.22 44.53 44.84 44.53 44.83 45.01 45.03 44.78 44.19 43.78 42.93 43.74 43.44 42.55 42.51 42.39 42.78 43.04 42.40 41.67 41.91 42.14 41.99 41.50 41.80
43.87 37.69 36.78 33.56 35.69 38.12 36.40 38.29 37.78 38.00 33.44 32.46 33.92 36.42 39.01 42.08 41.94 42.58 43.67 44.22 44.31 43.70 43.60 44.39 43.94 43.58 43.21 43.71 43.35 41.66 41.33 42.05 42.19 41.35 41.46 41.69 42.06 41.70 41.68 41.67 41.12 40.78 41.20 41.32
42.16 37.12 36.72 36.03 36.62 37.11 36.50 36.51 36.94 36.28 36.36 35.18 35.82 34.89 39.43 41.43 43.90 43.84 43.31 42.95 42.31 42.06 42.11 42.33 42.89 42.77 43.04 42.82 41.86 40.16 40.86 41.13 40.88 40.48 39.73 41.09 41.84 41.85 41.11 40.53 40.32 40.55 40.69 40.83
40.48 35.82 35.70 34.38 35.73 35.25 35.21 36.37 36.36 36.73 36.44 36.34 35.91 36.27 41.77 42.52 42.87 42.04 41.95 42.16 41.67 41.83 42.13 42.15 42.42 42.37 42.59 42.01 40.20 39.19 39.55 39.64 39.64 39.31 38.73 40.63 41.17 40.41 40.09 39.81 39.68 39.56 39.48 39.44
37.58 35.01 32.66 29.57 31.31 31.89 29.84 34.80 36.50 36.45 37.31 38.97 35.00 40.59 41.65 40.95 40.88 42.61 42.41 42.31 42.02 42.07 42.21 41.72 41.95 42.34 42.57 40.45 39.22 38.92 38.84 38.83 37.95 37.48 38.55 39.42 39.33 38.89 38.68 38.53 38.04 37.73 38.39 37.92
34.66 32.12 28.92 29.90 27.49 26.43 36.63 39.39 39.00 37.63 38.27 39.06 38.77 40.01 41.64 42.24 42.41 42.74 43.61 42.77 42.03 42.44 42.21 41.82 42.13 41.59 40.00 39.15 38.72 38.12 37.96 37.12 36.65 37.34 38.42 38.42 38.38 37.54 37.76 37.21 36.62 36.83 37.75 36.84
37.29 32.56 27.68 30.06 27.75 31.20 35.91 35.48 36.87 36.70 38.05 40.96 39.87 40.66 40.58 40.72 41.97 42.69 43.24 44.07 44.26 43.69 43.13 42.71 42.24 39.51 38.61 38.18 37.75 36.86 36.54 36.42 37.18 37.27 37.43 37.94 37.63 36.48 36.37 35.52 35.54 36.06 36.46 36.74
35.43 33.91 33.71 26.67 27.56 25.72 34.61 37.46 41.64 41.72 34.54 41.19 41.61 40.44 39.86 41.23 39.06 42.89 43.61 43.55 43.43 43.39 42.18 39.23 37.64 37.30 37.55 37.05 36.30 35.93 36.37 35.87 36.12 36.77 36.93 37.36 36.95 36.02 35.08 35.09 34.65 34.54 35.69 34.44
32.84 31.03 30.44 23.25 29.73 31.05 36.80 39.60 42.01 33.58 36.02 39.85 42.30 42.15 40.01 41.08 44.83 43.44 43.75 42.79 42.51 40.46 37.33 36.23 36.71 36.91 36.49 36.20 36.30 35.69 35.55 35.31 36.22 36.38 36.68 36.70 36.27 35.21 35.08 34.72 33.98 33.32 33.56 32.58
33.21 31.06 30.20 25.67 26.87 28.25 38.65 41.00 37.89 41.95 41.75 41.91 42.61 42.56 42.15 44.11 41.63 41.35 40.91 39.96 37.64 35.17 35.13 36.00 35.65 35.52 35.76 36.22 35.71 35.06 34.77 35.90 35.97 36.41 35.96 35.53 35.28 34.62 33.97 33.78 33.48 32.73 32.13 30.82
33.01 36.22 35.01 34.02 35.34 40.22 40.46 42.63 43.35 42.39 42.10 43.09 43.04 43.77 43.62 41.58 41.37 40.34 38.24 36.37 35.41 35.40 34.76 35.43 35.59 35.17 35.31 35.33 35.24 34.06 35.17 35.16 34.70 34.28 34.52 34.88 34.72 34.42 34.21 32.99 32.49 31.47 30.98 29.85
37.04 37.79 35.95 36.00 39.87 38.19 40.14 42.23 42.27 43.23 43.77 44.03 44.74 45.16 43.89 42.77 42.18 36.52 34.87 34.82 32.34 32.84 34.16 34.21 34.82 33.85 33.57 34.47 34.30 34.85 34.24 33.82 33.65 33.39 34.32 34.57 34.00 33.88 34.21 33.27 32.28 31.03 30.33 29.51
37.71 37.77 36.30 35.55 38.77 39.57 41.24 41.94 44.46 44.28 43.52 43.96 44.54 44.43 43.88 43.26 39.66 35.92 33.83 33.02 32.75 34.20 34.40 34.62 33.72 33.18 32.95 33.53 34.18 34.29 33.59 33.33 32.52 32.86 33.72 33.88 33.89 33.51 32.98 33.00 31.73 30.80 31.42 30.88
38.75 38.37 36.51 36.86 41.52 41.69 41.90 43.24 44.39 44.00 44.05 44.53 43.79 40.90 41.18 39.41 35.85 34.48 33.29 33.43 34.23 33.78 32.81 32.74 33.02 32.87 32.82 33.38 33.15 32.91 32.98 32.34 32.01 31.40 32.62 33.37 33.39 32.90 32.54 32.05 31.45 30.14 29.58 28.61

GFSCGP_sfc_wetblb_033.txt.gz
Wetbulb
53.05 48.27 46.02 47.55 48.16 48.53 46.72 45.15 44.16 47.10 49.21 47.92 47.39 47.19 49.54 53.48 54.74 55.28 56.61 58.03 58.32 58.87 61.53 62.39 62.65 63.17 64.43 65.89 65.57 65.16 64.65 64.08 62.98 62.71 61.24 60.64 59.43 58.80 58.30 58.14 58.18 58.60 58.21 57.52
49.08 46.04 49.27 49.72 49.03 47.15 46.06 44.84 45.22 46.98 48.66 48.92 47.00 46.84 50.86 53.14 54.24 55.40 55.94 57.23 58.36 59.59 60.76 61.42 62.61 63.97 64.55 65.14 64.68 63.86 63.82 63.97 63.43 63.92 62.66 61.84 60.36 59.68 59.59 59.10 58.47 57.97 57.42 57.13
46.25 47.99 50.42 48.19 46.93 45.87 46.06 44.84 45.44 45.07 47.78 49.03 48.86 46.81 49.17 52.59 55.27 56.43 57.24 58.00 58.65 59.25 60.03 61.05 61.81 63.33 63.92 62.90 63.31 63.18 63.70 63.55 64.21 63.59 62.10 61.26 61.10 59.77 57.77 57.09 56.95 57.05 56.67 56.16
47.71 50.39 48.57 46.94 46.30 47.48 44.34 48.61 47.65 46.76 45.97 41.62 49.27 39.31 46.82 51.01 51.92 54.04 56.04 57.78 58.55 59.57 61.00 61.98 62.41 61.75 62.14 62.48 63.93 64.94 64.77 64.46 63.09 62.14 60.68 59.77 58.24 55.93 57.73 58.30 57.95 56.65 55.78 54.91
46.75 48.32 47.22 46.23 47.21 49.40 46.89 49.32 48.58 48.08 46.01 45.38 45.94 42.73 42.77 51.37 49.45 51.91 54.86 56.88 58.73 60.25 60.90 61.22 61.83 62.85 64.15 64.42 64.26 64.63 63.54 61.84 61.13 60.91 60.50 59.66 58.09 58.87 58.09 57.62 55.81 55.97 55.79 54.97
48.76 52.24 51.11 50.07 50.30 50.35 50.74 48.79 48.53 48.62 46.34 40.61 44.19 43.40 43.87 48.42 50.17 52.49 55.19 56.87 58.53 59.94 61.01 61.53 62.10 61.96 61.51 62.85 63.43 63.00 60.73 59.78 60.19 59.71 59.45 58.61 57.68 56.31 55.47 54.59 53.27 52.07 51.90 52.14
47.38 48.49 50.98 51.57 48.51 50.56 49.64 46.90 40.03 38.36 39.05 38.10 45.48 43.34 44.80 49.22 51.82 53.63 55.14 56.93 58.78 59.69 59.59 58.52 57.66 57.51 58.44 59.53 60.70 60.82 59.18 58.02 58.76 58.67 58.27 57.56 56.23 53.87 51.78 51.69 50.91 50.62 50.15 49.82
42.59 41.24 48.28 51.02 49.40 47.22 47.62 46.42 40.96 33.46 35.16 38.95 45.54 39.82 45.58 51.71 52.55 55.04 57.20 57.27 58.49 58.02 57.92 56.63 56.50 57.07 57.29 57.92 58.58 58.45 58.09 57.39 57.79 57.31 55.76 54.64 52.53 51.62 51.24 51.77 50.71 48.92 48.37 48.78
43.20 42.62 49.58 49.80 50.82 49.75 46.77 43.76 48.65 42.43 42.32 38.65 41.06 45.21 50.27 51.26 51.27 53.44 55.76 55.95 56.53 56.57 56.32 55.99 56.53 57.14 57.49 57.85 58.14 58.17 57.62 57.04 56.42 54.74 53.24 52.65 52.06 50.64 49.76 49.49 49.53 48.64 48.52 47.17
47.63 42.12 47.45 48.65 50.78 50.56 48.69 49.90 42.15 43.14 34.05 33.12 39.78 40.65 43.69 47.18 48.50 51.76 54.24 54.84 55.77 56.35 56.06 56.30 56.63 57.15 57.75 57.99 58.10 58.18 57.42 55.34 53.55 52.74 52.26 51.82 51.10 50.13 49.22 48.59 47.52 47.11 47.04 46.79
49.51 46.56 45.80 47.63 46.34 45.93 46.94 45.22 45.09 45.36 43.48 36.16 34.59 41.10 47.44 47.27 49.61 50.89 53.53 55.46 55.63 56.11 55.96 56.56 56.89 57.55 57.72 57.71 56.98 55.92 54.52 52.83 52.05 51.99 51.77 50.31 48.61 48.80 48.49 47.54 47.18 46.22 46.39 45.97
50.46 47.30 43.33 45.15 49.24 50.19 49.47 47.24 46.89 40.61 38.64 41.07 40.55 39.79 48.87 49.44 50.58 52.33 53.10 55.06 56.36 56.69 56.59 57.05 57.29 57.17 56.76 56.13 55.41 54.17 52.78 51.52 52.06 51.22 49.02 48.05 48.66 47.87 47.30 46.62 45.95 46.23 45.50 45.52
50.56 45.51 40.70 42.51 46.32 48.50 45.53 46.80 47.04 45.67 44.47 39.76 38.08 40.46 49.39 49.71 49.40 51.22 52.25 54.41 55.60 56.28 56.66 56.89 56.96 56.22 55.55 54.86 53.97 52.66 51.21 50.95 50.58 49.31 48.18 47.87 47.29 47.06 46.85 46.02 45.98 45.88 45.20 44.31
48.88 47.14 44.15 40.10 43.16 46.56 44.15 45.24 46.53 45.13 40.06 40.38 41.25 43.04 45.92 47.77 48.15 49.65 51.34 53.15 55.12 55.64 56.09 56.50 56.09 55.59 55.02 53.89 53.05 51.63 50.58 50.94 50.19 47.59 46.80 46.47 46.43 46.76 46.18 45.97 45.69 45.17 44.60 43.42
50.25 44.24 46.11 46.26 45.63 45.33 44.84 44.58 45.27 43.79 44.05 41.25 42.95 42.53 44.68 46.85 47.69 49.43 50.80 52.06 52.82 54.12 54.70 55.06 54.99 54.93 54.26 52.99 52.21 51.06 50.10 49.57 47.46 47.30 45.96 45.93 46.25 46.08 45.68 45.26 45.07 44.48 43.62 43.31
50.18 44.49 45.18 42.73 45.87 44.73 43.12 45.20 44.99 44.98 44.81 44.40 44.50 44.04 49.01 49.77 50.13 49.45 49.97 50.93 51.26 52.94 53.60 54.15 54.48 54.31 53.47 52.24 51.22 50.01 48.24 47.17 47.50 45.93 45.12 45.39 44.92 44.33 44.53 44.31 43.83 43.07 42.61 42.63
48.05 45.56 42.16 37.77 41.47 41.68 37.26 42.97 44.81 45.32 46.26 45.81 42.54 46.55 48.75 48.27 48.23 48.92 49.70 50.56 50.88 52.15 53.37 53.70 53.77 53.67 53.11 51.91 50.86 48.17 47.41 47.56 45.57 44.62 44.67 44.24 43.59 43.49 43.09 42.86 42.32 41.71 41.76 42.10
46.69 45.36 43.11 38.58 36.18 30.57 42.46 46.17 45.53 44.61 46.14 47.26 46.67 47.23 48.02 48.00 50.09 51.00 51.73 51.13 51.10 51.83 52.64 53.68 53.78 53.41 52.90 51.96 49.40 47.97 47.40 44.95 43.84 43.96 43.59 42.92 42.90 41.84 42.20 41.64 41.20 41.31 41.54 41.13
48.19 45.02 38.79 37.69 36.46 40.29 41.93 43.40 42.75 42.09 42.45 46.81 45.75 46.85 48.05 49.38 49.77 49.98 52.10 51.24 51.17 52.28 53.43 53.90 54.07 53.16 52.28 49.88 47.62 45.99 44.04 43.43 43.46 42.48 42.01 41.84 41.77 41.03 41.08 40.31 40.52 41.13 40.57 40.11
45.05 46.24 42.39 37.64 34.83 32.03 42.44 44.99 47.27 46.88 39.36 46.86 47.22 46.96 47.18 48.31 44.30 47.77 51.15 51.24 51.49 52.79 53.68 53.30 53.55 52.17 49.98 47.46 46.05 43.64 42.47 42.81 42.11 41.43 40.79 41.19 41.42 40.72 40.19 40.46 40.29 40.74 40.02 39.23
40.65 41.43 38.77 38.33 37.51 40.93 46.02 45.88 47.74 38.28 41.22 48.39 48.36 48.31 48.71 47.16 49.32 51.66 52.35 51.72 52.79 53.12 53.07 53.21 51.25 48.71 46.63 45.95 44.42 43.06 41.98 40.59 41.02 40.91 40.92 40.74 40.93 40.52 40.56 40.41 40.07 39.48 39.05 38.84
40.73 40.17 37.88 40.47 35.75 33.52 46.92 46.66 41.80 47.65 49.37 49.34 49.69 49.72 49.85 51.04 51.41 51.44 51.14 51.44 51.66 51.32 50.28 48.71 46.57 44.89 44.05 43.30 41.93 40.69 40.62 40.46 40.31 39.67 39.56 39.68 40.02 39.92 39.83 38.86 38.78 39.20 38.63 37.36
41.29 45.58 44.60 43.65 43.77 47.94 48.71 47.68 49.67 50.20 49.13 49.49 49.62 50.50 50.47 50.16 50.51 51.11 50.21 50.28 49.87 48.90 45.84 44.73 43.50 41.06 41.33 40.74 40.57 38.75 38.95 38.89 39.01 38.70 38.29 38.97 39.79 39.57 38.92 38.20 38.22 37.46 37.52 36.22
46.56 47.40 44.68 43.36 45.95 46.82 48.01 49.35 49.91 50.55 50.20 51.08 51.44 51.19 51.18 50.14 51.03 51.01 49.07 47.84 45.93 44.56 42.92 41.84 41.26 38.57 37.99 39.90 38.87 38.74 39.07 39.13 37.74 37.04 37.80 38.63 37.95 37.48 38.71 38.12 37.90 36.82 35.23 35.42
47.39 47.02 44.75 44.73 47.09 47.64 48.61 49.77 50.26 50.42 51.54 51.54 52.03 51.88 50.44 50.27 50.48 49.88 46.34 44.20 42.23 39.78 37.24 37.73 37.11 36.95 37.12 38.50 37.93 38.98 38.38 38.14 37.12 37.21 36.98 36.75 36.98 37.26 37.06 37.35 37.54 36.45 36.85 35.62
48.05 45.87 44.50 43.58 46.98 46.99 48.20 50.26 50.17 49.72 48.70 48.76 49.08 48.57 47.67 48.61 46.58 44.05 40.66 38.81 36.54 35.19 35.94 36.39 36.93 36.81 37.42 37.29 36.90 37.49 38.53 37.91 36.03 34.85 35.28 36.46 36.24 36.37 36.52 35.60 35.65 34.58 32.37 32.67

GFSCGP_sfc_wetblb_039.txt.gz
Wetbulb
49.46 42.62 39.38 42.50 44.66 46.00 45.37 42.18 41.15 43.04 45.50 45.99 44.83 43.81 45.07 47.42 49.48 49.90 49.56 50.22 50.56 51.72 53.49 56.66 56.46 59.23 59.48 60.13 61.22 61.05 59.61 58.98 58.75 58.01 57.45 56.32 54.73 54.03 53.45 53.86 53.65 53.25 53.75 53.35
45.33 41.05 46.99 48.49 47.76 46.73 45.32 42.53 41.00 44.85 45.58 44.97 44.58 43.30 45.11 46.37 47.90 51.43 51.61 51.95 52.11 53.35 54.56 56.05 55.35 57.54 59.82 60.30 61.29 60.65 60.10 59.70 59.05 59.16 58.20 56.85 54.45 53.49 53.29 53.08 53.37 53.50 52.79 52.75
41.81 46.00 49.98 48.17 46.12 44.88 44.11 42.80 42.79 42.26 43.21 41.71 41.30 39.69 40.87 46.14 48.28 50.57 53.48 54.44 54.89 54.52 55.10 56.32 57.10 57.42 60.19 59.95 60.58 60.29 59.88 59.45 59.26 59.54 58.37 55.85 54.28 53.38 51.50 51.23 50.98 51.78 52.53 51.78
45.65 49.46 48.11 46.24 45.41 45.52 40.94 46.05 46.08 45.24 41.48 35.12 42.34 32.54 40.73 43.63 45.65 48.09 51.59 53.22 54.00 54.43 57.17 57.33 56.92 57.11 59.73 59.68 60.76 61.46 60.83 60.74 59.94 60.21 57.33 54.29 52.41 51.04 50.62 50.72 50.87 50.94 50.95 50.59
44.30 46.14 45.10 43.79 45.87 47.63 43.44 47.29 45.50 44.96 41.15 39.84 38.97 35.10 38.89 44.91 44.39 47.13 47.14 49.72 52.00 54.92 56.68 56.82 56.89 57.73 60.22 60.63 61.30 61.54 61.26 61.70 60.27 59.88 57.17 54.40 52.56 51.95 51.58 51.31 50.23 49.82 49.87 50.20
45.83 49.55 47.59 46.99 48.62 47.90 48.38 46.34 45.30 43.76 40.45 33.43 40.45 38.61 36.48 41.75 45.17 48.63 50.83 50.83 51.59 52.08 57.21 57.85 58.07 59.78 59.68 61.26 61.35 60.98 59.53 59.48 59.73 57.56 55.56 53.94 52.95 50.77 50.69 50.50 50.53 50.86 48.48 46.26
44.89 45.59 48.62 49.98 44.96 47.50 45.69 40.61 33.07 30.82 31.08 30.82 42.44 40.05 39.96 45.60 47.40 48.98 49.60 50.69 51.52 54.18 55.74 56.97 57.73 58.49 58.61 57.66 58.06 59.05 59.13 57.05 56.33 55.57 53.77 52.56 50.71 49.84 48.77 47.17 44.87 44.39 45.13 44.42
37.82 37.03 45.95 49.16 46.06 44.01 43.42 41.81 34.12 27.83 29.03 31.55 41.87 36.73 40.77 47.83 49.60 51.08 51.49 50.85 52.72 53.60 54.86 56.57 57.63 57.58 58.38 58.35 58.15 58.61 57.59 55.94 54.01 53.40 52.64 50.39 47.63 45.84 46.02 45.09 43.78 43.37 44.47 44.51
38.53 39.52 47.99 49.04 48.86 46.79 44.26 39.41 44.44 37.72 35.39 30.62 35.59 39.56 45.05 47.37 47.94 49.21 48.41 50.61 52.10 53.26 54.12 54.81 54.29 55.56 56.78 57.41 55.51 54.42 54.14 53.59 53.35 52.39 48.84 46.23 46.23 45.60 44.91 44.35 44.02 44.94 43.81 44.45
43.92 37.43 45.19 47.47 49.17 47.73 44.61 45.33 36.97 36.32 28.32 27.35 34.44 35.08 37.62 43.61 46.31 48.51 50.04 50.79 51.99 53.08 53.13 52.72 52.23 52.96 53.51 54.03 54.35 53.43 52.45 52.55 52.45 49.16 47.16 46.67 45.51 45.31 45.44 45.56 44.65 44.39 43.57 43.30
45.42 42.49 41.97 45.85 43.38 41.06 42.19 40.07 40.81 40.23 37.04 29.00 26.06 31.94 41.70 43.49 45.85 46.33 49.03 51.35 52.10 51.98 51.69 50.98 50.66 52.58 52.88 52.78 53.08 52.67 52.35 51.45 48.54 47.80 46.50 45.83 44.96 46.56 45.41 45.24 44.56 43.69 43.27 43.12
46.55 42.17 37.07 40.60 46.83 47.22 44.99 43.66 42.92 31.24 32.63 33.54 29.46 32.25 43.14 43.50 45.83 46.80 47.10 51.89 51.93 53.22 52.03 50.98 50.74 51.98 52.48 52.52 52.78 52.01 51.58 49.49 49.31 48.66 46.81 44.45 44.92 46.31 45.58 45.25 44.26 43.53 42.51 42.63
46.43 40.10 31.95 35.76 42.06 45.36 42.28 43.58 43.59 42.89 37.75 33.65 25.92 31.18 44.23 44.61 43.53 46.97 46.43 48.57 51.59 52.11 51.04 51.08 50.89 51.59 52.39 52.18 52.79 51.98 50.51 48.29 48.98 48.20 46.17 45.57 46.16 45.47 44.29 44.01 44.71 42.98 42.16 40.43
47.87 43.03 37.74 31.40 37.19 42.10 39.54 42.48 42.83 40.22 29.90 32.06 32.91 37.04 41.94 42.59 43.57 44.19 45.60 45.69 48.84 51.39 52.71 51.47 51.48 52.09 53.65 53.67 53.34 51.94 50.31 49.05 47.20 44.99 43.75 44.28 44.53 44.18 44.20 43.35 43.11 41.15 41.00 39.85
45.26 37.99 39.62 40.82 42.95 44.39 43.19 42.19 42.33 39.26 39.67 33.45 36.95 38.95 42.38 41.83 42.64 43.61 45.51 46.46 46.81 48.03 49.79 50.69 50.81 50.53 51.39 51.30 51.30 51.50 50.61 48.17 46.87 46.06 44.40 44.04 44.39 44.13 43.75 43.45 42.26 41.96 41.08 40.57
45.64 37.93 39.12 37.21 43.29 41.93 39.02 41.62 41.57 41.02 41.68 39.88 39.93 39.39 43.08 44.02 44.11 44.19 44.87 45.58 45.94 46.59 47.35 50.66 51.58 51.64 51.84 51.54 50.85 50.17 48.66 47.06 45.56 44.34 43.77 44.92 44.60 44.70 41.51 41.24 41.34 40.77 40.04 39.66
42.65 39.80 34.40 31.43 37.00 36.61 29.12 37.22 39.88 41.24 42.21 40.68 35.60 39.39 43.37 42.79 43.71 43.66 44.12 45.91 46.02 46.56 47.14 48.46 50.12 50.78 51.21 51.00 50.24 46.58 45.85 45.93 45.66 44.31 44.45 44.07 42.62 40.85 41.40 40.90 39.60 39.04 38.37 38.67
42.26 40.22 33.82 28.94 29.52 20.94 37.36 43.31 42.71 40.74 41.02 40.94 41.02 40.81 42.73 42.95 44.14 45.10 44.85 44.25 44.65 45.56 46.40 47.12 47.23 49.52 48.77 47.68 45.73 45.33 45.40 45.17 42.78 42.03 42.18 42.31 41.38 40.26 39.45 38.89 38.66 38.69 38.35 37.50
46.59 38.37 32.17 26.96 27.16 34.35 38.56 41.25 40.58 38.30 37.49 42.11 40.94 42.04 42.99 43.88 43.06 44.07 47.33 46.77 45.95 46.35 46.55 46.56 47.41 45.36 44.54 44.04 44.23 42.29 41.88 41.74 41.27 40.05 39.49 39.62 39.64 38.52 38.48 38.35 37.77 37.55 37.73 36.71
43.65 41.76 30.78 29.40 25.29 20.43 35.86 41.74 45.02 43.26 31.74 43.31 43.50 42.43 42.92 43.04 34.94 40.29 46.16 47.48 46.75 43.94 42.76 42.17 41.54 40.72 40.74 39.80 40.02 39.03 38.12 38.00 37.59 38.09 38.53 39.06 39.16 38.33 38.06 37.85 37.53 37.50 36.53 36.52
31.09 31.75 27.65 25.14 23.56 31.34 43.05 44.15 45.19 30.47 33.05 43.53 44.07 43.45 43.03 40.27 42.75 45.76 47.06 46.73 44.60 41.65 40.62 40.20 39.08 38.44 38.73 38.97 38.67 37.96 37.57 36.58 38.29 39.53 39.51 39.24 39.02 38.17 38.27 37.43 36.50 35.48 34.62 33.74
33.15 31.33 26.33 31.74 27.97 26.38 44.41 43.21 36.51 41.41 43.20 44.01 43.87 44.04 43.79 44.74 46.28 46.65 45.56 40.44 40.16 38.97 38.39 38.23 37.10 36.58 37.99 38.31 37.23 35.94 35.93 38.20 38.69 38.58 38.37 37.96 38.00 37.50 37.45 35.43 34.61 34.73 33.71 32.04
33.89 39.04 34.43 36.00 34.16 43.05 43.68 43.36 45.50 45.73 44.23 44.39 44.88 46.38 46.69 45.70 45.82 41.92 39.08 38.80 38.07 37.20 36.95 37.55 36.78 36.50 37.03 37.01 37.49 36.17 37.23 37.85 37.44 36.27 35.37 35.14 36.01 36.16 35.91 33.98 33.11 32.26 31.42 29.92
42.08 45.30 38.68 38.04 42.32 42.97 45.41 46.88 47.35 47.31 45.90 43.69 42.95 43.83 43.72 39.03 38.63 37.67 36.57 35.72 35.41 35.71 36.22 37.17 36.39 35.36 35.40 36.59 37.02 36.57 37.10 36.75 35.24 34.20 34.11 34.02 33.56 33.48 33.81 33.71 33.12 31.31 28.21 26.81
41.34 42.41 40.95 39.31 43.32 44.67 44.47 45.34 45.41 45.01 43.80 41.23 41.05 40.53 38.93 37.58 36.44 35.68 34.84 34.81 35.64 35.60 35.97 36.52 35.92 35.17 35.10 36.24 35.98 35.93 35.27 35.51 34.27 33.90 33.58 32.38 32.34 32.04 32.40 32.89 31.65 30.25 29.74 29.28
42.90 41.34 34.81 34.26 43.18 42.22 41.01 43.05 43.58 41.57 40.80 40.15 38.51 37.25 37.58 36.77 34.98 34.85 34.25 35.53 35.61 35.58 36.21 35.23 34.84 35.06 34.88 34.32 34.16 34.81 35.32 34.58 32.62 31.35 30.84 29.02 29.02 29.18 30.45 30.54 31.24 32.81 32.09 32.91

GFSCGP_sfc_wetblb_042.txt.gz
Wetbulb
48.13 41.79 38.24 41.53 42.61 42.84 42.73 41.81 40.52 41.48 45.48 45.17 44.59 42.72 44.28 47.04 51.23 50.79 51.44 49.52 52.48 55.23 58.04 58.68 57.84 58.27 57.68 57.83 59.76 59.79 58.02 57.34 57.52 56.44 55.43 54.64 54.12 53.57 53.50 53.11 53.01 52.28 52.82 53.21
45.25 39.80 45.35 47.25 46.90 44.54 44.40 42.52 40.29 42.25 44.80 45.15 42.58 41.88 42.56 44.86 49.17 51.45 51.19 49.61 50.75 52.29 54.48 55.74 56.31 56.87 57.07 58.30 59.92 59.28 58.38 57.56 57.49 57.49 56.03 55.45 54.25 53.26 52.88 52.71 51.73 52.64 51.72 51.00
40.49 44.27 48.67 47.21 45.09 43.40 42.77 40.34 40.20 40.26 42.09 40.49 41.70 39.00 40.31 44.74 46.37 50.16 51.55 52.01 51.88 52.13 52.55 53.08 55.52 56.02 57.17 58.44 59.35 59.01 58.67 57.77 57.93 58.06 56.98 54.76 53.10 51.95 50.73 50.05 50.32 50.78 51.53 50.76
42.97 47.45 46.78 45.20 44.46 44.59 38.42 44.48 44.43 43.24 39.74 34.07 39.20 31.14 37.61 41.59 43.60 48.90 50.58 50.28 51.10 52.41 53.96 54.06 55.75 55.80 57.03 58.83 59.96 59.65 59.12 58.36 58.20 58.38 56.72 53.89 52.87 51.01 50.40 50.06 49.49 49.87 50.54 49.77
41.83 43.88 43.56 43.15 44.06 46.70 42.05 45.79 43.78 43.32 39.63 36.91 36.97 33.40 36.66 41.97 41.82 43.82 47.58 50.71 51.49 52.79 54.15 54.54 56.30 57.37 58.35 59.35 59.46 59.53 59.52 59.21 59.14 58.83 57.11 54.69 52.23 51.60 49.69 49.59 49.07 48.57 48.44 48.62
43.71 47.43 46.09 45.62 47.74 47.23 47.25 44.52 42.88 41.67 38.71 31.92 37.23 35.25 35.06 38.05 44.07 46.27 47.24 49.04 50.99 52.20 54.40 55.38 55.94 58.92 58.47 59.43 59.52 59.55 60.04 60.21 60.23 58.85 55.54 54.56 52.45 50.39 49.71 48.73 48.74 47.75 47.37 44.68
42.49 43.67 46.54 49.34 44.60 46.59 44.72 39.44 30.66 28.68 29.20 28.77 40.43 36.82 38.37 42.64 45.18 46.55 47.47 47.24 48.98 51.98 54.16 53.94 56.57 58.01 58.67 58.85 59.09 59.73 60.31 59.56 59.32 56.88 54.54 52.93 52.07 50.78 50.59 49.74 47.46 45.11 42.88 42.95
35.94 35.38 44.84 46.87 44.32 42.13 41.20 39.13 31.42 27.14 26.55 31.07 39.48 34.37 39.10 45.69 47.67 48.18 47.54 47.91 49.94 50.68 54.73 55.25 56.78 57.90 58.82 59.18 59.31 59.34 59.11 57.69 54.90 53.46 52.67 52.24 50.64 48.30 46.62 46.66 45.63 45.16 44.42 43.60
36.88 38.16 46.03 47.82 48.10 45.84 42.16 37.50 42.07 35.31 32.67 28.07 34.58 38.03 43.39 46.26 47.53 47.01 46.85 48.91 50.04 51.27 54.25 55.75 56.67 57.15 57.32 57.26 57.25 57.80 57.66 54.05 53.01 52.40 49.76 47.84 47.88 46.74 45.65 45.32 46.20 44.91 43.93 43.37
41.84 35.99 43.20 46.82 47.08 46.38 43.82 43.68 36.00 34.86 27.79 26.62 31.81 33.57 36.10 41.86 45.13 46.54 45.94 46.91 50.36 51.74 52.79 53.68 54.81 55.79 56.28 56.57 54.73 53.99 55.07 53.19 52.82 50.12 48.48 48.14 47.15 46.91 46.89 47.23 45.60 44.19 43.39 43.25
43.46 39.35 38.73 44.40 41.87 40.70 40.13 38.36 38.73 38.21 33.64 27.79 25.35 30.49 39.73 43.15 45.57 46.20 46.95 48.84 50.65 51.51 52.12 53.18 53.50 54.63 55.09 54.34 52.62 51.41 53.38 53.08 50.93 48.00 46.64 46.24 47.01 46.52 46.88 46.53 44.87 44.23 42.78 42.93
44.73 40.11 34.29 40.48 44.93 46.38 42.20 40.64 39.95 29.40 30.99 31.75 27.94 30.98 42.33 43.12 44.61 47.38 48.73 50.06 50.76 52.60 52.27 52.29 53.23 53.38 52.99 53.38 52.61 51.48 51.76 51.18 48.72 46.69 46.06 45.04 46.12 45.92 45.61 44.73 43.72 43.85 43.06 43.26
44.33 38.01 31.21 34.79 40.06 43.54 41.32 41.57 42.14 40.67 35.11 31.71 25.94 30.61 42.89 41.85 42.29 45.43 45.85 48.87 51.00 51.26 50.51 50.64 50.68 52.09 53.25 53.09 53.01 51.82 50.16 49.12 47.34 46.24 46.12 45.60 45.30 45.05 44.51 44.20 43.30 41.63 41.05 40.52
46.14 40.08 35.84 30.54 35.33 39.49 37.56 40.77 41.49 38.45 29.57 31.12 31.69 35.45 40.66 40.92 41.39 42.51 43.85 45.26 48.55 50.96 51.21 50.10 49.58 51.38 52.30 52.66 52.56 51.13 49.42 48.32 48.07 46.58 46.05 45.16 44.85 44.21 43.67 42.66 40.84 40.70 40.27 38.41
43.36 37.26 38.50 39.35 40.88 41.67 40.34 40.38 40.59 37.91 37.29 32.34 35.91 36.39 40.35 40.49 40.21 41.57 43.24 44.14 46.37 47.24 48.72 49.24 48.32 47.86 49.20 50.49 51.86 50.74 48.99 47.35 46.82 45.49 45.38 45.53 44.74 42.91 42.90 41.55 40.51 40.56 39.42 39.63
43.36 36.10 36.12 34.35 39.50 38.85 36.85 39.05 38.62 39.37 39.20 38.51 38.41 36.54 40.38 41.37 41.81 42.49 42.93 43.98 43.91 44.48 47.42 49.14 48.86 49.82 50.17 50.21 50.36 49.95 48.10 46.32 45.71 44.35 43.52 44.29 44.50 42.30 41.58 40.38 40.90 40.36 39.91 39.45
40.76 37.93 32.26 30.74 34.60 34.55 28.93 35.55 38.42 39.25 39.91 39.95 33.90 38.26 40.27 40.82 41.65 41.08 41.51 43.09 43.08 43.52 44.41 47.14 49.27 49.59 50.14 50.38 49.88 46.94 44.49 45.15 43.86 44.16 44.10 42.48 41.16 39.97 39.53 39.98 39.21 38.31 37.49 37.94
39.20 36.99 30.93 27.46 27.82 21.37 36.89 41.35 41.14 38.07 38.28 38.95 39.01 39.37 40.48 41.64 41.96 42.58 42.50 42.28 42.82 43.54 44.11 44.42 44.62 44.45 44.31 43.57 43.70 44.38 43.93 41.96 41.65 41.50 41.37 39.55 38.64 38.68 38.80 38.73 38.32 38.33 37.99 37.17
45.15 35.96 30.86 26.12 26.36 32.57 37.30 39.22 37.80 36.58 35.47 39.85 39.03 40.55 40.97 42.70 42.69 42.41 44.62 43.00 41.83 41.24 40.40 39.80 39.87 39.36 40.20 41.02 41.44 39.54 38.48 38.17 37.91 37.32 37.95 38.71 38.46 38.31 38.94 38.97 38.81 38.12 36.81 35.56
40.77 38.67 32.68 27.92 23.70 20.78 34.06 39.83 42.79 41.52 30.68 41.49 41.36 40.92 41.41 40.95 34.79 38.70 42.38 40.11 38.90 38.70 38.79 37.93 38.32 38.41 37.90 37.61 38.08 37.28 36.44 36.25 36.30 37.53 38.71 39.63 39.93 39.63 38.68 37.13 35.93 35.46 34.36 34.57
30.25 30.51 27.17 22.87 22.72 28.45 38.83 42.20 42.88 30.02 31.21 41.80 42.23 41.59 40.87 39.25 40.62 40.04 38.94 38.17 38.22 37.75 37.34 37.99 36.95 35.70 36.33 37.34 37.27 35.72 36.15 35.96 38.25 39.24 39.50 39.64 38.20 37.08 36.55 35.24 34.13 33.38 32.86 32.07
32.35 29.14 24.89 28.70 23.11 25.12 42.85 41.34 36.15 38.02 41.28 42.32 42.57 42.58 42.80 40.93 38.84 38.41 38.15 37.06 36.76 36.03 36.21 36.50 36.17 36.62 37.32 37.76 37.48 36.48 36.40 38.49 38.96 39.02 36.83 36.10 35.64 35.18 35.35 32.96 31.90 31.91 30.93 29.54
32.55 35.20 32.00 33.78 32.40 40.71 42.21 42.04 43.14 43.99 42.90 43.01 43.92 44.43 43.79 38.38 37.71 37.32 36.27 36.03 36.04 35.38 34.89 36.62 35.73 35.57 36.48 36.31 36.28 34.69 35.71 35.82 35.34 34.68 33.74 33.38 33.74 33.81 33.33 31.10 30.27 29.48 29.20 26.71
39.51 43.61 37.62 36.98 40.83 42.23 43.61 44.70 44.72 43.33 40.62 40.78 41.99 40.81 39.66 37.21 36.23 35.04 34.85 34.77 34.82 36.32 35.89 36.27 35.73 34.73 34.07 35.04 35.34 34.73 35.25 34.77 33.86 32.38 32.14 32.42 31.65 31.25 31.08 31.05 30.44 29.66 26.39 26.41
39.48 41.14 38.44 38.37 40.80 42.38 42.09 42.14 40.23 39.73 39.56 38.77 38.86 38.28 36.95 35.99 34.91 34.70 34.41 34.77 35.31 35.46 35.76 35.96 34.96 33.90 33.17 33.74 33.30 33.81 33.50 33.59 32.34 32.07 31.96 31.00 30.30 29.98 29.75 30.45 30.71 30.00 29.87 29.29
40.77 39.12 34.47 33.47 42.37 40.05 39.28 40.24 41.40 38.96 37.98 37.96 36.78 35.67 36.00 35.58 33.88 34.03 33.40 34.08 34.58 34.90 35.06 33.73 32.62 32.14 31.87 32.44 32.28 32.74 33.35 32.70 31.15 30.44 29.89 29.13 28.77 28.31 28.96 29.45 30.13 32.41 31.82 32.21

GFSCGP_sfc_wetblb_048.txt.gz
Wetbulb
44.79 40.11 36.24 39.34 40.32 40.07 38.83 38.11 37.54 38.21 43.15 43.36 42.31 41.32 42.34 47.52 51.58 51.40 53.78 54.46 55.46 56.37 57.75 59.06 58.80 58.32 56.31 57.27 56.95 57.91 57.59 56.69 56.77 55.49 55.03 54.18 53.92 55.33 53.95 53.18 52.71 52.09 51.33 51.08
41.69 37.72 42.16 43.02 43.02 41.33 39.60 37.82 37.23 41.55 42.82 41.76 39.42 39.02 41.13 45.39 50.45 51.75 53.01 53.79 54.98 56.05 56.45 58.17 58.19 57.91 57.04 57.14 57.10 58.04 57.92 56.81 57.25 57.63 54.71 54.68 53.83 53.37 54.25 52.99 51.45 51.67 51.02 50.56
38.12 40.67 45.14 43.61 41.15 40.01 38.48 37.38 37.61 38.17 40.70 40.34 38.70 37.35 39.08 42.47 47.23 50.29 52.43 54.46 55.03 55.64 55.70 56.75 57.08 57.73 57.30 56.30 56.51 58.00 57.86 57.31 57.70 57.22 55.00 52.62 53.15 53.14 52.03 50.62 50.00 50.67 51.33 50.61
40.61 43.24 43.50 41.50 40.74 41.04 35.61 41.45 40.93 39.69 37.66 32.31 37.82 30.70 35.29 38.43 42.70 46.85 50.70 51.07 52.43 53.66 56.26 57.17 56.77 56.46 56.50 56.82 56.97 57.99 57.79 57.25 57.50 56.13 55.74 52.49 52.42 51.24 52.25 51.00 49.33 51.12 50.31 49.57
39.30 40.46 40.66 40.10 41.17 43.17 39.72 42.34 40.45 39.51 35.86 33.70 33.95 31.77 35.66 37.26 37.64 41.87 47.69 51.24 51.87 52.80 55.00 55.97 56.85 56.78 56.93 56.37 55.69 57.00 57.15 57.03 57.16 56.39 55.98 53.35 52.29 53.33 51.14 49.35 50.48 50.30 47.72 47.18
40.02 43.66 42.55 42.14 43.96 44.11 44.17 40.96 38.91 37.38 35.26 29.65 34.06 32.51 33.45 35.99 39.55 41.05 44.08 49.28 51.80 51.30 53.10 55.65 57.10 55.14 54.39 54.41 55.30 55.92 56.67 56.69 57.10 56.78 55.50 54.37 53.84 52.16 50.67 50.01 48.91 46.32 45.05 44.79
38.52 40.27 43.06 45.47 40.67 42.60 40.03 36.52 29.03 26.94 27.35 28.00 36.15 33.38 35.80 39.77 42.38 42.46 43.20 46.56 50.62 50.83 51.32 52.66 52.42 53.11 53.36 54.20 55.72 56.39 56.49 56.51 57.26 56.57 56.37 56.32 55.52 53.01 51.98 50.50 47.93 44.45 42.40 41.21
33.56 31.72 40.57 43.92 41.76 39.19 38.13 36.98 29.52 25.29 24.40 28.44 35.65 30.96 37.22 42.35 44.27 45.21 43.80 43.52 47.28 47.24 49.70 50.90 52.45 53.48 53.81 54.86 56.35 57.14 57.11 56.92 57.48 57.38 56.81 57.13 55.20 53.96 52.31 51.20 49.04 46.10 42.70 42.11
33.20 34.27 41.92 43.87 44.06 42.24 38.23 34.92 38.51 31.94 30.56 26.99 31.19 35.43 39.52 41.56 43.03 44.70 43.95 43.40 45.54 46.80 48.36 50.59 51.39 53.17 53.53 55.44 56.45 57.22 57.67 57.63 57.84 57.77 57.41 54.84 53.75 52.75 50.88 50.86 47.06 44.70 43.38 42.53
38.57 32.82 40.09 42.62 44.32 43.13 40.49 41.66 33.00 31.51 26.59 25.31 28.64 30.44 32.53 39.06 40.30 43.08 43.48 44.06 44.57 46.03 48.40 49.52 51.89 53.64 54.77 55.91 56.63 57.28 57.77 57.70 58.06 57.77 55.55 53.15 52.12 51.57 50.07 48.95 46.91 45.22 44.11 42.88
39.51 36.54 34.95 40.47 39.15 38.55 37.88 35.76 35.39 34.99 30.67 26.42 24.16 29.65 36.84 38.83 40.87 41.84 43.21 44.42 45.62 48.23 48.94 51.03 52.73 54.52 55.64 56.01 56.33 56.61 56.93 57.37 53.83 52.21 51.17 49.86 49.51 49.08 50.02 49.31 47.97 46.43 43.63 44.24
40.96 36.31 30.77 36.43 40.46 42.11 39.42 38.18 36.81 29.79 29.24 29.40 27.27 29.88 39.56 39.18 40.20 42.17 43.89 45.60 46.76 49.44 50.05 51.09 52.00 53.19 54.64 55.62 56.13 56.13 55.95 55.83 54.54 49.76 48.34 49.07 49.08 49.62 48.69 47.44 44.98 44.65 43.75 42.71
41.42 34.15 28.66 32.03 36.42 39.22 37.41 39.15 38.58 35.56 31.91 29.35 24.18 29.90 39.96 39.51 39.32 41.17 43.23 44.80 47.08 49.49 49.79 50.47 51.40 52.22 53.73 54.20 53.96 54.35 54.31 52.95 49.09 49.03 48.07 48.23 48.09 47.22 44.49 43.80 43.73 42.89 42.83 42.53
43.91 36.45 33.22 30.38 32.95 36.67 34.58 37.24 38.10 36.33 28.58 30.08 29.66 33.20 38.19 39.23 39.69 40.80 41.25 40.28 43.45 47.37 49.56 49.40 49.69 50.93 51.93 52.61 52.04 51.37 50.18 49.18 48.75 48.33 47.92 46.83 46.26 45.53 43.93 43.75 42.96 42.50 41.73 40.29
41.50 34.81 35.31 35.35 36.43 37.99 37.35 37.27 36.45 35.18 34.97 31.94 34.82 33.46 37.83 38.33 37.87 38.74 39.78 41.72 43.20 45.27 47.53 48.25 48.35 48.34 49.28 50.21 49.25 48.66 47.68 46.96 47.10 45.86 44.56 44.49 45.14 43.61 41.79 40.54 40.85 40.71 40.16 39.08
40.05 34.68 33.35 33.08 35.92 35.81 34.85 36.41 36.95 35.94 35.17 34.81 34.42 34.45 38.98 37.80 37.50 38.79 39.85 41.60 42.14 43.11 43.82 45.17 46.55 46.94 47.94 48.72 47.75 46.94 45.39 45.03 45.48 43.99 42.87 42.54 42.76 41.62 40.38 39.03 39.08 39.40 39.14 39.87
38.09 34.69 30.79 29.97 32.27 32.71 28.36 34.50 36.30 36.22 36.86 37.32 32.62 37.33 38.17 36.69 38.22 37.44 38.35 39.92 40.44 40.30 39.82 40.89 41.21 42.63 44.51 44.95 44.00 42.53 42.45 43.16 42.56 41.55 41.32 40.38 40.09 39.14 39.39 39.83 39.60 39.59 40.38 40.74
35.74 33.41 30.01 26.14 27.38 21.49 34.86 37.75 37.84 36.80 36.70 36.57 35.87 36.18 37.30 37.51 37.60 37.39 37.75 39.13 37.56 36.97 36.71 36.54 37.45 38.56 39.48 40.06 40.18 40.25 39.87 39.03 38.47 37.96 38.64 39.31 39.50 39.23 39.75 40.03 40.45 40.23 40.20 39.53
39.08 33.29 28.92 27.04 26.31 30.90 33.88 35.95 35.84 34.94 34.31 37.21 35.65 36.91 37.91 39.13 38.58 36.57 37.01 36.44 35.58 35.41 35.41 34.86 35.19 35.45 35.73 36.27 37.05 37.25 36.99 37.15 37.49 38.16 39.18 39.80 40.21 39.79 40.19 39.83 40.01 40.11 38.90 36.06
37.36 35.10 31.86 25.40 23.50 21.66 33.16 37.93 39.29 38.48 29.66 38.06 38.35 38.05 38.48 38.31 31.70 35.12 35.67 35.85 34.37 34.37 34.82 33.99 34.27 34.89 35.18 35.36 36.62 35.90 35.78 37.13 37.65 38.41 39.17 39.98 40.55 40.89 40.38 38.23 37.13 34.69 33.10 32.36
30.54 29.24 26.86 21.49 22.72 29.41 37.28 38.78 39.48 29.67 31.37 38.53 40.25 39.64 38.24 36.72 35.66 35.07 34.98 34.19 34.29 33.83 33.98 34.79 34.56 33.94 34.01 35.64 37.56 36.52 37.05 37.59 39.91 40.69 40.33 39.16 38.01 36.42 35.11 33.55 32.41 31.28 30.28 29.49
33.86 29.61 25.35 24.72 21.98 27.33 38.80 37.89 34.24 36.84 37.41 39.11 39.42 39.42 38.14 35.19 34.94 34.49 34.25 33.40 33.43 32.80 33.35 33.93 33.80 33.79 34.88 35.32 36.22 35.04 35.22 36.54 36.61 36.11 35.24 33.86 33.27 32.81 32.49 30.54 30.04 29.88 28.78 27.96
32.97 36.08 32.90 33.99 33.58 39.01 39.10 37.82 39.12 39.59 39.38 39.47 40.31 39.27 37.85 35.20 34.34 34.27 32.86 32.34 31.82 31.76 31.67 33.53 33.29 33.05 33.53 33.75 34.04 33.19 33.51 33.50 32.50 31.80 30.70 30.40 30.80 30.42 29.80 29.07 28.73 28.32 27.71 26.80
36.36 38.58 34.92 35.23 38.13 38.98 40.73 40.74 40.64 41.13 40.58 41.58 40.30 38.92 37.88 35.01 34.63 33.24 32.29 31.81 31.55 31.69 32.02 32.81 32.64 31.42 31.16 33.01 33.08 32.57 32.25 31.41 30.56 29.80 29.46 29.18 28.78 28.84 28.67 28.58 28.38 27.27 25.65 26.36
37.16 38.63 36.25 35.12 38.37 38.69 40.14 38.60 38.71 38.40 39.19 38.26 37.89 37.46 36.36 35.28 33.68 32.75 31.99 31.95 32.07 31.95 32.43 32.71 31.78 31.00 31.22 31.96 31.25 31.03 30.17 29.72 29.03 28.53 28.66 28.04 27.68 27.04 26.94 27.02 26.98 27.44 27.10 26.95
39.13 37.54 35.32 35.34 39.73 39.04 39.18 37.94 38.44 38.17 36.66 37.07 35.64 34.47 35.05 34.74 32.97 32.72 31.83 32.04 31.89 30.82 31.54 30.89 30.55 30.78 29.33 27.78 27.18 27.91 28.19 27.22 26.49 27.07 26.87 25.51 24.92 24.11 24.80 24.56 24.05 27.49 27.57 28.51

GFSCGP_sfc_wetblb_051.txt.gz
Wetbulb
48.11 45.58 42.31 44.36 44.18 43.67 42.61 41.62 40.88 42.86 46.96 45.59 45.19 45.86 47.31 54.08 54.50 54.18 54.05 54.65 55.90 56.79 58.93 58.46 59.00 59.54 59.24 59.70 60.29 61.00 62.18 62.37 61.17 60.36 59.63 59.58 59.66 60.73 60.47 59.11 59.21 58.55 57.42 56.55
45.67 42.74 45.82 45.53 45.26 43.98 43.17 41.71 41.28 43.53 45.14 44.81 44.35 44.54 46.21 51.41 54.02 54.50 54.69 54.64 55.50 56.89 58.40 58.96 59.04 59.35 59.14 59.36 60.22 60.77 61.64 62.26 61.56 61.06 60.70 60.70 60.48 60.09 60.66 59.29 57.77 57.78 56.76 55.97
42.77 44.52 46.02 45.66 44.65 42.88 42.86 41.71 41.40 41.40 44.22 44.51 43.95 42.59 43.30 46.17 51.79 54.45 55.61 57.00 57.03 57.10 57.99 58.95 59.47 59.55 60.12 59.32 59.79 60.23 61.21 61.86 61.94 61.44 60.44 59.04 59.40 59.04 57.77 57.36 57.42 56.49 56.41 54.83
44.09 45.99 44.89 44.61 43.35 44.06 40.25 44.20 43.48 42.30 41.81 38.59 42.57 36.17 40.95 43.38 45.47 49.58 54.55 55.14 56.51 57.35 58.48 59.69 59.97 60.19 60.15 60.40 60.47 60.62 61.12 61.25 61.36 61.10 59.53 58.51 58.72 58.32 58.54 57.69 57.56 56.22 55.89 53.59
43.03 43.36 43.55 42.81 43.78 45.15 43.13 44.83 43.77 43.06 41.20 40.37 38.81 37.94 41.45 41.89 41.80 45.65 49.72 54.67 56.28 57.41 58.50 58.91 59.78 60.79 61.54 61.43 60.72 60.94 61.06 60.81 61.07 60.33 60.34 59.72 58.84 60.07 57.32 56.22 56.09 55.67 53.68 52.79
43.77 47.15 45.83 45.81 45.95 46.00 46.18 43.93 42.02 41.20 40.29 34.88 38.35 38.26 39.60 42.06 43.96 45.23 47.96 51.28 54.93 56.54 57.09 59.25 60.86 61.14 60.79 61.13 60.72 60.87 60.43 60.43 61.05 60.46 60.20 58.79 58.38 57.82 56.51 56.24 55.60 54.90 53.81 53.17
42.07 43.51 46.47 47.34 44.48 45.88 44.32 40.97 35.56 33.91 33.79 33.31 39.17 37.52 41.36 45.29 46.72 46.96 48.03 48.75 52.65 56.32 56.84 57.23 58.68 59.51 59.98 59.10 59.36 59.88 60.10 59.91 60.03 59.76 59.00 58.59 58.58 57.68 55.26 56.08 54.82 51.23 51.66 51.24
37.36 35.53 43.47 46.39 45.41 43.43 42.22 41.70 36.25 28.99 30.56 34.02 38.66 35.76 41.60 46.23 47.70 49.16 48.83 48.02 49.06 54.11 55.79 56.30 57.72 59.21 59.61 59.06 59.25 59.59 59.75 59.89 60.05 59.70 59.21 58.99 59.18 58.26 57.58 56.04 54.84 52.40 52.22 51.06
36.45 37.11 44.32 45.80 46.88 46.46 41.99 39.71 42.61 35.69 34.00 34.01 37.23 39.96 44.54 45.56 46.78 49.01 49.29 48.66 48.95 50.76 53.18 55.19 56.74 57.97 58.59 58.39 58.74 59.58 59.65 59.62 59.41 59.48 59.89 59.49 59.67 58.39 57.94 56.59 55.07 53.29 50.01 47.68
42.16 36.98 43.01 45.20 47.32 45.92 43.69 44.64 37.94 37.09 30.42 28.73 33.44 35.42 38.79 43.03 45.06 46.37 48.41 49.70 50.70 50.89 51.43 52.80 54.40 55.92 57.45 58.39 59.14 59.90 60.32 59.99 60.08 59.90 60.07 59.96 59.24 58.88 58.34 56.05 53.34 50.12 49.16 46.24
42.57 41.41 39.09 43.91 42.72 42.12 41.65 40.21 38.82 39.44 36.42 32.33 30.00 35.62 43.13 43.83 45.73 46.26 47.67 49.94 50.71 52.27 52.04 53.19 54.46 56.31 57.31 58.28 58.96 59.25 59.67 60.14 60.25 60.52 60.44 59.39 57.62 56.99 55.90 53.79 51.65 48.99 47.08 45.49
44.53 41.13 35.81 39.83 43.37 45.00 43.94 42.48 41.51 37.07 34.05 34.45 33.63 35.31 44.66 44.67 44.58 45.40 47.65 49.62 51.43 52.90 53.64 53.94 55.34 56.58 57.49 57.91 58.59 59.11 59.40 59.55 60.07 59.42 57.73 56.99 55.07 53.51 52.53 51.27 49.63 47.47 46.01 46.50
43.67 38.33 34.28 36.15 40.02 43.34 41.91 41.80 40.85 38.98 37.34 33.62 33.60 36.71 43.64 44.20 44.75 44.96 45.75 48.43 50.84 52.47 54.17 54.75 55.43 55.98 56.98 57.91 58.27 58.50 58.91 59.36 59.49 56.07 54.94 53.34 52.02 51.79 50.88 48.50 47.42 47.48 46.54 44.28
45.59 39.33 37.89 34.24 37.52 40.77 38.73 40.26 40.75 40.93 35.65 36.50 36.09 39.20 43.61 45.16 44.38 46.07 45.94 45.68 46.75 49.94 52.17 53.88 54.62 55.66 56.54 57.25 57.82 58.08 57.40 55.09 52.61 51.53 51.57 50.24 50.19 49.50 47.83 46.37 45.89 45.24 45.31 45.25
45.45 38.61 38.47 38.54 39.19 40.40 40.83 40.66 39.71 39.31 40.23 37.73 40.08 37.78 43.22 44.86 45.25 44.82 43.92 46.36 47.64 48.56 49.54 51.02 52.53 53.53 54.84 55.48 55.06 53.76 52.56 52.07 51.38 49.20 48.25 47.63 47.77 46.24 45.08 44.72 42.74 43.16 42.82 44.42
42.85 39.12 38.49 36.67 38.82 39.34 38.54 39.96 40.27 39.97 39.59 38.98 39.50 38.70 44.58 44.22 43.65 43.35 44.20 46.21 45.79 46.14 46.51 47.37 48.60 50.09 51.87 51.88 51.27 49.92 49.25 48.89 49.30 48.13 45.54 44.14 42.85 42.75 41.15 40.91 41.45 42.61 41.11 43.43
40.20 38.02 35.92 34.13 35.84 36.93 33.27 37.99 39.75 40.35 41.24 42.17 37.88 43.05 42.92 42.07 42.57 42.68 43.27 44.46 43.45 42.85 43.32 43.99 44.80 45.40 46.64 47.19 47.29 46.33 45.89 46.21 45.17 43.96 43.00 41.55 40.66 39.92 40.66 41.33 41.92 43.28 42.38 42.88
39.15 37.89 35.39 32.37 31.86 28.87 40.25 41.33 42.04 41.17 41.19 41.87 40.89 42.13 42.69 42.70 40.86 41.18 42.23 42.93 40.79 40.57 40.60 40.59 41.85 42.40 43.14 43.92 43.59 43.58 43.46 42.73 42.27 41.74 40.85 41.27 41.23 40.53 42.48 42.72 41.53 41.26 41.28 41.36
42.24 37.09 32.89 32.47 32.40 35.65 38.04 39.56 40.21 39.59 41.05 42.48 42.08 41.65 41.00 40.80 41.88 39.30 38.62 39.66 39.30 38.89 38.47 38.75 39.78 40.31 41.11 41.56 42.01 41.90 41.59 41.77 41.57 40.99 41.25 41.48 41.78 41.51 41.24 40.56 40.65 41.41 41.84 41.70
37.60 38.38 38.48 30.38 30.79 29.47 39.08 41.88 42.40 42.94 35.93 42.52 42.13 41.16 40.59 41.37 40.13 41.87 38.56 38.27 37.85 38.17 38.37 38.44 39.27 39.99 40.11 40.47 41.77 41.07 40.94 41.46 41.01 41.23 41.91 42.35 42.42 40.95 39.45 39.37 39.65 39.80 39.08 37.56
34.17 33.59 33.55 29.87 33.37 35.41 40.27 41.71 43.27 35.99 39.47 42.65 42.78 42.84 42.79 41.53 42.14 40.83 38.14 37.21 37.78 37.74 37.57 38.64 39.21 38.83 39.65 41.28 41.69 40.70 41.27 41.10 41.86 40.77 39.40 37.75 36.94 37.03 37.42 37.36 37.06 36.77 36.47 35.86
36.16 34.01 32.83 31.90 32.43 32.21 42.04 40.10 39.01 44.44 42.53 43.40 43.62 43.78 43.38 38.96 37.23 37.42 36.82 36.02 36.47 36.47 37.24 38.63 38.35 38.44 39.70 41.15 40.04 38.16 36.90 38.05 38.15 37.35 36.04 35.50 35.71 35.48 35.53 35.74 35.66 35.58 35.14 34.11
35.69 39.13 37.63 38.59 39.03 44.56 42.71 45.37 44.54 44.06 44.67 43.16 44.30 43.16 40.35 37.50 36.85 36.40 35.39 35.53 35.74 36.53 36.99 37.72 36.80 35.84 36.43 37.41 37.65 35.46 35.26 36.05 35.75 35.23 34.14 33.62 33.30 32.71 32.52 32.18 31.78 31.41 31.26 30.39
38.88 41.08 39.57 40.44 42.46 42.22 43.04 44.35 44.64 44.75 44.58 44.14 45.40 42.91 40.56 38.13 36.84 35.45 34.96 34.77 35.17 36.03 35.58 35.76 35.05 33.97 33.72 34.76 34.37 34.03 34.00 34.98 33.78 32.32 31.41 30.95 30.37 30.04 30.16 30.30 30.07 29.25 28.82 28.15
40.80 41.17 38.91 39.08 41.22 42.18 43.65 43.99 44.41 42.86 43.30 42.03 42.63 41.67 40.27 37.95 35.82 35.18 34.37 34.57 35.15 34.87 34.73 34.71 33.89 32.97 31.54 31.16 29.59 30.32 31.38 32.32 30.97 30.01 28.82 28.21 28.11 27.65 27.71 28.07 27.60 27.29 28.24 27.22
41.22 40.04 38.54 38.70 44.39 44.85 45.24 45.63 42.49 41.48 41.15 41.24 39.38 37.94 38.88 37.96 35.53 35.41 34.46 34.90 34.60 33.56 33.64 33.40 32.17 30.04 28.20 27.85 28.03 28.99 29.70 29.37 28.61 26.89 26.54 25.48 26.09 26.11 26.19 25.72 25.72 26.13 25.42 25.45

GFSCGP_sfc_wetblb_054.txt.gz
Wetbulb
52.61 48.19 45.56 46.58 47.93 47.92 46.71 45.61 44.35 47.38 49.99 48.35 47.71 48.80 50.36 56.27 56.39 56.24 57.58 57.08 56.68 59.40 61.17 61.27 61.86 61.70 61.36 61.75 61.75 62.26 62.49 63.58 64.52 63.76 62.79 61.98 60.66 62.16 63.50 64.71 65.01 63.45 64.10 63.88
49.01 45.59 49.31 49.61 48.98 47.75 47.07 45.38 44.73 47.20 48.80 47.76 47.79 47.81 50.28 54.39 56.07 56.44 57.31 57.96 58.27 59.47 59.80 59.70 61.35 61.51 60.92 60.86 61.98 62.26 62.82 64.05 64.68 64.23 63.54 62.54 61.60 62.47 63.44 64.36 62.39 62.37 62.05 62.17
46.46 47.91 49.62 48.47 47.98 46.60 47.08 45.36 44.71 44.67 47.55 48.88 47.75 46.07 47.99 51.54 55.70 57.16 58.58 59.54 58.84 59.07 59.72 60.39 59.99 60.96 61.43 60.70 61.61 62.74 63.71 64.65 65.42 65.16 64.41 62.98 62.89 62.87 62.11 62.12 62.28 60.57 60.60 60.61
47.94 50.49 48.13 47.71 46.58 47.81 43.81 48.23 46.96 45.99 45.14 41.13 47.48 39.50 45.48 49.01 50.84 54.33 56.73 58.79 59.46 58.66 60.17 61.49 61.23 60.86 61.23 61.54 62.65 62.88 63.39 63.88 65.26 65.64 63.91 62.00 60.35 59.68 61.66 62.05 61.26 60.57 59.84 59.31
46.06 47.29 47.10 46.24 47.04 48.81 45.34 48.20 47.06 46.87 45.43 44.42 43.93 41.65 45.03 47.13 47.18 49.83 53.70 57.14 59.53 61.01 60.21 61.09 62.30 62.73 63.13 62.99 62.66 63.41 63.77 63.77 64.70 65.20 64.92 63.00 61.17 61.45 63.39 62.57 61.64 60.03 59.19 60.44
48.02 50.63 49.68 48.36 49.39 49.71 49.68 47.58 46.85 47.09 45.61 38.72 43.10 42.34 43.74 46.10 47.63 49.22 51.46 54.44 57.65 59.95 61.24 61.19 63.03 64.23 64.50 65.32 64.87 64.78 63.85 63.46 64.40 64.74 64.89 64.32 63.05 62.73 62.82 61.89 61.06 60.78 60.27 59.27
46.16 46.80 49.71 50.03 46.93 49.34 48.67 45.49 38.86 37.11 37.65 36.46 43.34 41.58 43.97 48.35 50.03 51.36 52.36 54.34 55.56 58.62 60.91 61.21 61.56 62.63 63.87 64.51 65.16 64.85 64.29 63.43 64.23 64.60 64.67 64.50 64.17 63.31 62.77 62.04 60.88 60.11 58.98 56.00
41.20 39.17 46.42 49.99 47.84 46.09 46.58 45.75 39.90 31.82 34.41 38.81 42.57 39.11 44.86 50.00 51.71 52.51 54.44 54.32 54.54 56.00 59.09 61.25 61.85 62.84 63.58 64.16 64.93 64.83 64.24 64.03 64.05 64.70 64.53 64.39 63.52 63.26 62.70 62.01 61.27 60.59 57.18 53.84
41.40 41.02 47.78 49.29 50.03 49.41 45.72 43.04 47.23 40.48 40.22 38.78 41.63 43.93 48.12 49.61 50.08 51.54 52.39 53.55 53.15 54.75 57.70 59.54 61.53 63.01 63.89 64.48 64.41 64.92 64.76 64.53 64.73 63.22 64.13 63.19 62.85 62.32 62.01 61.49 60.81 59.39 55.78 53.52
45.65 40.25 46.48 48.23 50.28 49.37 47.69 49.39 41.21 42.75 33.37 32.29 38.91 39.88 43.13 45.51 46.44 49.06 50.44 52.24 55.02 55.79 56.05 57.72 59.57 61.86 63.44 64.39 64.77 64.98 64.85 64.08 64.83 64.28 63.78 62.90 62.39 62.17 61.77 60.77 59.46 56.64 52.55 49.38
47.88 45.01 43.47 47.34 45.95 45.38 45.31 44.24 44.51 44.68 42.09 35.94 34.41 39.86 48.35 47.12 48.56 48.81 51.32 53.25 54.63 56.47 56.87 57.49 58.30 59.73 61.11 62.63 63.21 63.47 63.80 63.93 64.22 64.28 64.11 63.41 63.17 62.95 61.05 59.34 58.02 54.41 51.24 48.60
48.28 45.56 40.96 43.27 47.43 48.97 49.26 46.48 46.12 40.35 38.15 41.14 40.19 40.04 49.43 50.16 50.08 50.45 51.46 52.76 55.49 57.58 58.52 58.60 59.19 60.01 60.57 60.87 61.83 62.20 62.88 63.16 63.81 64.16 63.87 63.20 60.82 58.99 57.83 55.59 53.72 51.32 48.19 47.98
48.12 43.79 38.78 40.06 43.75 46.81 45.30 46.80 46.80 46.16 44.26 40.05 38.30 40.39 49.53 49.71 49.78 50.76 50.91 52.71 54.24 56.30 58.07 59.15 59.52 59.95 60.65 61.20 61.77 62.13 62.53 62.61 63.00 62.83 61.33 57.53 54.96 53.68 52.66 50.84 48.92 48.15 47.19 47.38
48.71 45.50 41.99 38.00 40.96 44.76 42.67 44.51 45.99 44.98 40.69 40.52 41.22 42.59 47.04 49.13 49.92 51.53 51.11 50.72 51.82 54.66 57.36 58.96 59.45 60.04 60.56 61.07 61.77 61.93 60.96 59.26 57.75 56.84 54.94 52.59 51.78 51.12 50.25 49.19 47.99 48.26 47.23 46.52
48.77 42.63 44.34 44.32 44.61 44.47 43.71 43.53 44.59 43.28 44.15 41.01 43.15 43.67 46.84 49.10 50.72 51.27 50.84 50.03 51.02 52.04 54.88 57.40 59.00 60.03 60.71 60.55 59.82 59.72 58.17 56.02 54.08 51.95 50.79 49.58 49.72 49.24 48.96 49.22 50.08 48.20 46.14 45.67
48.59 42.89 44.78 42.14 44.62 43.92 42.17 44.10 44.64 44.93 44.97 44.99 45.17 44.76 50.47 51.96 50.99 49.89 49.50 50.86 51.50 51.87 52.75 54.35 56.24 57.53 57.08 57.00 56.43 55.63 55.19 54.98 52.79 49.69 47.65 46.81 47.19 46.81 46.61 47.41 47.10 44.64 44.63 44.87
45.59 44.22 42.10 38.09 42.99 42.56 36.72 42.70 44.35 45.26 46.99 46.53 42.99 47.33 50.60 49.77 49.61 50.24 50.50 51.46 51.28 50.56 50.95 51.71 52.62 53.75 54.01 53.70 53.75 52.65 52.36 52.54 50.93 48.04 46.03 46.19 46.07 44.51 45.64 45.17 45.08 43.86 44.34 43.60
45.22 44.41 43.57 38.72 36.90 32.56 43.92 47.54 48.05 46.36 47.41 48.70 48.31 48.87 49.84 50.15 50.16 48.86 50.76 50.98 49.15 49.05 48.98 49.61 50.48 51.07 51.40 51.74 51.01 50.70 50.54 49.35 47.80 45.94 44.93 44.99 45.30 45.71 46.32 45.35 43.90 44.15 43.02 43.24
48.58 45.47 40.39 38.34 37.24 41.60 41.56 43.70 44.92 44.67 45.23 49.65 48.68 49.51 49.85 47.90 47.48 45.53 46.73 49.97 48.94 48.24 48.22 48.49 49.46 49.52 49.87 49.55 49.75 49.17 48.19 47.54 46.28 45.34 45.52 45.88 45.92 45.14 44.08 44.95 45.04 44.44 44.73 45.19
44.85 45.41 43.86 37.42 35.79 34.39 43.65 48.39 49.95 48.49 41.60 49.85 49.59 48.78 48.36 47.01 43.89 48.16 45.92 45.85 45.21 46.21 46.90 47.16 47.82 48.31 48.36 48.37 48.98 48.02 47.01 46.81 45.35 45.03 44.94 46.06 45.69 43.34 42.45 43.11 42.94 43.05 43.49 41.68
38.77 39.61 39.02 39.35 38.57 42.37 47.35 48.03 48.69 39.84 43.73 50.43 50.61 50.06 48.82 46.48 49.20 48.92 46.08 45.27 45.99 45.89 45.68 46.79 47.13 46.58 47.06 48.09 48.00 46.34 45.91 44.06 44.87 44.81 43.60 42.03 40.66 40.95 41.46 41.07 41.09 40.95 40.88 40.35
39.97 39.25 38.13 40.21 38.01 36.11 47.36 45.68 43.96 49.98 51.55 51.59 50.92 51.13 49.75 49.43 46.68 45.41 44.94 43.98 43.87 44.04 44.22 45.55 45.33 45.29 46.52 47.27 46.64 44.77 43.20 43.72 43.26 42.44 41.17 40.45 40.14 39.17 39.76 39.51 39.50 38.63 37.56 36.10
39.81 43.93 42.79 42.63 43.92 50.60 49.07 50.79 51.54 52.84 52.19 50.41 51.50 51.22 50.95 45.99 44.75 44.51 43.47 43.26 43.69 44.11 44.62 45.15 44.42 43.43 44.03 44.50 44.20 41.56 40.94 41.45 40.48 39.58 38.54 37.98 37.37 36.77 36.30 35.90 35.05 35.21 34.71 33.50
43.70 44.55 42.72 43.32 47.97 48.42 49.83 51.24 50.59 50.80 51.23 50.80 51.79 51.27 48.88 46.14 44.85 43.79 43.23 42.90 43.05 43.70 43.27 43.16 41.64 40.36 39.59 40.80 40.55 40.12 39.72 39.73 38.65 36.96 35.93 35.54 33.44 34.07 33.93 34.62 33.61 33.24 32.20 30.83
46.10 44.73 44.17 45.28 47.99 48.36 48.98 51.00 51.94 49.92 49.72 49.20 50.54 50.06 48.55 46.56 44.40 43.53 42.61 42.02 42.59 42.46 41.76 42.01 40.48 38.68 37.04 37.22 36.73 37.19 37.85 37.86 35.64 34.07 32.97 32.76 32.69 32.33 32.61 32.02 31.53 30.32 30.47 27.89
46.67 45.45 43.12 43.58 48.99 49.02 51.56 52.30 52.67 50.33 48.47 48.89 48.63 47.31 47.92 46.54 44.03 43.45 42.00 42.46 41.70 40.41 40.57 39.66 38.22 36.08 34.44 33.43 32.17 33.09 34.93 35.11 33.32 31.61 31.22 30.21 31.31 31.55 31.56 31.44 31.24 25.67 25.20 24.80

GFSCGP_sfc_wetblb_057.txt.gz
Wetbulb
52.20 48.35 46.18 47.97 49.43 48.80 47.54 46.41 45.73 48.04 50.48 50.51 48.75 48.81 50.76 55.76 56.69 56.40 57.61 57.78 58.64 59.82 61.08 61.03 60.79 60.84 61.33 61.28 60.61 60.66 60.81 62.72 61.75 61.61 60.78 60.40 59.46 61.15 61.75 63.27 64.81 65.62 64.74 65.37
49.82 46.27 49.87 50.77 49.73 47.96 47.06 46.03 45.37 48.19 49.91 49.30 48.60 48.29 50.30 53.85 56.02 56.88 57.39 58.29 57.19 59.55 60.25 60.66 61.10 61.33 61.40 60.94 60.66 60.28 60.59 61.28 62.22 61.77 61.39 61.56 61.57 61.14 62.42 63.40 64.74 65.17 64.60 64.82
47.35 48.99 51.08 49.43 48.48 46.88 47.42 46.00 45.96 45.70 48.56 50.12 48.29 46.51 47.66 51.75 55.80 57.06 58.17 59.76 59.19 58.95 59.09 59.30 59.82 60.97 61.65 61.26 61.20 61.04 62.14 62.70 63.00 63.64 63.18 62.56 62.24 61.87 61.12 62.23 63.43 63.96 63.23 60.92
48.47 50.88 49.04 48.49 47.31 48.69 44.85 49.06 47.67 46.96 45.71 41.64 48.37 40.20 46.85 49.87 51.88 55.08 56.81 58.17 59.03 59.18 60.48 60.54 60.57 61.25 61.45 61.41 62.61 62.68 62.85 63.23 63.80 64.72 63.44 62.65 60.60 59.14 60.54 62.07 63.09 63.17 60.78 60.03
46.50 47.77 48.16 47.09 47.78 49.81 46.40 49.58 47.92 47.67 46.00 45.71 45.68 42.47 45.59 49.12 47.70 51.10 55.10 57.33 59.07 59.41 60.69 60.82 60.96 61.63 62.49 62.78 63.18 63.59 63.84 64.13 64.88 65.10 64.53 63.27 61.98 61.42 62.06 62.59 63.06 62.57 61.72 61.01
48.60 52.01 50.62 49.57 50.56 50.52 50.69 48.40 48.02 48.37 46.38 39.38 44.52 43.20 42.50 45.83 47.72 50.02 52.42 55.95 58.27 59.97 59.92 61.56 62.94 63.01 62.80 63.68 64.17 64.48 63.36 63.36 64.23 64.57 65.13 64.82 63.91 62.54 61.37 62.14 62.53 61.60 61.35 61.17
46.75 47.90 50.45 51.19 48.01 50.41 49.40 46.22 39.58 37.71 38.33 37.69 45.19 43.29 45.26 48.92 50.53 50.90 51.72 53.79 56.54 59.33 60.55 60.21 61.30 62.59 63.14 63.28 63.90 64.68 63.54 63.25 64.07 64.80 64.86 64.97 64.74 64.64 63.37 62.02 63.15 61.73 61.05 60.65
41.88 40.09 47.56 50.52 48.24 47.15 47.44 46.40 40.66 32.96 35.57 39.11 45.38 39.90 45.01 50.83 51.61 52.53 53.29 55.19 56.57 57.52 59.88 61.30 61.47 62.32 63.40 64.75 65.31 64.65 64.41 64.14 64.40 64.59 64.60 64.69 65.38 65.14 64.73 64.29 63.87 63.24 62.42 60.92
42.60 42.34 49.39 49.68 50.24 49.20 46.60 44.10 48.79 42.69 43.78 39.66 42.95 45.45 49.59 50.52 50.61 51.45 52.49 54.25 55.45 56.71 58.05 60.01 62.06 62.59 63.52 64.46 66.14 66.95 65.73 65.34 65.28 64.90 64.82 63.84 64.89 65.98 64.77 64.80 64.01 63.01 62.76 59.95
46.78 41.81 47.36 48.40 50.36 50.55 48.57 50.68 42.96 43.93 34.13 33.62 40.23 42.25 42.38 46.67 47.76 49.41 50.61 52.28 55.18 56.71 57.16 59.22 60.86 62.50 63.66 64.85 66.54 66.77 66.74 65.64 65.53 64.87 65.14 64.76 65.15 64.30 63.88 63.26 61.66 61.07 60.53 58.08
48.79 45.64 44.76 48.41 46.48 45.91 46.54 45.58 46.48 46.34 43.64 36.62 36.01 40.76 49.05 48.40 48.98 49.12 50.61 52.68 53.84 56.49 58.06 58.73 59.90 61.64 63.45 64.76 65.85 66.23 66.19 66.01 65.65 65.35 65.37 64.02 63.27 63.10 63.02 61.37 60.69 59.99 57.62 53.74
49.04 46.45 42.41 44.05 48.87 50.15 48.82 47.19 46.98 41.20 40.36 43.21 41.74 42.14 50.65 50.80 51.09 51.54 51.73 52.42 55.12 56.84 57.84 59.66 60.16 60.54 61.75 63.27 64.59 64.99 65.49 65.38 65.90 66.10 65.28 63.81 62.87 60.80 59.93 59.01 57.12 55.08 52.86 50.71
49.13 44.45 39.37 41.62 45.73 48.66 46.19 48.66 48.41 47.86 46.67 41.09 37.81 41.30 50.47 50.96 50.70 51.45 51.78 53.08 54.77 56.49 57.93 60.00 60.82 61.09 61.27 62.02 62.80 63.48 64.10 64.07 65.00 65.01 59.80 58.98 57.17 55.70 54.21 52.01 50.68 49.77 48.61 48.24
50.24 46.08 42.70 39.32 42.64 46.02 43.55 45.70 47.38 46.41 42.08 41.89 42.23 43.70 47.93 49.45 50.20 51.76 52.83 53.53 54.38 56.41 57.34 57.69 59.11 60.54 61.50 62.21 62.59 63.01 62.79 63.31 63.16 59.82 56.92 54.28 53.60 52.01 50.99 49.68 48.87 48.19 48.16 47.27
49.44 42.83 44.71 45.07 46.03 46.03 45.14 44.98 45.52 44.51 45.11 41.81 44.02 44.58 47.52 49.32 50.67 51.56 53.11 53.64 53.32 53.48 56.17 57.76 58.69 60.16 61.55 62.20 62.69 60.11 57.92 56.97 55.88 53.56 52.28 51.08 50.91 50.76 50.73 50.05 48.60 47.86 47.27 45.76
49.67 43.57 45.04 42.84 45.63 45.34 43.18 44.79 45.01 45.39 45.49 45.26 45.56 44.84 50.43 51.02 52.31 52.28 52.41 52.53 52.93 53.20 54.73 57.88 59.77 61.18 61.26 60.74 60.33 58.70 55.80 54.19 53.30 51.15 49.77 49.99 50.62 51.70 51.31 50.62 49.61 48.57 47.28 46.77
47.07 45.34 43.07 39.44 44.60 44.24 40.47 43.95 44.83 45.53 46.90 46.54 43.20 47.48 50.71 50.29 50.49 51.81 52.41 53.18 53.58 54.30 55.24 56.44 58.79 59.46 58.90 58.17 57.92 56.96 55.07 53.94 52.05 50.81 50.96 51.07 50.67 49.19 48.99 48.85 48.49 47.45 46.41 46.39
46.51 45.23 44.47 40.46 39.22 33.85 44.10 48.95 48.40 46.39 47.36 48.52 48.28 49.25 50.51 50.60 51.61 53.22 53.99 54.03 54.14 54.15 54.57 55.59 56.65 56.45 56.37 56.54 55.57 55.07 54.27 52.67 51.30 50.17 49.11 48.98 48.94 48.31 48.17 47.64 47.32 46.88 47.19 46.59
48.21 46.46 42.15 38.88 38.24 42.09 44.36 46.63 46.88 45.76 45.43 49.55 49.13 50.15 50.95 51.61 51.82 50.61 52.55 54.93 54.40 53.95 54.28 54.74 55.14 54.59 54.38 53.93 53.86 52.78 51.45 50.65 49.58 48.81 48.87 48.77 48.19 46.83 47.15 46.22 45.90 46.21 45.19 45.26
46.03 47.61 44.23 40.89 36.08 33.35 43.59 48.42 51.30 50.75 43.01 50.76 50.83 50.37 50.07 50.77 46.22 49.15 51.75 53.67 53.14 52.89 52.92 52.54 52.94 53.13 52.58 52.56 52.42 50.99 49.74 49.39 48.44 48.14 47.69 47.52 47.78 47.23 46.17 45.61 45.10 44.80 44.06 42.63
40.14 41.99 40.50 40.45 38.70 42.37 48.06 49.62 51.77 41.45 43.79 51.78 51.52 51.42 51.00 49.61 50.94 52.91 52.07 51.03 51.40 51.11 51.20 51.76 52.01 51.28 51.41 51.84 51.45 49.66 48.98 46.97 47.43 47.80 47.15 45.80 45.49 44.92 44.72 43.69 43.18 42.30 41.90 41.71
39.50 39.00 39.34 41.46 39.06 36.65 50.24 49.24 45.62 50.56 54.03 53.09 53.30 53.05 52.78 53.13 51.86 50.65 50.05 49.35 49.57 49.54 49.48 50.60 49.95 49.87 50.75 51.17 50.19 48.14 46.82 47.46 46.61 45.21 44.30 43.78 42.89 41.75 42.09 41.79 40.87 40.01 38.97 37.72
40.35 44.68 42.72 44.21 44.36 51.08 51.59 51.48 53.38 54.44 53.58 54.26 54.17 54.28 54.00 52.40 50.31 49.68 48.91 48.58 48.71 48.73 49.35 49.80 49.26 48.59 49.29 49.97 49.15 46.34 45.31 45.35 44.43 43.11 41.64 40.60 39.99 39.29 38.96 38.29 37.36 37.38 36.76 35.10
46.48 48.77 45.57 45.92 49.02 50.39 52.02 53.24 53.64 54.07 54.49 55.22 55.30 54.68 54.26 51.86 50.34 48.81 48.29 48.05 47.97 48.86 48.60 48.93 47.96 46.81 46.17 46.98 46.18 44.90 44.20 43.67 41.99 40.18 39.02 38.27 37.69 36.35 36.48 36.49 35.54 34.88 33.60 32.08
46.19 47.27 45.48 45.96 48.01 49.85 51.32 52.19 52.89 54.13 54.26 53.78 53.54 54.25 53.66 52.06 49.69 48.46 47.45 47.68 48.21 48.21 47.77 47.25 45.93 44.66 43.65 43.78 43.02 42.95 42.37 41.70 39.34 37.65 36.53 35.92 35.08 35.27 34.62 34.01 33.24 32.10 30.18 28.30
45.55 44.90 44.30 43.06 47.88 49.67 50.05 53.26 54.01 54.43 53.90 53.26 52.56 52.56 53.32 51.97 49.31 48.78 47.53 47.93 47.57 46.61 45.95 45.21 44.23 42.50 41.23 40.61 39.81 40.32 40.44 39.20 36.73 34.83 34.51 34.00 33.87 33.59 34.07 33.31 30.95 25.99 26.34 25.22

GFSCGP_sfc_wetblb_060.txt.gz
Wetbulb
50.18 45.61 42.97 46.36 48.55 48.19 47.47 45.24 44.31 48.19 50.55 48.99 48.77 48.55 50.96 53.41 51.74 54.70 56.02 55.36 56.47 58.55 59.19 59.62 59.27 58.83 58.21 57.48 56.90 57.13 57.42 58.57 58.12 57.11 56.96 57.95 58.27 59.78 60.31 60.23 61.57 63.27 63.26 63.48
47.37 44.08 47.98 49.90 49.32 48.20 46.85 43.84 43.73 47.52 50.48 49.44 47.81 47.21 50.26 52.69 52.45 54.93 55.73 56.50 56.67 58.12 58.47 58.47 58.51 58.85 57.11 56.62 57.30 57.95 58.47 58.67 58.98 59.31 59.49 60.02 59.17 59.53 60.30 60.42 61.29 63.29 63.80 63.20
45.12 47.43 50.80 48.61 47.89 46.15 45.90 44.61 44.51 44.88 47.61 49.38 47.46 45.11 47.51 51.02 53.90 55.01 57.08 58.49 57.38 58.44 57.78 57.89 57.94 58.28 57.40 56.48 57.44 58.59 58.95 58.77 59.40 61.02 60.71 60.14 59.61 59.11 58.42 59.49 59.97 62.50 62.72 61.92
47.33 49.99 49.06 48.05 46.53 47.20 44.04 48.64 47.28 45.65 44.91 40.29 47.69 38.25 46.06 49.06 50.34 53.05 55.00 57.48 56.78 57.66 59.13 58.37 58.19 58.10 59.10 58.66 59.53 59.45 59.38 59.70 60.13 60.76 59.91 58.68 58.16 57.00 58.18 59.35 60.48 62.31 62.53 61.23
45.99 47.40 46.75 46.25 46.56 48.83 45.92 49.77 47.90 46.93 44.10 43.83 43.98 40.82 44.36 48.69 47.47 50.64 53.91 55.77 57.82 57.70 59.15 58.97 58.75 58.98 60.08 60.61 59.83 59.46 59.60 60.08 61.23 61.11 61.71 59.89 59.39 58.75 59.32 59.42 59.87 61.48 60.99 60.57
47.91 51.34 49.25 48.19 50.04 49.43 50.37 48.08 47.43 46.94 44.33 38.06 42.97 42.03 42.45 45.51 47.79 50.04 53.38 55.06 57.43 58.06 59.57 59.95 60.42 60.73 60.27 60.81 61.09 60.90 61.12 61.35 61.92 61.63 61.65 62.28 61.33 60.38 59.09 59.38 59.41 60.61 60.48 60.04
46.04 46.41 49.47 50.51 46.99 49.80 48.24 45.14 38.12 36.52 36.93 36.46 44.61 42.28 44.40 47.92 49.60 51.88 52.12 54.00 56.69 58.47 58.63 59.64 59.83 59.89 60.66 60.37 60.44 61.28 61.38 61.28 62.31 62.77 63.23 62.93 62.06 62.70 60.11 60.07 60.61 60.09 59.91 59.23
40.60 38.21 46.08 49.80 47.81 45.76 45.98 45.07 39.48 31.99 32.34 37.45 44.67 39.77 43.71 50.93 52.40 52.75 52.85 54.36 56.03 57.37 58.91 58.99 60.20 60.49 60.57 61.15 61.33 61.23 61.20 61.15 62.11 62.45 62.71 63.53 62.51 62.29 62.15 61.75 61.45 60.95 60.46 59.99
40.99 40.79 47.98 49.36 49.83 48.36 45.22 43.13 47.84 42.17 41.07 37.31 41.70 44.57 48.94 50.53 50.04 51.09 51.68 53.64 54.88 55.87 57.84 59.60 59.87 61.48 61.67 61.69 62.00 62.08 62.06 61.83 62.28 62.33 62.68 62.16 62.23 62.31 62.44 62.07 63.00 61.42 60.99 59.36
45.61 40.31 47.04 48.43 49.83 49.45 46.59 48.07 42.42 43.26 33.77 32.38 39.36 40.81 40.71 45.92 47.67 48.97 50.19 52.60 55.21 57.51 57.00 57.80 60.26 60.81 62.57 63.05 63.30 63.47 63.32 63.02 63.41 64.01 63.13 62.67 62.38 62.74 62.71 63.05 62.14 60.26 59.15 57.46
47.90 45.28 44.46 47.55 45.25 43.66 44.42 43.50 45.93 45.61 42.87 36.47 34.63 38.55 46.05 48.03 48.86 49.11 51.55 52.54 54.43 57.58 57.67 58.17 59.33 61.34 62.19 63.62 64.07 64.33 64.78 64.68 64.68 64.72 63.69 62.89 63.26 63.40 61.66 61.25 60.28 59.66 56.81 55.18
47.94 45.85 40.40 43.07 48.05 49.14 47.53 45.74 45.51 40.72 38.93 42.20 40.91 40.45 50.70 51.62 50.99 51.86 51.89 52.45 55.30 56.92 57.52 58.52 59.10 60.09 61.63 62.38 63.26 64.51 65.08 64.99 64.87 64.60 64.00 62.63 61.76 61.34 59.58 58.57 57.63 55.99 53.45 52.40
47.91 43.65 38.23 40.68 45.38 47.90 44.87 46.46 47.37 47.14 45.80 41.18 36.95 40.03 51.02 51.25 50.72 51.61 51.91 52.89 54.31 55.87 57.26 58.48 59.22 59.19 60.15 61.83 63.05 63.65 64.68 64.63 62.74 61.90 61.63 59.32 57.21 55.05 53.09 51.48 50.21 49.29 49.12 48.96
48.88 45.17 41.93 37.05 41.00 45.46 43.03 44.82 47.00 46.11 41.13 41.38 41.59 43.57 47.97 49.22 49.77 50.76 51.76 52.60 53.38 55.07 56.34 58.05 59.10 59.70 60.34 61.07 61.88 62.46 62.34 59.52 60.18 58.82 57.21 54.02 52.74 51.15 49.84 49.21 48.72 48.67 48.04 46.73
48.79 42.45 44.31 44.31 44.82 45.76 44.88 44.28 44.37 43.27 45.39 40.20 43.77 43.58 46.78 49.30 50.24 51.28 53.05 53.21 53.21 53.41 55.21 55.94 57.59 59.25 60.50 61.04 60.63 59.42 57.72 56.76 55.92 54.13 52.25 50.64 50.08 50.52 49.30 48.03 47.86 47.02 46.09 45.58
48.65 42.43 44.27 41.10 44.56 44.57 42.83 45.08 45.16 44.74 45.19 44.82 45.43 44.88 49.95 50.94 51.55 50.91 52.59 52.82 52.43 52.55 53.50 56.16 57.75 59.36 59.98 60.39 58.55 56.24 54.29 53.33 52.75 51.24 50.45 50.75 50.63 50.18 49.50 47.70 46.54 45.84 45.53 45.39
45.66 44.05 41.74 36.79 43.11 43.10 37.52 43.33 44.61 45.41 46.95 46.29 42.55 47.09 49.88 49.24 50.02 51.31 51.78 52.87 52.48 53.44 54.30 55.92 58.05 59.68 60.21 58.76 56.26 54.11 52.95 52.40 50.90 50.08 50.12 50.94 51.02 49.65 48.89 48.48 47.39 46.45 45.04 44.61
44.47 44.88 42.69 37.28 37.31 31.22 43.57 48.91 47.70 45.67 46.57 47.40 47.16 48.12 49.22 49.74 51.41 53.01 53.85 53.58 53.55 54.73 55.08 56.16 58.83 58.61 58.27 57.89 55.52 53.86 53.28 52.03 51.24 50.77 50.14 49.36 48.67 47.68 47.28 46.25 45.54 45.69 45.54 44.57
46.64 44.30 37.68 36.09 35.70 40.74 43.62 46.24 45.99 44.81 44.44 48.83 47.66 48.64 49.59 50.97 52.72 51.65 53.96 55.40 55.39 55.13 55.68 56.89 57.63 57.04 56.69 55.40 54.66 53.09 51.60 50.71 49.33 48.23 48.17 48.30 47.66 46.23 46.32 45.64 45.37 45.03 44.43 44.05
44.35 45.02 40.71 38.06 32.87 31.41 42.72 48.26 50.24 49.71 40.08 49.70 50.00 50.22 50.31 50.91 45.91 49.17 52.68 54.79 54.70 54.91 54.98 55.07 55.32 54.50 53.53 53.15 52.53 50.62 49.26 48.58 47.99 48.15 47.72 47.53 47.56 46.90 45.23 44.77 44.59 44.62 44.06 41.69
37.15 38.25 36.30 36.93 35.05 40.79 47.59 49.07 50.15 39.22 41.33 52.00 51.93 51.53 51.51 50.25 51.50 52.98 53.33 53.90 54.23 53.99 53.65 53.88 53.10 52.03 51.87 51.82 50.95 49.01 48.47 47.32 47.99 47.99 47.56 47.22 46.69 45.66 45.03 43.38 41.88 40.71 39.62 39.89
37.72 35.86 35.89 38.40 35.14 33.87 49.96 48.74 43.28 48.17 51.59 54.49 53.01 53.64 54.75 53.15 52.47 51.86 52.49 52.17 51.86 51.27 51.51 52.01 51.02 50.56 50.95 51.03 49.93 48.11 46.54 47.40 47.48 46.41 45.17 44.26 43.92 43.00 41.88 40.11 39.01 38.46 36.61 34.24
36.56 41.91 39.88 40.42 41.02 50.61 50.87 50.02 52.30 53.32 52.85 53.58 53.41 54.48 55.14 52.01 51.00 51.06 50.32 50.28 50.11 50.18 49.94 51.09 50.08 49.53 49.97 50.32 49.03 46.75 46.46 46.10 44.66 43.55 42.22 40.94 40.47 40.39 39.82 37.12 35.39 34.33 34.01 31.12
45.55 47.12 42.82 43.15 46.57 48.24 50.32 52.27 52.81 53.92 53.56 54.06 55.05 54.86 55.28 52.18 51.47 50.11 49.84 49.44 49.22 49.35 49.11 49.78 49.02 48.13 47.90 48.97 48.63 46.50 45.39 44.67 43.05 40.53 39.25 38.31 36.35 35.43 35.13 34.86 34.22 33.01 30.16 28.96
44.22 46.83 44.75 45.13 48.16 48.07 49.24 51.03 51.98 52.86 54.26 54.39 54.20 54.44 53.53 53.49 51.42 50.32 49.27 48.76 48.98 48.69 48.85 48.79 47.72 47.39 46.98 47.11 45.03 44.52 43.96 43.09 40.44 38.60 36.85 34.86 33.92 33.94 33.24 30.38 30.06 28.39 25.81 26.47
45.46 43.78 41.79 41.93 47.95 47.13 48.13 50.10 51.98 51.79 51.71 53.83 53.60 52.96 53.20 53.58 51.23 50.67 49.15 48.94 48.61 48.30 48.26 47.46 46.70 45.61 44.50 43.27 42.32 42.16 42.16 40.90 37.68 34.87 33.83 32.38 31.75 31.22 32.19 29.37 27.09 28.08 25.96 26.40

GFSCGP_sfc_wetblb_063.txt.gz
Wetbulb
45.66 40.84 38.90 41.11 43.08 44.50 43.91 42.62 40.22 41.80 47.66 46.36 45.05 44.39 46.67 49.34 50.44 50.01 50.88 50.47 53.85 53.83 54.96 55.00 53.79 53.33 52.93 52.78 53.98 54.39 53.88 54.05 54.42 53.38 52.43 52.48 53.82 55.56 56.48 57.30 58.28 60.47 61.16 60.70
43.05 39.51 44.92 46.88 46.38 44.98 45.16 42.27 39.84 43.80 47.88 45.76 43.66 42.33 48.75 49.78 50.20 50.13 51.74 52.98 54.03 54.36 54.53 54.51 54.17 53.03 53.06 53.03 54.04 54.57 54.07 54.04 53.69 54.01 53.82 54.30 55.46 56.55 58.06 57.69 57.43 60.78 61.33 61.74
41.01 43.97 47.81 46.59 45.28 43.86 43.94 41.75 41.17 41.81 45.53 46.90 42.51 40.28 45.28 49.50 50.51 51.17 53.18 53.43 54.79 53.74 53.64 54.05 54.19 53.71 53.43 53.31 53.67 54.37 54.43 54.56 54.32 54.31 54.66 56.01 57.33 56.36 56.75 56.91 56.91 60.01 61.47 61.63
43.49 47.55 46.44 45.85 44.43 44.94 40.01 46.26 46.36 44.37 41.54 35.35 42.04 32.83 42.17 46.86 48.80 50.67 53.30 53.30 54.07 54.38 55.01 54.71 54.53 53.03 53.16 53.65 54.41 55.25 56.00 56.45 56.04 56.51 55.61 55.63 55.90 54.75 55.54 55.73 56.86 59.19 61.21 61.16
42.31 44.22 44.44 43.63 45.32 46.97 43.05 48.02 46.57 45.17 40.43 37.59 38.68 34.59 39.17 46.23 43.91 47.16 52.55 53.66 53.52 55.57 55.14 54.68 54.37 53.86 54.03 54.57 55.27 55.98 56.27 56.30 56.70 57.40 57.94 57.23 55.82 55.88 56.29 56.10 56.23 57.44 60.19 60.18
44.56 48.59 46.82 45.69 48.36 47.81 48.39 46.30 45.18 43.31 39.82 32.13 38.42 36.67 35.97 41.21 44.70 47.35 51.24 54.17 54.59 55.06 55.89 55.94 55.98 56.08 54.44 54.81 55.41 56.20 56.47 56.22 56.96 57.53 57.59 57.36 56.35 56.15 55.96 55.78 56.05 58.08 60.19 60.31
43.30 44.14 47.13 48.48 44.41 47.12 45.31 41.29 32.41 30.18 30.48 28.70 42.26 40.07 40.27 45.31 47.77 48.93 50.22 53.65 53.21 54.31 56.38 55.80 55.44 55.51 56.27 55.18 55.45 56.32 56.36 56.09 56.90 57.63 57.65 58.09 58.68 58.52 57.57 55.62 56.49 58.38 58.53 58.37
36.85 35.11 43.91 47.37 45.46 42.97 43.29 41.42 33.39 28.30 27.73 31.75 42.91 36.34 40.66 47.58 48.86 50.08 50.24 51.02 54.67 54.84 56.55 56.52 56.66 56.43 56.74 57.29 57.08 56.73 56.51 56.51 57.36 58.00 58.34 59.26 60.38 60.43 58.69 58.10 58.04 58.54 58.93 58.54
37.17 37.76 45.89 46.46 47.68 46.21 43.62 39.09 44.04 37.67 38.48 32.08 37.66 41.97 46.00 47.38 47.75 47.14 47.21 48.25 52.98 55.11 56.27 56.79 57.28 57.64 57.51 57.74 57.82 57.90 57.35 57.41 58.79 59.09 59.36 59.96 59.71 59.97 59.97 58.58 58.60 58.29 58.74 58.63
42.06 36.65 44.97 46.17 46.99 46.92 44.81 45.72 37.84 38.68 30.99 28.97 35.58 37.08 37.83 44.40 46.15 46.85 45.51 47.50 49.47 51.66 55.35 57.26 57.74 57.82 58.70 58.78 58.82 58.60 59.02 58.78 59.13 59.68 59.68 59.84 60.66 60.66 60.19 58.92 58.64 59.60 58.48 58.12
44.06 40.32 40.67 45.20 42.41 41.60 41.58 40.62 40.27 41.29 39.62 30.03 27.73 33.18 43.57 44.47 47.64 45.70 45.80 47.74 49.61 49.95 51.00 53.29 57.34 58.80 58.86 59.63 59.32 58.82 58.75 59.19 59.53 59.77 60.08 60.08 60.03 59.76 58.79 60.21 60.04 57.95 56.05 55.75
44.38 41.54 36.20 39.88 46.24 47.57 45.21 42.88 41.44 33.85 35.53 37.85 33.20 33.78 47.12 46.21 46.87 47.09 46.34 48.66 49.17 51.59 52.08 52.50 53.38 56.96 59.15 59.01 59.41 59.79 59.82 59.92 60.47 60.56 60.32 60.62 60.27 59.70 58.70 58.26 57.94 56.55 54.41 53.81
44.29 39.92 33.00 35.94 41.44 44.62 41.84 42.66 43.75 43.13 41.19 35.89 31.51 34.40 47.80 48.48 48.79 48.59 46.40 47.43 49.88 51.00 52.28 53.20 53.61 53.80 56.05 58.67 59.88 60.55 60.66 62.79 61.52 60.90 60.08 58.82 57.18 55.15 53.70 51.91 52.16 51.69 50.74 49.24
46.70 40.04 37.46 32.70 36.77 42.66 39.44 42.18 43.52 42.46 35.08 36.26 36.40 39.36 45.98 47.32 47.23 46.60 47.09 47.27 48.96 50.28 53.36 53.38 53.56 54.06 55.33 57.91 57.89 59.53 61.20 60.54 58.89 57.51 56.19 53.73 52.28 50.44 49.61 50.47 49.08 48.90 48.20 47.12
45.47 38.25 40.32 41.00 43.08 44.27 43.25 42.53 42.61 41.54 42.34 38.85 40.89 41.08 44.44 46.66 47.32 47.20 48.79 49.29 48.70 49.88 52.28 54.12 53.95 54.22 56.55 55.77 54.53 54.47 53.98 53.94 53.95 52.96 51.21 49.58 49.35 49.36 48.77 47.62 47.03 46.43 45.79 45.37
46.11 37.47 40.16 37.96 42.29 43.07 41.56 43.91 42.33 42.74 42.52 43.52 43.07 42.33 47.88 47.99 47.19 47.60 49.17 48.88 48.66 48.82 51.00 53.54 55.82 56.88 57.18 55.02 52.81 52.12 51.46 50.94 51.77 50.72 49.35 49.01 48.14 47.44 46.96 46.13 45.67 45.30 44.65 44.46
41.84 38.95 37.43 33.57 40.68 40.82 33.95 39.77 42.15 43.54 44.88 42.91 39.62 44.49 46.27 46.33 46.42 47.25 46.70 49.06 48.64 48.76 49.14 51.91 55.49 57.54 56.76 53.98 52.47 50.39 49.80 50.15 49.75 49.93 49.85 49.51 48.79 47.16 46.25 45.76 45.12 44.54 43.79 43.13
41.01 39.90 37.59 31.19 35.09 28.59 39.53 45.45 45.32 44.11 44.94 45.18 44.63 44.69 45.74 46.42 45.83 46.65 47.72 48.34 48.24 49.62 50.61 54.98 55.97 56.67 54.78 52.99 51.19 50.78 49.99 50.13 49.80 49.73 49.86 49.22 48.31 46.83 45.98 45.58 43.71 42.22 41.42 40.19
42.77 41.33 33.86 31.79 32.63 36.73 40.86 43.48 43.65 42.45 41.64 45.50 43.86 44.61 45.34 45.50 46.09 44.87 49.70 49.85 49.69 50.22 51.16 54.06 54.83 54.70 52.56 51.34 50.99 50.21 49.37 49.96 49.47 48.03 47.36 47.32 46.14 43.98 43.75 43.25 43.66 44.08 42.99 41.79
42.30 41.58 34.76 32.20 28.53 28.00 37.73 45.32 48.81 47.21 36.69 46.42 46.35 45.85 45.89 45.31 39.61 42.23 48.66 50.79 50.35 51.01 53.43 53.20 53.50 52.62 51.99 51.28 50.82 49.29 48.24 47.00 46.26 46.18 45.78 45.40 45.36 44.72 44.86 43.99 43.78 42.94 41.57 41.23
33.53 34.76 32.98 32.90 31.85 34.36 43.92 47.22 48.94 36.51 36.48 47.76 47.38 46.90 46.55 44.02 45.05 46.72 49.44 49.40 50.29 50.31 51.03 51.11 51.07 50.59 50.40 50.24 49.20 46.62 46.01 45.00 46.17 45.84 45.71 45.21 45.16 44.85 44.50 42.21 39.92 38.22 36.79 34.55
34.17 32.13 31.71 34.06 29.91 28.91 46.47 46.40 40.93 43.83 47.21 48.28 47.51 47.08 46.25 47.61 47.36 48.66 49.32 49.20 49.44 48.95 49.36 49.75 48.61 47.97 48.36 48.53 47.63 45.76 44.82 45.88 46.15 45.45 44.63 43.62 43.67 43.01 40.71 36.87 35.73 35.91 33.27 30.36
32.33 36.41 34.33 36.21 35.23 44.99 47.67 46.42 48.66 49.76 49.05 49.21 48.54 49.74 49.78 47.65 47.22 48.61 48.02 47.62 47.72 47.41 47.30 47.80 47.01 46.23 46.65 47.44 47.18 44.46 44.30 45.10 44.14 42.83 41.40 40.25 39.44 38.55 36.91 33.94 32.20 31.83 31.01 28.15
40.20 43.61 39.21 39.24 42.13 44.29 46.37 49.26 49.85 49.21 49.38 50.31 51.25 49.91 50.25 49.75 48.68 46.82 46.68 46.21 46.04 45.89 46.02 45.89 45.81 44.96 44.37 45.34 45.69 44.66 43.77 43.20 41.83 38.84 37.03 35.12 33.90 33.01 31.86 32.72 32.01 29.70 27.32 25.61
39.59 42.96 41.19 39.81 43.70 45.97 46.37 47.73 49.18 48.12 49.42 50.54 50.90 49.76 49.72 48.70 47.66 47.57 46.68 45.43 45.76 45.65 45.77 45.98 45.04 44.24 43.74 44.40 43.09 42.83 42.29 41.24 37.99 36.39 34.32 32.80 31.67 29.87 27.68 28.20 27.81 25.36 24.77 26.41
40.39 37.89 37.04 36.63 44.03 44.32 45.19 47.77 50.28 49.28 49.61 50.38 49.29 49.48 49.22 49.22 47.67 46.80 45.12 45.07 44.84 45.25 44.25 44.33 43.70 43.23 40.74 41.00 39.92 40.07 40.33 38.55 36.00 32.24 31.32 29.40 29.18 28.15 27.17 26.32 24.59 26.77 26.69 27.80

GFSCGP_sfc_wetblb_066.txt.gz
Wetbulb
44.36 38.75 37.24 38.60 40.56 41.97 41.13 39.45 38.07 40.96 45.42 44.60 43.44 42.57 45.39 47.85 47.71 49.11 48.76 49.24 51.65 51.63 52.89 52.89 52.85 52.83 53.08 54.39 54.70 55.12 54.74 53.92 53.26 52.67 53.17 53.19 52.36 54.09 55.63 55.17 56.38 58.24 58.22 59.93
41.44 38.13 42.89 43.83 43.53 42.18 41.55 40.10 39.43 41.60 46.29 44.96 42.82 41.35 44.29 46.99 47.76 49.85 50.48 49.22 51.54 52.09 52.04 52.77 51.88 51.59 51.74 52.67 53.59 53.40 53.29 53.28 53.64 53.72 53.50 52.93 51.20 52.95 54.60 55.20 55.95 57.58 58.91 59.17
39.84 42.66 45.92 44.01 42.35 41.25 41.31 39.96 40.21 39.86 42.04 42.87 40.60 38.54 42.82 47.43 48.95 50.03 50.94 51.78 53.35 52.58 51.38 51.95 51.40 51.26 50.96 51.55 52.63 53.27 53.16 53.26 53.63 53.66 52.84 52.21 52.93 54.15 54.23 55.19 55.64 56.34 59.01 59.71
41.46 46.43 44.45 42.89 41.68 42.60 38.30 44.37 44.05 42.82 39.55 34.30 40.27 31.01 39.68 45.62 46.83 48.11 49.55 51.66 53.40 53.09 53.22 52.70 51.75 50.77 50.83 51.21 53.24 53.82 53.59 53.31 53.74 53.81 52.56 51.80 52.07 51.84 53.83 54.56 55.61 55.39 58.60 59.21
40.94 42.66 42.35 41.42 42.85 45.09 41.92 46.07 44.21 43.99 39.56 35.69 36.88 32.56 36.59 43.66 44.51 46.44 48.60 50.74 53.75 53.37 53.69 52.83 52.54 51.89 52.21 52.44 52.75 53.97 53.91 53.51 53.80 53.20 53.00 52.27 52.83 54.14 55.65 55.81 55.29 55.04 57.46 59.51
43.74 47.45 44.83 44.67 46.52 46.07 46.93 43.93 43.07 41.86 37.62 30.73 36.84 34.91 33.51 38.24 43.18 46.23 49.77 51.12 53.11 53.79 54.14 54.42 54.16 53.75 52.86 53.14 53.16 53.76 53.66 53.60 53.80 53.57 53.15 53.01 53.35 54.72 55.10 54.60 54.38 55.18 56.79 58.97
41.78 42.84 45.27 46.18 42.35 44.69 43.41 38.73 30.75 29.72 29.13 29.01 39.02 36.85 37.76 42.77 45.10 47.58 50.74 51.84 52.92 54.24 53.82 53.70 53.28 52.23 52.42 52.11 52.49 53.12 53.61 53.64 54.37 53.90 54.54 54.89 55.42 55.67 54.85 54.46 54.57 54.66 56.11 57.46
35.03 33.40 42.42 45.59 43.50 40.96 40.69 39.72 31.37 27.96 25.99 30.24 39.81 34.62 39.39 46.06 47.15 48.12 53.45 53.77 53.71 54.35 54.76 53.62 53.50 52.85 52.64 52.25 52.86 53.30 53.79 53.81 54.65 54.37 54.48 55.83 56.56 56.55 56.27 56.02 56.18 55.97 56.57 57.94
35.69 36.12 44.36 45.45 45.95 44.80 41.22 36.73 43.46 35.98 35.36 30.15 34.66 39.65 44.28 45.70 45.43 45.42 47.84 52.87 52.30 52.73 54.64 54.68 54.52 53.73 53.57 52.78 52.93 53.71 54.42 54.42 54.69 54.70 55.19 55.91 56.64 56.68 57.36 57.87 55.85 56.62 57.81 57.25
40.68 34.74 43.26 45.17 45.04 45.42 43.67 44.65 35.73 36.06 29.93 27.65 33.24 34.71 36.73 42.36 43.45 44.27 43.87 48.23 50.22 52.66 53.14 55.54 55.68 55.29 55.47 55.13 54.57 54.66 55.24 54.94 54.88 55.29 55.68 56.14 56.74 57.17 57.91 56.55 57.05 57.81 58.29 58.13
42.44 38.74 38.25 43.09 41.04 39.29 40.03 38.10 38.52 39.24 37.11 29.60 26.75 31.92 41.70 43.61 45.61 45.19 44.18 47.26 48.06 51.49 53.38 54.92 56.47 56.92 56.75 56.98 56.58 55.63 55.59 56.03 56.00 56.44 56.62 56.46 57.61 58.70 58.32 58.33 58.43 57.93 57.73 58.76
42.88 39.43 34.72 38.22 44.26 45.57 43.54 41.41 39.94 32.88 33.29 34.71 31.54 34.58 44.45 45.05 46.19 45.36 44.97 47.21 48.59 51.22 54.11 55.12 56.47 57.19 57.17 57.12 57.28 57.07 57.03 56.66 57.37 58.40 58.27 57.78 58.33 59.05 59.17 59.33 58.44 57.82 57.09 55.13
42.73 37.21 31.35 34.32 39.36 43.21 39.72 41.45 42.66 40.06 37.77 33.21 29.15 33.91 46.04 45.23 45.51 46.18 45.06 45.16 47.60 49.85 49.28 50.13 51.96 55.90 57.04 57.49 57.84 57.79 58.10 58.45 59.77 60.47 59.38 58.78 59.11 58.62 58.35 57.59 57.41 56.41 54.29 52.31
45.43 40.81 36.26 32.05 35.57 39.45 37.53 40.15 42.50 40.95 31.41 33.23 34.04 38.07 42.75 44.64 45.34 46.97 46.32 45.50 47.13 48.92 50.96 50.69 50.59 52.34 55.01 56.88 57.47 57.43 58.08 59.02 59.60 57.58 58.80 58.53 59.46 59.39 58.18 54.66 52.73 51.57 51.52 49.51
43.94 36.77 39.30 39.63 40.98 41.66 41.23 40.67 40.84 38.90 39.22 35.18 38.06 39.34 42.83 44.87 46.30 47.20 48.23 46.62 47.60 47.93 50.36 51.29 51.13 54.68 53.91 54.19 55.14 57.84 58.76 58.86 57.26 55.87 56.49 53.24 52.53 53.00 52.18 50.97 50.19 49.27 48.62 48.01
44.23 37.01 38.36 37.03 40.47 41.58 39.81 41.42 41.28 40.69 40.30 40.10 41.40 40.54 46.83 47.61 47.50 46.50 46.92 48.83 46.99 48.18 50.31 51.90 53.01 55.16 54.01 53.26 54.45 54.65 56.49 55.43 54.86 52.60 50.72 50.46 50.12 49.90 49.45 48.69 47.54 46.80 45.93 45.61
40.57 38.45 36.26 32.89 38.19 39.25 33.52 38.83 40.28 40.81 41.93 42.10 38.06 42.61 47.50 46.96 46.67 46.30 47.72 47.98 46.94 47.69 48.72 51.31 54.12 55.36 53.76 52.66 52.60 52.53 52.85 52.93 52.07 50.93 50.02 49.43 48.91 47.63 47.13 46.59 46.73 44.80 44.14 44.07
39.23 37.42 37.06 30.71 31.99 27.84 38.75 43.99 42.99 41.67 43.07 44.39 44.05 44.93 47.39 47.74 48.70 47.21 48.02 47.82 47.47 47.21 47.15 51.24 54.58 55.79 53.75 51.89 50.72 50.37 51.48 51.50 50.67 49.83 49.20 48.70 47.53 46.95 46.18 45.58 44.20 43.88 42.99 42.14
42.90 38.07 32.17 30.59 29.81 35.33 38.74 41.49 41.44 40.82 39.22 44.31 44.06 44.13 45.11 45.46 44.44 43.83 48.49 48.07 48.97 46.99 48.57 51.55 55.29 54.05 51.61 50.59 50.10 49.88 49.36 49.79 49.97 48.97 48.08 47.90 46.80 45.64 44.76 43.82 42.85 42.14 40.87 39.69
40.70 39.95 33.77 31.67 28.62 26.87 36.02 42.68 46.39 46.09 34.67 44.47 45.93 45.56 45.59 44.68 37.41 41.15 47.36 48.81 49.48 51.04 52.90 52.82 52.01 50.97 50.06 49.95 49.56 48.79 47.87 48.13 48.11 48.16 48.21 47.16 45.81 44.27 43.71 43.12 41.50 41.03 40.74 40.29
32.17 32.20 31.28 31.72 31.33 33.15 41.17 44.93 47.15 36.07 35.98 45.31 47.26 46.67 46.39 42.17 44.15 45.93 48.18 48.71 50.40 52.26 51.93 51.76 52.04 51.11 50.13 49.61 49.10 47.40 46.76 46.08 46.80 46.38 45.74 44.43 44.23 43.52 43.20 42.83 41.66 39.43 36.58 35.41
31.83 31.02 30.50 32.23 30.35 27.01 45.28 45.52 39.81 41.66 44.79 47.50 47.33 46.92 45.27 45.81 45.69 46.92 48.77 48.80 49.24 50.08 49.62 50.72 49.88 48.90 49.00 48.85 47.68 45.17 44.59 44.88 45.00 44.60 44.01 43.59 43.85 43.90 43.84 39.28 36.60 34.75 32.48 30.57
31.93 36.46 33.83 35.37 34.44 43.45 45.89 46.79 47.49 48.18 46.53 47.46 46.91 47.73 47.59 45.85 45.50 47.10 46.96 47.65 48.81 49.46 48.50 48.75 47.44 45.85 46.35 46.27 46.23 44.09 43.48 44.50 44.08 43.36 41.96 40.91 39.52 38.51 37.28 35.54 33.50 31.81 30.52 28.96
36.64 42.02 37.27 37.67 40.98 42.44 44.55 47.97 48.52 49.08 47.67 48.78 49.72 48.20 47.54 47.24 46.68 46.16 46.46 46.57 46.41 46.51 46.65 45.71 45.80 44.81 43.58 44.30 44.26 43.94 43.92 43.71 42.10 38.85 36.73 36.09 34.52 31.78 31.71 31.90 31.75 30.03 27.46 27.91
37.48 40.26 39.21 38.13 41.59 44.16 45.24 45.71 46.86 48.19 48.94 48.99 49.80 47.87 48.21 47.74 48.26 46.36 46.50 46.41 46.76 46.21 45.50 46.34 45.22 44.43 42.73 43.26 42.57 42.68 42.16 40.91 37.79 34.78 33.26 31.68 30.20 29.83 27.53 25.66 26.26 26.76 26.95 27.62
38.94 38.42 36.21 34.29 42.11 42.73 43.80 45.21 48.22 47.19 46.84 47.84 48.42 48.22 47.56 47.95 48.05 47.09 45.73 46.07 45.51 44.92 44.09 43.72 43.26 42.19 41.22 40.81 39.79 39.22 39.18 37.83 33.92 30.62 29.80 27.56 26.85 27.24 25.84 24.24 24.00 28.70 28.42 28.86

GFSCGP_sfc_wetblb_069.txt.gz
Wetbulb
42.92 37.75 34.86 38.97 39.17 39.76 38.82 36.79 35.23 39.04 42.61 41.86 41.55 42.31 43.85 45.32 46.04 46.65 46.61 48.58 50.10 50.92 51.52 51.87 51.83 53.02 54.27 55.04 54.96 54.94 55.06 55.24 55.20 55.10 55.23 53.97 52.58 53.55 55.19 55.94 57.49 57.64 58.13 58.78
39.63 37.36 41.09 42.00 41.74 40.39 39.09 36.57 36.15 39.84 42.86 42.32 40.67 41.12 43.07 45.28 46.16 47.01 47.36 46.86 49.72 50.28 50.30 51.13 50.61 51.46 52.53 54.57 54.67 54.49 54.17 54.24 54.86 54.69 54.72 54.96 53.23 53.25 54.67 55.41 55.67 57.12 57.47 57.63
37.87 40.89 44.56 41.84 40.31 39.08 38.51 36.72 36.80 37.43 40.90 42.40 38.96 37.55 40.94 44.93 47.01 48.17 49.92 49.66 51.16 50.95 50.09 50.71 50.79 50.96 51.58 53.07 54.04 53.04 53.71 52.85 52.98 52.33 53.74 52.74 52.98 53.28 53.47 54.06 54.58 54.77 56.45 57.54
39.25 44.61 42.91 40.47 39.55 40.20 35.86 41.34 41.44 40.16 37.16 32.96 38.70 29.77 36.97 42.06 44.37 47.05 48.15 48.97 50.68 51.62 52.17 51.45 50.64 50.08 50.48 50.94 52.49 52.51 52.60 52.25 52.21 51.92 50.81 50.88 51.47 50.31 50.69 50.67 51.97 52.72 55.79 57.31
38.11 41.45 40.76 39.90 41.16 42.31 39.48 43.49 41.79 40.77 37.39 34.17 34.63 31.01 34.78 40.99 42.50 44.73 47.32 48.84 50.31 52.31 52.35 51.59 51.07 50.65 50.62 50.93 51.46 52.43 52.91 52.74 52.91 52.25 51.35 50.36 49.51 50.52 50.80 51.26 52.08 52.80 54.24 56.45
40.70 45.18 43.21 42.93 44.72 43.87 45.10 42.02 40.87 38.96 36.03 29.54 35.08 33.43 32.47 36.49 42.56 44.73 48.37 48.91 50.71 52.62 53.20 52.93 52.66 51.32 50.84 50.37 51.09 52.30 52.44 52.73 53.09 52.51 51.96 50.76 50.58 50.77 51.22 52.26 53.05 54.23 53.92 55.54
38.81 40.71 42.99 44.63 40.98 43.33 41.41 36.94 29.20 27.48 27.37 28.80 36.85 33.34 35.24 40.83 42.85 45.98 46.49 48.84 50.46 52.98 52.98 52.62 51.98 50.93 50.71 50.05 50.36 51.81 52.45 52.13 52.78 52.66 52.29 51.58 51.14 51.60 52.12 53.03 53.69 53.50 53.73 53.99
32.61 30.40 40.35 44.33 42.15 39.45 38.56 37.64 29.93 26.60 25.48 29.00 36.91 32.81 37.95 44.43 46.27 46.94 46.73 49.74 51.06 52.43 53.08 53.13 53.04 52.58 51.72 51.40 51.14 51.59 52.37 52.18 52.56 52.58 52.38 52.61 52.20 52.30 53.58 54.14 54.78 54.04 54.25 55.16
32.68 32.63 42.57 43.98 44.13 43.32 39.16 35.07 41.13 33.39 33.04 29.54 32.93 37.19 41.95 44.66 44.71 44.93 47.10 48.79 49.61 51.18 52.90 53.14 54.08 53.51 52.69 51.97 51.85 51.95 52.27 52.50 52.79 52.59 52.75 52.74 52.67 53.09 54.25 55.09 55.88 55.72 55.28 55.55
39.07 33.01 41.29 43.13 43.38 43.26 41.45 43.03 34.31 33.69 27.30 26.56 30.62 32.47 34.13 41.07 42.64 43.91 43.61 48.43 50.09 51.80 53.00 53.81 53.90 54.16 53.61 53.24 52.87 52.93 52.95 52.65 53.04 53.35 53.18 53.16 53.38 54.48 55.22 55.90 54.74 55.46 55.93 57.43
41.35 36.98 36.24 41.04 38.50 37.57 38.04 38.18 37.57 37.81 33.68 28.40 26.60 30.39 39.72 41.89 43.79 43.12 42.62 46.64 50.41 51.29 52.98 54.21 54.37 54.48 54.32 53.93 52.86 52.69 52.86 52.98 52.88 53.45 53.47 53.44 53.67 54.99 55.90 56.23 56.20 55.98 57.70 57.78
40.81 37.15 33.37 36.83 42.15 43.38 41.95 39.50 38.76 31.29 30.94 32.98 30.14 33.57 42.56 43.59 44.40 44.80 44.84 45.74 46.13 50.91 52.40 53.35 55.10 55.18 53.98 53.56 53.51 52.76 53.71 53.90 54.77 54.62 54.55 54.43 54.88 55.40 55.95 56.43 56.91 57.83 58.41 58.39
43.40 35.91 30.73 33.08 37.28 41.12 38.26 39.49 40.73 38.70 35.67 32.83 29.48 32.11 44.04 44.11 44.66 45.12 44.10 43.76 45.10 46.68 49.46 52.30 53.47 54.77 55.12 54.75 54.65 54.16 53.99 54.28 55.72 55.90 55.11 55.14 55.52 55.70 56.41 57.75 58.15 58.32 58.10 56.93
45.02 38.98 35.01 29.75 33.58 37.67 35.89 39.43 40.54 39.63 31.83 31.81 34.05 35.97 39.73 43.32 43.55 45.19 45.08 45.39 45.31 45.56 47.84 48.88 50.58 53.96 55.39 55.76 55.71 55.47 55.23 55.35 55.60 56.09 56.10 55.72 55.88 56.71 57.53 58.32 58.15 58.15 55.11 53.88
43.70 35.48 38.24 38.46 39.81 40.09 39.49 39.27 39.60 38.23 38.14 33.77 37.04 36.09 39.76 42.67 44.24 45.40 45.96 45.89 45.13 45.52 47.14 48.60 49.28 49.99 53.15 55.16 55.80 56.15 56.17 56.21 56.25 56.03 56.19 56.20 56.95 57.76 58.20 57.25 55.65 52.29 51.55 50.79
43.42 36.69 37.05 34.68 39.01 39.13 37.42 39.89 40.04 39.07 39.26 39.07 39.09 37.25 44.36 45.98 44.96 45.02 46.23 47.02 45.52 46.18 46.81 49.48 50.35 53.32 53.32 53.72 54.32 54.75 55.75 56.35 56.91 56.86 56.69 56.86 55.07 55.11 54.91 53.10 50.63 50.55 49.35 47.85
40.15 37.31 35.06 30.08 36.00 36.42 32.30 37.04 38.99 40.26 40.92 40.07 35.86 40.24 44.59 43.78 44.53 44.90 46.71 46.85 46.93 45.97 47.90 48.09 51.28 54.24 54.18 53.68 54.11 55.07 55.80 55.83 56.33 55.77 53.25 53.21 52.90 51.33 50.09 49.63 48.73 47.63 46.82 46.02
37.31 35.75 34.70 31.40 32.81 27.04 37.36 42.34 42.77 40.29 41.82 42.39 41.88 43.18 45.02 45.18 46.45 47.31 45.95 46.31 46.11 46.16 46.38 47.56 51.88 54.01 52.91 51.16 54.30 53.85 53.96 54.16 53.12 51.87 51.43 50.60 50.32 49.22 48.22 47.84 46.44 44.94 44.87 44.02
40.55 35.36 31.32 27.70 29.06 34.11 35.75 40.38 39.30 38.54 39.16 43.29 41.87 43.14 44.11 43.95 41.45 42.41 45.84 45.40 47.58 47.46 48.48 48.54 52.66 53.51 50.57 51.60 52.19 53.03 52.56 52.22 51.50 50.22 49.81 49.10 48.67 47.16 45.98 45.33 44.21 43.94 44.15 43.75
40.40 38.40 32.89 31.17 26.94 24.09 33.38 40.54 43.37 44.07 34.46 43.36 46.08 44.69 41.85 42.37 36.31 39.64 45.40 46.07 45.74 45.99 48.22 50.85 51.19 50.72 49.97 49.53 51.34 51.27 50.80 50.80 50.42 49.60 48.91 48.15 47.48 46.20 45.07 44.42 42.99 42.93 42.79 41.43
32.43 32.31 31.71 30.69 29.67 30.87 38.84 42.14 45.22 34.00 34.30 44.77 46.06 44.08 44.22 41.57 42.55 45.35 44.97 47.33 47.51 48.47 51.03 50.94 50.64 50.25 49.60 49.42 49.62 49.16 49.66 49.43 49.74 49.57 48.46 47.05 46.52 45.49 44.63 43.13 41.90 41.54 40.69 35.79
30.10 29.80 27.47 31.97 29.26 23.55 43.42 43.06 39.25 41.40 44.20 44.72 46.05 45.04 44.97 45.50 45.74 45.91 46.44 46.30 49.01 50.22 50.66 50.70 49.80 48.42 48.47 48.77 48.87 46.75 46.91 46.45 47.25 46.65 45.31 44.92 44.55 44.06 43.16 40.51 38.97 37.85 35.25 30.99
29.40 32.81 29.86 31.84 32.40 40.64 42.31 43.01 45.10 46.35 46.23 46.58 46.74 46.80 45.58 46.24 46.03 45.32 45.75 46.48 48.31 48.28 49.11 49.92 48.29 47.00 47.34 48.05 47.90 45.62 42.95 44.26 43.96 44.02 43.69 43.36 43.10 42.08 40.35 37.81 34.65 33.00 31.79 31.47
33.75 38.68 34.83 35.06 38.38 40.78 42.70 44.74 47.72 48.56 47.55 48.38 48.55 47.57 46.00 44.57 45.51 45.87 45.95 46.81 46.97 46.90 46.27 45.89 46.57 45.64 43.77 44.45 44.65 43.89 43.81 43.67 42.64 41.58 40.66 39.01 36.19 34.37 35.31 34.58 33.35 30.41 29.77 29.40
33.83 36.27 35.56 35.90 39.87 42.08 43.98 45.08 45.57 46.54 47.67 48.04 48.33 48.40 47.63 45.57 45.93 46.14 46.40 46.74 46.53 46.17 45.62 46.21 45.30 44.38 42.56 43.18 42.89 43.20 43.02 41.73 38.72 37.73 35.54 33.44 32.25 29.83 28.10 28.32 29.42 28.39 28.96 30.52
37.44 36.25 33.34 31.23 39.97 39.64 42.57 45.66 45.48 45.47 46.28 46.46 47.09 47.01 48.08 46.61 46.26 46.23 46.67 45.84 45.67 44.96 45.08 43.37 42.66 41.89 41.25 41.29 40.98 41.32 41.45 38.78 35.55 31.61 31.74 30.98 29.20 28.38 27.87 26.68 25.78 29.45 29.37 29.86